GFSGBSN_850_spd_000.txt.gz
Wind_Speed
19 17 15 13 11 12 13 12 11 10 11 10 10 10 11 12 13 14 18 18 18 18 20 21 20 19 18 18 24 3 2 33 41 40 30 23 16 16 6 7 8 4 7 17 26 27 22
20 16 15 14 12 11 12 12 11 10 9 11 11 11 13 14 15 14 16 18 20 20 18 18 18 18 21 17 32 6 3 27 43 42 32 27 16 18 12 7 6 6 8 15 14 20 15
19 16 15 14 12 11 12 14 11 11 11 13 13 12 12 14 15 14 15 17 20 20 19 19 18 21 23 24 20 27 6 16 37 41 34 32 15 18 8 3 7 9 6 8 14 18 7
17 16 11 13 13 12 11 13 11 11 13 14 12 14 16 14 14 16 15 15 17 18 18 19 19 21 13 30 24 18 20 14 30 35 34 29 20 16 3 2 4 2 2 2 5 5 11
16 14 13 13 14 12 10 11 11 12 14 15 14 13 13 15 16 15 14 15 15 16 17 18 18 17 8 16 26 22 22 18 25 31 33 24 20 5 3 3 3 3 3 5 9 9 3
18 15 14 13 15 13 9 10 11 13 14 16 15 15 13 13 10 13 13 14 13 15 16 15 17 13 12 16 24 25 23 22 21 31 28 18 10 3 2 4 6 5 4 5 6 4 7
17 16 14 13 13 13 10 11 11 14 19 17 14 15 12 9 6 9 15 14 10 6 23 6 13 10 6 19 17 18 24 24 26 26 14 18 5 10 10 10 5 4 3 4 8 9 8
17 17 15 14 13 13 12 10 12 12 17 20 18 15 13 4 4 11 15 10 13 8 9 9 3 21 5 23 13 18 26 22 27 20 20 7 17 13 9 6 5 5 6 9 9 4 1
15 17 15 15 12 12 13 12 13 13 14 21 20 13 8 6 8 10 17 20 12 21 6 5 11 20 9 18 10 19 29 20 23 22 23 8 10 13 9 5 8 6 8 5 6 6 4
15 16 16 15 14 12 13 14 12 14 14 17 19 10 7 6 7 10 7 14 22 17 4 3 7 8 12 16 6 16 17 19 10 22 17 5 6 16 11 11 8 8 8 8 3 2 3
17 15 17 14 15 13 13 12 12 13 13 15 15 8 1 7 1 6 9 22 19 7 3 6 5 9 14 9 17 5 15 14 21 20 6 8 13 16 13 10 9 10 6 3 0 1 3
18 18 17 14 15 14 14 12 12 13 13 12 11 1 10 16 15 13 19 17 7 3 4 6 8 12 13 7 3 10 4 14 21 8 4 2 14 10 10 5 7 6 4 7 4 2 2
20 17 18 17 14 15 14 14 13 14 14 12 12 10 14 17 21 24 24 13 3 1 4 7 7 11 12 6 6 6 3 7 7 12 6 5 2 2 5 5 3 5 6 1 1 1 6
19 18 18 18 14 15 14 15 15 15 15 15 14 14 15 21 17 13 24 5 3 4 2 5 13 13 4 14 6 12 5 9 3 10 8 7 9 8 5 6 7 6 7 5 6 4 4
17 19 17 16 17 14 14 16 17 16 15 18 9 10 16 16 21 13 12 3 2 2 5 10 14 5 4 7 5 7 2 6 4 6 7 6 3 2 2 3 6 5 4 4 2 2 2
15 17 17 16 19 14 15 16 17 17 16 15 5 6 9 6 15 14 4 4 3 5 11 6 5 5 6 14 10 8 9 5 7 8 3 5 5 1 2 3 2 4 4 2 2 3 4
16 15 16 16 18 15 14 15 16 16 17 6 3 3 2 2 17 6 2 3 6 17 7 4 6 10 15 11 10 8 5 3 1 5 4 6 4 1 3 4 7 2 1 2 3 4 4
19 15 14 16 17 14 13 14 15 15 15 5 2 0 4 22 2 1 3 4 5 4 8 4 17 23 9 7 5 3 5 2 1 5 6 2 5 4 3 1 1 3 6 5 4 3 1
18 14 13 15 15 11 10 13 12 13 12 10 5 2 4 18 2 2 2 4 2 4 3 7 4 1 4 3 5 3 4 2 5 3 6 5 2 4 3 4 2 4 4 4 4 3 5
16 13 13 14 14 10 9 11 10 9 9 8 3 1 4 9 3 6 4 3 4 4 6 6 4 5 3 6 7 4 3 3 3 3 4 3 3 5 7 4 5 5 5 5 5 4 4
15 13 13 12 14 11 8 9 10 8 7 3 2 2 2 2 3 3 2 2 3 4 6 4 5 3 5 4 3 4 2 3 4 2 3 3 4 2 2 3 3 4 6 8 7 4 6
16 14 13 13 12 11 7 8 8 7 5 2 3 1 2 3 2 4 4 1 3 3 3 4 7 3 7 5 1 5 5 2 2 3 3 3 3 2 2 4 3 3 4 6 5 4 6
16 13 13 12 11 11 7 7 7 6 4 2 3 1 1 4 2 3 2 5 4 6 7 8 10 13 12 1 7 12 12 11 5 4 2 3 3 2 2 3 5 5 5 5 4 4 5
17 13 12 11 11 11 7 6 6 4 2 2 4 2 2 0 1 2 3 3 4 0 7 4 7 6 6 6 11 15 21 18 16 8 4 5 4 2 2 2 1 0 4 6 5 3 2
16 14 12 12 11 11 8 7 5 2 0 1 1 2 2 3 3 5 6 6 8 13 6 5 5 7 9 5 4 4 4 3 6 6 6 3 4 3 3 2 5 2 2 3 3 2 2
16 16 13 12 11 11 10 8 6 4 3 1 2 3 3 6 2 6 4 5 4 3 3 3 5 6 4 3 3 4 4 3 3 2 5 5 6 4 2 3 5 2 2 2 1 2 5
16 15 13 12 11 11 12 9 6 6 4 4 2 4 4 6 3 10 3 5 6 4 4 2 4 3 2 2 2 3 2 2 4 6 4 3 3 5 3 2 6 5 7 1 4 3 6
17 16 14 14 12 11 13 12 9 6 5 5 5 4 3 5 7 4 4 5 5 5 5 7 5 1 2 3 3 3 3 4 2 4 5 6 6 4 3 2 7 3 1 3 4 5 7
17 16 14 13 13 11 11 14 12 9 7 7 5 5 7 4 6 7 9 8 5 5 7 9 2 3 5 4 2 3 2 1 4 3 1 3 5 5 7 5 2 7 9 10 7 5 1

GFSGBSN_850_spd_003.txt.gz
Wind_Speed
23 20 16 13 13 13 13 12 12 10 10 10 10 11 11 10 11 13 17 16 18 19 20 20 20 19 17 17 25 7 5 22 29 38 29 25 18 12 7 8 6 4 7 13 21 23 19
22 20 16 14 13 13 13 12 12 11 11 10 10 11 11 11 13 15 15 16 19 20 21 20 20 18 21 18 28 27 5 10 33 40 35 30 19 19 9 7 9 7 15 18 16 25 13
22 18 17 13 13 13 14 13 10 11 11 11 12 13 12 12 13 15 16 15 17 19 20 19 17 20 23 28 12 27 22 7 31 39 39 33 13 18 7 3 12 6 4 7 13 18 9
21 16 15 12 13 12 13 14 9 11 13 11 13 12 15 17 17 16 17 15 14 17 18 19 17 18 15 24 28 12 18 12 22 32 35 33 28 17 6 4 2 4 2 3 4 3 6
21 17 15 14 13 13 13 14 11 11 12 14 16 16 16 16 17 18 16 17 16 15 16 16 16 15 10 8 26 29 15 12 16 31 31 25 28 9 7 4 2 1 3 5 8 5 1
19 19 17 16 13 15 15 14 13 11 15 17 18 15 16 14 16 17 17 15 15 14 13 11 14 10 13 25 22 28 20 16 14 27 21 18 12 5 3 4 9 5 3 5 5 4 1
16 18 19 17 15 14 14 13 15 12 14 18 17 15 15 13 12 12 15 15 7 7 21 10 10 11 6 24 13 21 25 17 13 21 17 16 7 15 12 11 3 4 4 3 5 6 5
17 17 18 17 15 15 14 12 15 15 14 18 17 15 10 9 7 10 19 21 17 5 7 21 7 33 8 21 12 23 29 16 13 20 18 7 16 15 7 4 5 3 2 5 8 4 4
17 17 17 18 16 14 15 13 15 15 13 15 15 14 8 8 8 11 18 25 17 19 5 10 16 22 13 21 11 25 31 18 10 19 22 13 10 10 14 7 7 4 4 4 6 8 4
18 18 17 18 16 15 14 14 13 14 12 13 14 9 6 7 7 14 24 19 20 18 3 7 7 7 18 12 8 25 33 17 7 23 20 10 9 12 10 9 10 11 8 3 6 4 3
17 18 20 17 18 16 14 13 13 14 12 12 14 7 5 10 2 4 6 23 22 15 5 8 6 10 11 12 20 17 27 17 19 17 8 6 9 14 13 7 8 8 6 6 5 4 3
18 17 19 20 18 17 16 13 14 13 14 12 14 12 10 13 4 9 20 21 21 5 4 7 7 6 8 15 10 11 11 8 19 13 3 5 11 13 14 5 10 3 4 5 3 2 2
18 18 18 21 19 18 18 15 14 15 16 16 15 16 17 15 13 17 15 16 4 4 6 9 7 8 10 8 10 9 10 10 12 19 13 3 6 6 8 6 4 5 5 1 2 1 5
18 18 18 19 21 18 18 17 15 16 17 19 19 19 18 24 11 23 20 6 6 3 5 6 8 14 3 11 5 5 3 17 10 7 10 5 7 10 5 8 8 8 8 5 6 4 4
21 21 20 18 20 19 20 19 17 17 18 19 23 10 18 19 25 21 15 3 1 3 6 10 14 8 7 8 5 5 2 9 12 13 7 5 3 3 2 4 9 5 4 5 3 1 1
25 20 18 18 18 19 19 18 18 18 18 21 11 6 9 8 18 21 4 5 3 6 12 14 7 7 5 9 6 6 0 1 4 7 2 6 5 2 2 4 4 6 7 3 2 3 4
23 20 17 16 17 18 18 15 17 17 17 10 3 3 4 5 18 10 2 2 4 20 7 7 6 5 10 12 8 6 3 7 4 5 5 5 4 1 4 4 7 3 2 5 4 4 3
25 19 17 15 17 16 16 14 15 16 14 7 2 0 6 20 2 1 2 2 12 9 2 4 3 8 6 7 6 6 6 4 8 10 7 2 5 5 2 0 3 2 7 6 4 4 2
22 18 17 15 16 14 14 11 13 14 13 13 4 4 11 11 1 2 2 4 1 3 5 4 5 6 4 6 5 2 5 1 5 5 7 6 1 4 3 4 3 4 5 4 4 3 5
23 19 17 15 15 12 12 10 9 11 12 13 3 2 5 13 7 3 6 2 4 3 2 5 3 5 4 3 3 4 3 3 3 3 5 6 3 6 8 5 5 5 5 5 6 4 4
22 18 17 15 15 13 10 9 8 9 9 8 3 3 3 4 3 3 3 6 3 3 3 6 5 6 4 4 3 5 3 4 3 4 3 3 4 3 3 4 4 4 6 9 7 5 6
21 18 16 16 16 13 10 9 7 7 8 4 3 2 1 1 2 4 3 1 3 2 2 1 4 1 1 4 3 5 6 2 3 3 2 3 2 2 1 4 4 1 2 6 3 3 3
21 18 17 16 14 12 9 10 7 5 6 3 3 3 1 3 1 2 3 5 6 6 6 3 14 7 5 6 7 13 12 12 6 5 3 3 5 3 2 2 3 4 8 7 4 4 6
22 19 17 15 13 12 8 9 6 4 4 5 4 3 2 2 0 2 4 3 5 1 7 3 3 5 10 22 18 17 21 18 15 9 5 4 3 3 3 2 2 2 3 4 6 4 4
23 20 17 16 14 13 10 10 7 5 3 3 2 3 3 2 1 3 4 5 8 11 6 4 4 8 21 8 4 6 5 6 5 6 7 4 4 3 4 4 2 1 4 6 5 1 3
25 21 18 16 14 14 11 11 8 7 6 5 1 2 1 5 2 5 4 2 4 4 3 4 8 11 6 3 3 5 5 5 3 4 5 5 5 3 2 3 6 2 1 4 4 1 2
23 21 18 17 15 14 13 12 10 9 7 7 4 4 1 4 3 5 3 5 6 5 4 2 4 4 2 2 2 3 3 4 5 8 5 2 2 4 2 2 5 4 2 3 4 4 6
22 21 18 17 16 14 14 14 12 10 8 8 7 5 4 3 5 3 3 4 6 4 4 8 5 1 3 3 3 3 3 4 3 5 6 6 6 4 3 2 6 0 3 5 6 10 10
22 21 19 18 17 15 14 14 13 11 9 8 9 8 8 4 5 8 9 7 5 4 8 10 2 3 6 4 1 3 2 1 3 3 1 3 5 5 6 4 1 4 10 14 10 11 4

GFSGBSN_850_spd_006.txt.gz
Wind_Speed
16 20 19 16 14 13 14 13 13 10 10 12 12 10 10 11 11 10 10 14 15 15 15 16 17 15 15 14 23 8 5 2 22 27 29 20 16 15 7 8 5 4 4 9 16 20 19
18 19 15 16 15 14 14 13 13 11 10 11 12 11 12 12 12 13 12 12 13 16 15 17 17 16 18 16 27 29 11 5 16 28 34 27 16 16 12 7 12 7 15 19 18 26 15
17 19 14 14 13 14 14 14 13 12 11 10 13 13 13 14 15 14 14 13 13 14 15 16 16 16 19 31 8 15 30 26 6 24 35 33 11 16 8 3 8 13 3 7 9 13 8
15 17 18 14 13 13 13 15 13 14 12 11 15 15 15 14 16 17 16 14 13 14 13 17 15 17 15 9 27 19 9 17 16 24 31 31 23 13 7 6 5 6 2 3 4 2 4
14 16 18 17 14 13 14 17 15 15 16 15 17 18 18 16 15 17 17 14 14 13 13 12 13 14 10 10 26 27 15 6 10 18 22 28 29 10 11 4 4 3 4 6 7 5 3
14 14 17 19 17 15 12 17 16 15 16 17 17 19 19 17 16 14 18 17 12 13 10 9 10 5 19 15 21 19 25 10 9 18 15 19 16 6 4 4 7 6 4 3 5 2 2
13 15 15 17 18 15 14 14 16 15 14 19 18 18 17 16 19 18 16 15 8 6 19 13 13 10 7 12 8 12 24 19 9 21 12 19 9 12 13 13 3 6 4 6 4 4 2
12 15 15 16 17 16 15 14 15 15 14 17 17 19 18 9 12 12 23 26 22 6 6 29 11 17 24 5 8 15 25 15 9 9 16 8 16 14 7 8 5 3 3 5 6 1 3
14 14 15 15 16 17 15 14 15 14 15 13 16 18 14 10 11 13 29 30 15 10 1 9 25 12 12 19 12 23 30 16 5 13 22 10 7 14 12 6 10 3 5 4 5 7 3
15 14 17 15 17 17 16 14 16 13 14 11 16 17 11 9 8 15 27 22 20 20 4 6 11 10 14 8 6 23 30 17 5 18 20 6 5 15 15 10 7 9 6 3 3 4 3
15 14 17 18 17 17 17 15 17 14 14 13 14 15 12 9 10 10 17 22 20 18 2 11 8 7 18 10 9 23 33 25 9 10 8 6 14 11 15 16 10 4 6 6 3 3 2
17 16 16 19 17 18 17 16 16 16 14 16 15 14 13 10 6 12 7 25 21 3 6 10 10 10 10 15 7 20 18 11 12 9 2 4 9 10 7 4 11 6 5 2 3 2 2
18 17 19 19 19 19 18 17 16 18 15 17 17 16 15 10 11 9 19 18 3 4 4 7 7 10 12 7 10 11 17 16 9 12 15 1 3 3 9 6 3 5 7 2 1 1 6
18 17 19 21 20 19 19 18 18 18 16 17 19 19 20 16 19 21 24 3 6 3 9 5 7 12 7 8 9 14 10 8 11 3 13 7 6 8 5 6 6 7 8 5 6 4 4
19 20 21 23 21 18 19 18 19 18 17 17 20 23 15 15 24 23 16 3 4 5 7 11 12 7 5 10 2 10 19 11 12 12 9 9 5 2 4 5 12 6 9 4 5 2 1
20 21 22 23 20 17 18 18 18 17 16 16 17 6 3 5 29 30 4 4 7 6 12 14 7 6 9 14 7 5 5 10 15 10 6 6 5 1 2 7 3 7 8 2 2 3 4
21 22 22 22 20 17 17 17 16 16 14 11 4 2 5 12 32 19 3 6 3 16 14 7 6 6 7 7 5 4 8 3 8 7 4 6 4 2 6 5 8 2 4 4 4 3 4
21 23 22 21 20 17 17 16 14 14 11 6 3 1 9 26 5 4 7 3 8 12 2 3 4 5 10 8 5 4 7 5 13 8 8 3 6 6 2 1 4 4 7 6 5 4 1
22 22 23 20 20 17 16 15 12 11 9 7 2 4 14 18 3 2 2 2 3 4 1 4 4 5 9 6 5 4 5 3 10 6 8 7 2 5 2 1 2 4 4 4 5 3 6
24 23 23 20 19 18 15 13 10 9 9 6 4 2 5 14 6 2 3 4 3 2 3 4 5 6 7 3 3 6 6 0 4 4 5 8 3 6 9 4 6 5 5 5 6 4 5
23 23 24 19 19 18 15 12 10 9 7 5 5 3 5 3 4 5 4 7 3 5 8 2 3 12 5 5 4 5 3 5 3 8 3 4 4 3 3 4 4 7 9 10 9 7 7
22 23 24 19 19 18 15 12 10 9 6 7 4 3 4 1 1 5 4 5 4 3 4 1 7 4 4 4 3 8 7 4 5 3 2 3 2 3 2 3 2 2 4 8 4 4 2
23 24 24 19 18 18 14 13 11 10 6 6 6 5 2 0 2 3 3 5 6 5 3 4 7 7 10 1 2 12 12 12 7 7 3 5 5 3 3 1 2 4 8 8 5 4 7
23 24 25 20 19 16 13 12 11 10 8 9 8 5 4 2 2 1 2 2 5 3 5 4 10 4 8 24 20 20 24 19 14 8 3 5 4 3 3 2 1 3 1 6 6 2 4
24 24 23 20 19 16 14 13 11 11 9 7 8 6 4 2 1 2 4 5 8 12 4 4 3 3 22 4 4 5 4 3 5 6 6 3 5 3 5 4 4 0 4 7 6 3 2
25 24 23 20 19 16 15 14 11 11 10 8 5 6 3 5 3 4 4 3 4 4 3 2 5 15 7 3 4 3 2 2 2 2 4 5 6 4 2 4 7 1 2 7 4 2 6
25 23 25 21 18 16 15 14 12 13 11 8 6 5 3 5 3 4 3 5 7 4 4 3 6 3 1 2 3 3 4 1 4 7 5 3 3 4 2 2 5 3 4 5 5 3 9
23 24 24 20 18 18 17 15 14 13 11 10 8 5 4 5 6 3 3 5 5 4 4 9 6 1 2 3 3 3 3 4 3 3 5 6 6 4 3 2 6 4 4 6 5 13 16
20 26 22 19 19 19 17 16 16 14 12 10 8 6 7 4 6 11 10 8 6 5 7 10 1 4 6 4 1 3 2 2 3 3 3 1 4 4 6 4 0 3 3 18 17 19 11

GFSGBSN_850_spd_009.txt.gz
Wind_Speed
15 17 19 17 16 13 14 11 10 8 8 9 9 9 9 10 10 10 10 9 11 13 13 13 14 15 17 14 21 9 3 3 13 22 26 24 19 16 10 12 7 4 4 9 16 14 16
14 17 19 13 16 13 14 13 11 10 8 10 8 7 10 12 12 11 12 11 10 11 12 14 13 15 19 17 17 23 18 2 1 18 28 30 17 19 13 9 16 9 17 20 15 19 14
15 16 18 15 13 12 14 13 12 11 10 10 10 9 11 12 15 14 13 12 11 9 11 14 14 16 20 25 9 8 23 29 16 14 29 35 20 16 11 5 10 8 2 4 6 8 7
14 15 16 17 15 14 13 13 12 12 12 12 11 11 14 15 14 14 14 15 12 11 11 14 13 16 14 11 21 22 8 15 23 16 23 34 27 19 8 8 6 8 3 9 3 3 4
14 14 16 16 18 16 13 13 16 14 14 13 14 16 16 19 19 15 13 14 13 12 10 10 12 13 8 10 27 23 25 9 9 15 18 28 13 12 13 6 4 4 5 6 7 7 5
15 15 15 17 17 18 14 14 15 17 15 13 14 15 17 18 18 18 13 15 13 13 10 8 9 6 14 11 17 13 20 21 11 13 13 15 12 6 7 7 9 7 7 4 5 2 2
14 13 15 16 17 17 17 14 15 15 14 14 14 14 17 17 17 18 16 13 10 6 20 13 10 8 5 6 9 8 14 22 14 15 10 21 10 11 15 14 4 6 6 9 2 2 1
13 13 14 13 14 17 17 15 15 13 14 14 13 12 16 16 13 13 17 27 23 6 5 29 13 21 12 7 6 9 15 17 10 6 10 9 17 15 11 10 6 5 4 4 3 1 2
15 13 15 14 14 16 16 16 16 12 13 13 12 12 15 13 12 16 20 28 22 13 1 6 34 14 12 18 6 9 23 22 10 12 18 19 7 14 13 9 9 4 5 4 4 3 1
17 15 15 16 15 16 16 16 17 13 13 13 13 13 11 9 11 14 16 25 23 14 1 6 13 13 16 9 6 18 28 22 7 15 17 11 11 16 15 15 10 10 4 3 3 4 2
19 16 17 17 16 17 17 16 16 15 13 14 14 12 11 7 8 11 8 25 18 12 4 10 10 4 15 15 5 16 29 23 9 11 8 6 11 21 17 14 10 4 6 3 1 3 1
21 18 17 18 18 17 17 16 16 15 14 15 14 13 11 10 14 12 9 16 19 4 6 9 10 9 13 8 5 21 23 17 5 7 13 1 6 12 8 9 9 9 7 5 4 2 3
23 19 18 19 18 17 19 17 15 16 17 16 15 15 15 13 11 10 16 28 3 4 3 6 5 9 14 8 7 11 17 16 5 10 19 3 5 4 6 10 2 4 6 2 1 4 5
21 21 20 18 19 20 19 18 15 17 18 17 16 16 18 17 13 21 29 3 7 4 6 3 5 11 9 10 7 11 16 11 11 4 12 5 5 8 9 6 7 6 6 5 5 4 2
23 22 22 18 21 21 18 18 16 17 16 16 18 19 20 21 23 29 15 4 4 4 7 10 9 11 5 9 6 9 11 11 9 7 9 10 3 2 6 5 10 4 5 3 4 2 1
25 23 22 18 20 19 18 16 15 16 15 15 19 8 9 10 30 33 3 4 4 6 11 13 5 6 8 12 2 10 11 9 11 14 4 6 5 2 3 7 5 7 8 3 2 4 3
26 24 22 18 20 20 17 15 14 14 13 15 7 4 4 17 37 13 3 5 4 8 17 10 5 6 8 7 5 7 18 10 11 18 4 6 4 0 6 5 9 4 2 2 3 2 3
23 24 23 19 20 19 15 14 14 12 10 9 3 2 6 35 5 4 3 4 9 15 17 9 7 5 8 8 8 7 13 5 19 12 8 7 5 4 3 0 3 5 8 9 4 3 1
25 22 22 19 19 19 15 13 12 10 8 6 3 4 16 27 3 7 6 8 8 6 5 6 4 4 7 8 7 5 9 9 22 13 8 6 1 5 4 1 4 4 4 5 4 3 6
24 21 20 19 19 19 15 13 12 9 8 6 4 3 7 19 8 3 3 4 5 4 1 1 3 5 8 9 3 5 5 4 14 12 6 5 3 5 7 4 6 5 4 4 7 4 5
21 23 21 20 18 19 16 13 11 10 8 7 6 5 7 5 6 8 3 6 3 5 4 4 4 8 8 4 4 5 4 4 3 13 3 2 3 3 2 2 6 7 9 11 9 10 9
16 24 22 20 18 18 16 13 12 11 11 10 4 4 4 2 2 8 5 4 12 2 4 5 9 15 5 7 6 9 9 6 6 1 4 3 3 3 2 2 4 5 6 13 10 4 6
26 17 22 20 19 17 16 14 13 13 12 7 7 9 3 2 2 4 5 5 8 7 2 2 11 6 4 2 5 9 12 14 7 7 4 3 4 2 3 1 4 3 10 10 7 5 12
27 14 22 21 20 18 17 14 14 14 15 13 8 6 3 3 3 4 5 4 8 6 6 3 5 5 5 26 27 24 24 20 13 7 3 5 5 2 3 2 1 4 1 6 7 4 5
23 16 23 24 19 18 16 14 15 14 15 14 12 8 4 3 1 2 5 6 6 6 5 3 6 14 17 3 4 6 4 4 4 5 4 4 5 3 4 4 4 1 4 6 8 6 6
26 21 23 20 19 17 17 15 15 15 15 13 11 12 7 2 4 4 4 4 4 3 3 3 8 15 7 4 3 4 4 5 5 3 1 4 4 4 1 4 6 1 2 6 4 4 8
21 22 21 22 20 19 17 16 16 15 15 13 9 9 7 3 3 6 3 5 8 5 4 5 5 2 3 2 2 2 3 2 5 8 6 4 3 6 4 2 6 4 4 8 4 3 10
28 23 17 20 21 18 17 17 16 16 15 12 9 9 8 2 4 4 4 5 7 7 5 9 6 2 2 2 1 2 3 4 3 3 5 6 6 4 3 2 7 6 4 7 4 13 19
29 28 11 20 21 20 18 19 18 18 16 12 9 9 8 2 3 9 9 7 6 6 12 13 3 5 9 4 2 3 2 1 4 3 1 2 4 4 6 4 1 2 1 10 25 26 15

GFSGBSN_850_spd_012.txt.gz
Wind_Speed
13 16 16 19 18 16 16 17 13 12 10 9 8 6 4 6 8 8 8 8 8 11 12 12 14 15 15 13 15 6 3 4 4 16 22 21 20 19 18 22 20 19 18 16 16 15 14
13 15 18 19 14 16 14 17 17 14 12 11 9 8 6 5 7 9 9 9 9 10 11 12 13 16 14 15 13 18 16 6 2 9 20 23 16 23 16 23 24 14 22 19 17 17 15
15 16 17 18 16 15 15 15 16 13 13 13 12 10 9 8 8 9 9 11 10 11 10 12 12 15 14 19 8 7 22 24 22 7 21 24 27 14 18 18 21 29 12 13 16 19 15
16 16 17 17 17 16 17 15 15 14 14 14 15 13 10 10 10 11 10 10 12 11 11 11 13 14 11 15 24 19 10 7 18 22 14 21 23 20 9 15 15 18 17 17 18 17 14
16 19 19 17 17 16 16 16 14 16 17 16 16 15 15 13 12 14 14 11 13 13 11 11 12 10 9 10 22 23 26 18 5 16 17 11 19 9 16 11 13 16 15 22 18 14 13
18 20 21 19 17 17 17 17 15 15 18 19 17 16 14 14 14 12 14 12 15 15 12 9 9 7 16 11 13 18 22 20 16 12 14 15 14 8 9 11 18 18 16 12 17 9 11
21 20 18 18 18 17 16 16 16 15 16 18 18 15 14 14 14 13 12 12 10 7 21 14 12 9 3 13 7 12 13 18 15 12 12 26 11 20 24 21 16 19 18 15 13 6 6
21 19 15 18 17 16 14 16 16 14 15 16 17 15 14 14 15 14 13 22 18 6 6 28 10 26 5 8 7 14 12 17 17 16 19 17 21 24 17 22 20 17 15 15 10 5 6
19 20 16 19 18 17 16 16 15 15 14 14 16 14 13 13 15 16 20 25 26 21 2 10 30 19 14 17 8 11 21 26 16 18 16 21 20 26 13 25 21 15 15 14 9 4 7
22 21 20 18 20 19 18 15 16 15 13 13 15 13 13 10 11 16 16 19 22 22 2 6 11 14 21 11 9 23 24 21 11 19 14 20 18 20 18 19 22 16 11 7 7 2 5
25 23 23 20 21 20 18 17 16 16 13 12 14 13 13 12 6 9 7 9 20 12 5 11 9 7 14 20 4 20 23 24 16 8 6 13 26 16 19 17 23 15 11 10 4 6 4
24 25 25 22 21 21 18 18 16 15 15 12 13 13 13 15 15 16 12 17 19 4 7 8 9 12 13 23 14 9 17 17 9 11 16 12 5 17 15 16 20 13 12 7 3 1 7
26 24 25 24 21 21 20 18 18 16 15 14 14 12 16 17 12 11 17 23 3 6 4 6 5 9 14 10 16 9 18 22 6 6 7 13 12 9 16 14 4 15 15 3 5 4 6
24 25 23 23 22 22 20 18 19 17 15 14 15 14 16 20 18 15 32 4 8 5 5 4 7 14 11 12 13 13 16 17 14 14 12 7 6 14 13 17 7 12 16 4 5 6 5
21 23 24 25 20 20 19 19 17 16 14 15 13 13 18 21 22 18 20 5 4 4 6 9 14 12 10 14 5 16 17 21 5 14 7 5 1 3 13 6 15 5 6 2 2 1 3
28 24 24 25 21 21 19 18 16 16 12 14 13 13 21 11 26 30 3 5 4 7 6 15 9 12 14 15 5 14 17 16 10 15 9 12 3 5 6 9 6 8 12 5 3 5 5
34 18 24 23 22 20 18 17 15 15 12 12 9 4 6 13 28 17 4 5 4 12 15 16 8 11 11 14 8 15 17 7 19 13 14 7 6 2 12 6 14 10 7 4 3 3 3
30 19 24 21 20 19 16 15 14 13 12 9 4 3 11 28 5 4 3 5 5 6 21 16 6 8 13 14 8 4 15 6 28 14 10 7 3 8 5 3 7 12 10 11 6 5 1
26 25 13 22 18 19 15 14 14 13 12 7 4 4 23 34 4 5 6 7 8 12 17 10 11 10 11 12 9 14 13 18 27 17 12 10 6 8 5 3 2 9 11 16 10 2 11
23 25 17 23 18 19 15 13 14 14 13 11 4 3 8 16 9 4 8 10 8 21 16 15 9 9 15 12 10 14 11 10 24 22 18 6 5 12 11 6 11 14 20 19 18 11 9
21 26 28 19 18 18 15 13 14 15 14 13 7 5 8 5 9 13 7 3 11 9 8 6 6 11 15 8 11 9 8 7 14 27 10 4 3 6 3 2 15 18 19 20 20 21 13
26 23 23 12 18 19 15 12 14 16 15 18 5 4 4 4 12 12 14 9 11 6 4 4 5 14 16 11 11 13 9 12 11 17 18 5 4 3 3 3 10 14 20 22 23 21 23
28 26 23 11 21 19 16 13 15 18 18 14 10 11 3 3 4 4 5 8 14 7 7 8 11 14 14 8 13 20 18 15 9 18 20 13 4 3 3 3 5 8 19 20 19 21 22
26 25 27 19 18 19 18 14 16 20 21 20 8 5 4 4 5 5 5 7 8 14 3 2 9 11 6 7 13 14 9 8 16 6 13 9 5 1 3 4 5 1 3 17 22 18 20
27 24 17 24 21 19 19 15 16 20 20 21 19 9 4 4 3 2 7 4 4 5 2 1 2 8 19 5 9 9 4 3 3 7 2 3 4 3 3 8 6 3 5 7 12 15 16
26 29 22 21 11 13 18 16 15 21 19 19 18 14 7 3 1 1 3 10 4 3 2 3 10 12 5 1 3 3 4 5 6 2 3 3 6 4 4 3 4 3 3 7 6 8 12
29 29 29 23 10 19 17 14 15 21 19 18 12 15 8 4 2 4 2 8 6 4 3 3 4 2 6 2 3 2 2 1 10 11 9 4 4 11 8 2 7 2 6 7 6 1 11
29 28 27 25 18 20 18 15 15 22 19 18 15 14 14 4 3 5 4 5 7 7 4 7 6 1 1 1 3 2 3 4 3 6 10 10 8 5 6 5 10 8 6 6 4 11 16
31 31 26 24 13 21 19 14 17 21 20 17 13 14 13 6 2 3 4 6 8 9 10 19 1 6 7 3 2 4 3 2 6 5 1 6 3 3 7 4 2 1 2 3 11 20 14

GFSGBSN_850_spd_015.txt.gz
Wind_Speed
20 16 16 19 20 22 18 19 17 14 13 14 12 10 9 9 9 9 9 9 8 8 11 9 10 12 11 14 20 5 2 4 1 14 20 19 20 17 18 19 26 23 23 26 25 21 18
25 19 17 20 20 22 16 16 17 17 15 14 14 11 10 9 10 10 10 8 8 7 8 11 10 12 13 17 15 20 14 9 4 6 17 20 15 21 18 25 21 14 29 27 22 22 22
24 22 20 19 21 20 20 17 16 17 15 14 15 13 12 10 11 10 11 9 9 9 9 9 11 12 16 21 9 12 17 20 17 11 13 18 22 16 14 18 32 28 21 19 27 22 22
24 24 18 20 20 20 20 19 17 17 15 14 14 15 14 12 12 13 12 10 9 10 10 10 12 10 13 15 23 15 8 7 12 18 15 13 19 23 12 15 26 24 18 18 18 21 24
24 23 20 21 22 21 20 21 19 18 16 16 15 15 15 15 14 15 14 14 10 10 10 10 9 12 13 12 23 23 23 15 8 10 18 13 16 18 12 10 14 15 18 25 21 24 20
24 21 23 24 24 22 21 20 20 20 18 17 19 16 16 15 14 15 15 12 10 13 12 7 10 7 19 13 14 16 18 21 21 11 14 20 12 11 13 11 15 21 25 19 23 20 17
23 22 24 25 24 23 22 19 19 19 18 16 19 17 15 15 15 17 15 11 7 5 22 13 10 17 4 18 7 9 16 15 18 21 17 27 12 18 27 25 23 22 20 22 21 19 17
26 25 25 24 23 21 20 17 17 18 17 16 17 16 15 14 14 18 17 16 14 4 7 31 23 19 16 6 7 14 16 17 21 20 20 18 19 26 28 22 22 23 22 22 14 15 11
29 27 26 24 24 22 20 19 16 16 18 15 16 14 14 14 14 20 24 24 27 20 6 9 35 31 26 12 12 15 22 25 20 21 21 24 22 27 28 24 22 26 24 19 16 13 11
32 26 27 25 26 24 24 22 18 15 17 16 14 13 13 13 14 17 20 18 25 19 4 6 8 10 22 13 10 27 25 21 17 22 22 18 26 19 27 27 24 19 17 16 15 8 8
31 30 29 27 27 26 24 22 19 16 17 16 14 12 14 18 7 9 10 6 10 7 6 10 9 7 14 15 5 20 31 24 20 20 5 11 9 22 26 25 27 12 22 16 12 8 4
24 21 31 28 27 27 26 22 20 16 16 17 16 12 14 17 20 12 13 7 11 2 7 7 7 12 9 21 16 3 29 23 19 19 15 19 16 21 22 23 21 9 19 13 7 3 7
33 27 23 27 26 28 26 23 19 17 17 18 18 15 19 17 12 18 13 19 2 6 3 5 4 7 12 10 18 10 17 19 11 6 11 9 14 18 14 14 19 13 17 6 5 4 6
32 37 34 19 24 25 27 24 20 18 18 18 18 14 21 20 15 11 24 2 9 4 5 3 4 8 7 11 15 20 9 16 21 9 4 9 9 14 17 7 10 12 17 8 7 9 12
26 36 37 20 25 24 27 25 20 17 17 18 15 16 26 22 21 20 15 5 5 4 6 7 8 6 7 15 6 15 16 17 18 19 5 8 8 12 13 10 14 7 10 2 3 7 8
24 24 35 27 19 24 24 23 18 16 17 17 15 18 25 21 26 27 6 9 5 5 4 7 12 13 13 15 9 13 11 15 17 17 14 4 2 6 3 12 6 8 8 7 3 7 5
25 24 30 28 13 22 22 21 16 15 16 15 14 5 6 18 27 12 6 7 7 9 11 9 16 12 14 11 15 11 9 7 22 20 15 2 2 3 5 5 13 6 3 5 3 2 3
29 25 24 36 12 19 22 21 15 15 14 14 9 3 10 23 5 3 5 5 5 7 20 11 13 11 14 17 13 16 12 16 21 13 10 11 6 3 5 6 13 10 9 13 6 5 5
32 27 22 31 24 18 22 19 14 17 20 14 6 6 15 33 4 5 4 7 7 2 6 9 11 13 12 13 10 12 10 16 14 19 8 9 2 3 6 7 3 5 11 16 13 6 11
30 28 21 25 29 8 21 19 14 18 19 18 5 4 5 15 12 5 6 7 7 15 15 16 9 14 14 13 15 16 8 10 14 21 20 7 8 7 6 7 12 9 15 16 15 10 11
30 28 26 19 23 7 20 19 15 17 20 18 10 6 8 5 7 13 8 5 5 6 12 21 7 18 16 13 16 7 15 12 13 20 15 5 9 4 3 3 16 17 19 20 19 18 12
33 29 28 20 22 18 8 20 15 18 21 22 7 5 7 4 16 14 14 8 13 12 13 7 12 19 18 10 13 10 14 11 9 15 17 12 4 2 3 2 6 13 18 20 22 23 21
34 30 28 19 22 24 8 22 17 18 25 16 16 9 2 6 7 7 4 11 12 12 9 7 9 9 15 13 14 4 17 13 3 15 18 7 4 3 3 5 5 9 19 19 19 21 20
34 30 26 29 19 17 13 21 19 18 26 25 11 8 7 9 11 9 3 9 13 10 2 9 8 3 11 4 5 8 11 13 7 13 18 13 9 3 2 5 6 1 2 17 21 19 20
33 31 28 27 24 20 4 21 18 16 22 27 25 10 5 7 10 5 6 5 3 4 8 1 8 6 8 10 8 5 2 3 6 9 16 8 7 4 3 6 9 12 3 5 16 19 19
32 31 28 27 27 24 4 10 21 17 19 25 26 23 6 4 2 1 9 8 3 2 3 1 3 6 6 2 3 6 3 4 5 4 5 2 8 3 1 3 4 5 2 0 6 9 5
32 31 30 29 28 22 14 15 22 18 20 25 20 21 8 6 8 3 4 4 5 3 3 4 3 5 7 4 2 3 3 5 7 9 6 2 2 4 2 4 7 5 5 5 5 3 3
32 29 30 29 27 23 16 20 20 18 21 24 25 19 14 6 7 4 4 3 4 5 3 7 4 1 2 2 2 2 2 4 4 10 11 9 7 4 6 3 7 7 5 4 3 6 8
32 29 30 28 24 21 17 22 20 18 23 23 23 17 20 8 4 6 7 8 10 8 7 14 0 5 5 3 2 2 1 2 5 6 3 8 8 8 7 4 3 3 3 2 6 12 13

GFSGBSN_850_spd_018.txt.gz
Wind_Speed
24 22 22 22 20 19 20 19 19 19 16 14 14 13 11 9 7 8 8 7 6 7 10 11 9 11 11 10 20 5 5 5 6 10 18 15 16 15 14 8 18 21 17 27 25 27 28
25 21 24 23 23 21 20 21 18 16 17 17 15 14 13 10 8 7 8 7 8 8 8 10 11 10 12 16 12 15 11 11 0 2 11 17 16 17 21 19 18 10 25 25 28 25 24
27 24 24 25 26 22 22 21 19 16 16 18 16 15 14 11 10 8 9 9 9 9 9 10 12 12 13 20 5 10 14 19 18 13 10 12 18 20 10 15 18 23 19 15 26 25 17
30 27 25 25 23 24 23 22 20 18 16 16 15 14 14 13 12 10 9 10 10 10 11 11 10 8 10 14 19 15 8 12 15 16 16 14 11 18 23 13 14 7 13 16 19 12 22
32 30 27 24 23 23 24 24 20 19 17 15 15 15 13 14 14 12 12 11 12 11 12 11 8 8 11 8 23 22 20 14 9 8 13 14 10 8 11 7 7 10 12 23 14 18 14
32 31 29 25 23 24 25 24 23 20 18 15 14 17 16 14 14 13 12 11 10 12 13 7 10 6 16 14 11 16 20 24 17 10 7 14 11 5 7 10 16 13 14 15 16 15 17
29 36 30 26 26 26 27 25 25 21 18 16 13 16 16 16 14 14 14 11 5 5 17 14 11 12 1 7 8 12 16 18 20 21 12 16 10 16 22 22 19 16 18 15 17 15 21
26 31 32 27 28 28 27 25 22 20 18 16 13 13 16 15 13 14 14 10 10 4 9 30 26 22 24 9 12 15 14 19 19 17 15 13 21 25 14 15 18 20 22 21 11 20 19
31 29 30 31 29 30 27 25 22 20 18 15 14 11 14 12 14 16 18 20 18 19 7 10 33 35 26 17 18 17 22 26 16 17 19 18 19 17 17 19 20 24 20 17 15 20 7
31 30 30 21 30 30 27 27 25 22 19 16 14 12 12 13 13 16 15 14 16 16 5 5 7 8 23 10 7 26 22 25 12 19 17 15 20 19 17 24 20 23 23 22 20 16 9
30 31 31 27 19 27 28 28 26 23 21 18 15 14 15 17 6 8 5 3 6 8 5 8 6 3 5 13 3 11 31 26 18 16 11 9 10 14 18 22 16 20 13 23 24 15 6
33 30 30 26 16 28 27 27 26 22 21 19 17 15 17 17 20 12 8 1 7 2 7 5 6 7 8 11 7 6 27 28 18 16 15 12 11 12 20 19 22 17 15 21 23 6 5
35 32 29 27 27 17 20 25 25 22 20 19 17 16 21 21 18 22 12 12 2 6 2 4 4 7 12 8 8 7 13 20 9 5 9 14 18 10 15 11 16 25 16 7 6 3 4
34 33 30 28 29 16 16 26 24 23 20 18 16 18 23 23 16 16 19 3 8 6 5 4 3 6 8 7 7 12 6 14 18 12 1 8 10 15 19 17 10 24 8 4 5 8 5
33 33 32 26 29 18 21 26 24 22 21 18 16 20 24 26 25 20 16 5 6 4 5 6 6 6 7 10 9 15 18 9 10 20 8 3 8 6 12 10 11 7 12 20 8 8 6
34 33 34 25 27 24 22 26 23 22 21 17 19 26 25 23 32 26 4 8 6 7 5 3 9 11 10 12 8 11 10 10 18 16 14 3 7 2 9 16 14 8 7 9 4 7 7
34 36 35 27 26 24 22 21 22 22 18 17 17 8 7 22 34 15 5 6 6 11 9 8 7 6 13 9 11 10 7 12 14 16 14 6 4 4 6 9 12 7 3 11 4 2 4
34 40 33 31 19 26 21 14 21 21 18 18 16 3 17 24 6 3 4 4 6 4 20 13 7 14 14 14 11 11 13 11 20 13 11 9 3 4 1 6 14 12 4 5 1 2 1
35 38 34 30 22 19 21 16 22 24 23 24 13 6 20 26 5 4 2 4 7 5 10 8 8 14 12 8 7 13 12 10 21 13 15 11 6 2 4 4 4 9 9 4 8 3 3
33 37 38 32 27 23 22 12 20 28 26 23 9 4 6 15 6 3 6 5 6 15 16 9 10 16 14 8 10 5 7 4 16 17 14 11 4 2 2 5 8 7 8 6 8 2 2
33 36 37 32 30 21 28 24 10 27 26 30 10 4 8 4 6 8 10 4 5 6 15 18 6 16 12 9 10 6 11 3 10 13 11 3 3 10 20 13 17 16 16 15 10 8 1
33 32 36 34 30 20 20 18 15 27 26 29 10 4 9 4 10 15 15 7 9 6 6 6 10 8 15 10 8 11 12 10 6 8 12 10 5 15 9 8 12 11 13 14 11 7 8
32 29 35 35 30 31 20 20 8 26 30 10 13 8 1 3 8 6 6 9 9 12 12 20 18 12 10 13 11 6 18 17 11 13 14 5 5 5 3 3 5 1 12 13 11 10 8
31 29 32 33 29 30 19 21 12 24 29 24 15 9 5 3 6 7 11 9 9 16 10 9 10 7 1 2 12 12 10 11 10 1 13 8 3 3 1 1 1 2 1 8 11 7 10
29 28 31 33 29 30 23 21 9 20 24 25 22 10 5 2 5 11 6 3 5 13 7 2 3 6 11 12 2 3 4 3 5 4 2 7 5 3 1 2 5 1 2 1 5 10 7
29 27 31 31 30 31 24 20 15 9 25 24 26 24 4 1 2 6 1 3 5 2 1 3 4 5 5 3 2 4 3 2 2 4 6 2 5 1 3 1 2 2 3 6 2 2 7
28 26 28 31 30 29 24 18 13 17 20 23 20 23 13 3 8 8 2 1 5 2 2 3 5 3 8 2 2 3 3 6 5 7 4 3 2 4 3 2 5 2 1 5 4 3 9
27 26 28 30 29 28 23 17 17 22 20 20 24 20 19 6 6 5 4 2 2 4 3 6 6 3 2 3 1 3 3 5 5 7 6 4 6 4 3 1 6 5 3 2 2 3 6
26 26 27 29 29 27 21 17 13 19 19 19 22 20 18 8 4 8 10 11 12 8 6 13 1 3 5 3 3 1 2 1 3 4 7 6 5 6 7 6 2 5 4 3 4 8 14

GFSGBSN_850_spd_021.txt.gz
Wind_Speed
23 23 21 19 21 22 21 19 18 19 18 16 13 12 12 10 8 6 5 5 5 5 5 5 5 5 6 11 18 6 1 5 7 7 18 15 9 10 4 6 8 15 15 21 27 31 32
28 26 23 20 20 24 24 21 19 19 18 16 15 14 13 11 9 7 6 6 5 5 5 5 6 6 10 14 13 22 14 7 8 3 1 16 9 11 13 9 12 12 16 22 29 25 24
22 28 28 24 22 23 26 24 20 19 18 17 16 15 13 13 10 8 7 6 6 6 7 6 6 7 13 25 7 9 10 14 12 10 6 8 12 17 5 5 11 13 13 15 20 19 17
25 29 28 28 25 24 23 24 23 20 20 17 16 14 12 12 11 9 9 8 7 8 7 6 7 7 12 14 17 15 16 16 18 18 18 13 10 12 14 8 9 5 6 14 7 14 13
27 25 24 29 27 25 25 24 23 22 21 18 17 12 12 10 12 11 10 10 9 10 9 7 6 7 11 8 15 24 16 15 6 3 6 16 11 7 7 5 4 4 8 7 10 8 7
30 27 25 30 27 29 25 26 24 23 22 19 18 13 14 12 10 12 11 10 9 10 10 6 8 4 12 11 11 12 20 16 12 6 8 12 9 4 0 5 12 13 7 6 7 6 10
30 30 29 29 28 32 26 27 27 24 25 21 18 14 13 15 11 14 12 9 6 4 15 11 11 7 2 2 6 10 12 19 19 16 7 11 7 9 12 14 8 5 8 11 6 9 10
30 31 30 26 29 25 29 29 28 26 25 22 19 15 14 16 12 15 14 8 7 4 7 21 28 22 21 5 5 11 12 16 17 14 8 6 18 12 8 10 10 13 14 20 15 14 11
32 32 32 30 30 29 25 30 28 25 24 22 20 17 14 15 14 17 18 16 14 13 6 8 26 26 30 21 18 14 20 23 11 11 13 17 3 19 14 12 13 15 16 16 15 14 16
35 34 33 32 29 32 25 26 28 26 26 22 20 18 16 17 16 18 17 12 12 9 4 3 5 5 9 10 5 26 25 20 10 17 15 14 22 13 15 18 12 16 13 15 17 11 10
35 35 33 32 31 28 26 22 28 29 26 23 21 21 20 20 9 20 8 9 8 6 5 7 5 2 0 9 8 10 28 23 17 14 10 8 10 19 20 20 12 18 5 11 12 14 14
36 36 33 32 34 27 28 24 29 30 24 25 24 23 23 22 17 13 13 10 13 3 8 6 5 5 3 9 4 1 5 19 5 11 14 15 4 5 14 14 11 2 1 12 8 9 12
37 37 34 32 33 30 26 26 28 29 24 23 27 26 27 27 27 19 15 15 3 4 2 5 4 6 8 6 7 7 4 11 6 7 6 6 15 2 4 3 2 5 4 3 6 6 13
36 36 34 35 32 25 24 20 17 30 24 24 27 26 25 29 21 26 18 3 6 4 4 4 3 7 6 5 6 8 3 8 16 8 2 4 5 13 12 19 9 13 15 7 7 8 8
36 36 34 35 35 30 24 23 16 29 23 20 25 25 30 33 25 25 20 4 7 6 4 5 3 4 5 8 7 9 11 4 5 17 7 5 6 2 8 13 20 10 13 25 6 5 5
37 38 37 36 37 33 22 17 12 29 26 23 23 26 22 33 32 33 6 5 4 4 7 4 7 9 6 7 9 9 8 7 7 15 14 2 7 7 14 15 16 13 15 10 5 5 5
35 37 39 38 42 30 14 16 8 22 26 27 25 12 15 34 34 18 4 6 5 7 10 8 6 5 7 4 9 4 5 6 13 16 19 8 6 4 1 7 15 9 4 8 3 7 4
36 36 37 39 42 31 15 14 18 17 26 26 19 5 20 38 5 3 4 5 4 7 15 9 5 7 5 8 7 5 10 9 14 11 16 10 3 5 9 8 12 10 12 13 7 10 5
34 34 35 37 39 33 21 19 24 16 26 34 18 7 26 33 5 4 2 3 6 7 8 8 9 11 12 6 7 9 6 10 11 9 15 9 4 3 4 3 9 10 12 8 9 13 3
33 33 34 36 38 33 29 21 19 14 20 29 9 4 9 17 5 6 5 4 4 14 14 15 7 12 10 7 13 4 9 7 25 17 19 14 5 7 4 3 6 7 14 14 13 3 1
32 33 33 33 37 35 35 23 28 8 29 24 7 4 6 5 6 6 10 7 5 4 10 11 4 9 9 5 12 9 9 7 13 21 13 7 5 8 13 16 8 8 12 19 15 6 4
31 32 32 30 35 35 34 23 24 6 28 17 10 5 7 7 11 12 9 8 9 6 5 6 9 12 13 8 6 6 7 5 6 11 5 9 5 10 10 7 14 9 14 9 6 4 2
30 31 31 30 33 33 31 26 20 4 16 9 11 11 8 6 7 7 6 12 13 8 10 20 14 9 7 8 15 2 5 10 3 7 9 8 4 5 3 5 7 2 10 5 4 2 5
28 30 30 28 31 32 32 29 18 12 16 7 20 13 5 3 3 5 4 13 15 17 11 9 21 12 4 4 8 4 6 5 7 5 5 5 1 2 3 3 1 5 3 8 13 5 7
27 27 28 28 31 33 33 27 16 4 7 13 16 11 6 3 6 5 9 6 5 7 11 14 6 8 4 3 2 3 1 2 3 4 8 5 4 1 2 3 5 4 4 2 7 7 3
27 27 28 28 28 30 29 26 15 12 7 9 23 15 7 3 4 3 3 4 1 3 1 3 5 3 6 1 2 3 3 3 2 2 4 6 2 2 2 1 2 3 4 3 0 2 4
26 25 27 27 28 30 29 26 15 10 3 16 22 23 10 5 5 7 3 2 4 2 2 0 4 2 6 2 1 3 2 4 4 5 3 4 2 5 2 1 7 4 4 5 3 3 6
26 24 26 25 26 29 29 27 15 9 2 18 22 18 16 5 7 6 4 4 3 4 3 3 5 2 3 4 4 2 3 6 4 5 5 6 5 3 3 1 6 2 2 2 3 4 8
25 25 24 25 24 27 27 25 16 10 11 14 16 16 14 7 4 8 9 9 12 12 8 12 3 4 7 3 2 2 3 3 6 5 4 4 6 6 7 6 1 2 3 5 4 9 11

GFSGBSN_850_spd_024.txt.gz
Wind_Speed
15 19 22 24 22 20 19 19 21 19 18 18 19 16 13 13 11 8 6 4 3 3 3 4 4 5 9 11 13 9 8 6 4 12 21 17 11 7 5 4 7 5 7 16 20 21 26
23 21 20 22 26 21 20 20 21 21 20 19 18 17 15 14 13 10 8 6 5 4 3 4 6 7 11 6 10 20 10 6 5 5 15 18 12 12 7 8 7 10 11 12 18 19 18
26 25 18 20 26 23 20 22 24 23 21 19 18 17 16 15 14 12 9 7 6 5 4 5 5 8 13 21 7 16 22 17 12 7 8 11 20 10 4 4 8 7 7 8 8 7 6
23 25 27 22 23 25 21 23 23 23 22 22 20 19 16 15 15 13 10 9 7 6 5 5 6 7 9 6 12 16 16 14 16 17 17 13 10 9 7 9 7 4 4 4 3 6 6
27 27 27 26 26 25 25 24 24 24 25 23 22 20 17 15 13 13 11 10 9 6 7 6 5 6 10 5 9 13 20 15 13 15 19 23 15 5 3 3 4 3 4 6 4 11 5
30 29 30 29 29 25 25 29 27 26 27 25 22 22 19 15 13 14 13 10 9 7 6 6 7 3 10 7 5 4 23 16 11 7 8 10 5 2 1 5 13 12 6 6 5 4 8
29 31 30 30 31 27 26 23 21 30 29 26 24 23 20 16 16 15 18 10 6 4 15 10 10 6 1 1 4 4 17 19 14 8 4 5 4 10 15 9 6 7 5 7 3 8 7
30 30 30 30 30 30 27 28 27 22 30 28 25 24 21 17 18 17 18 13 9 4 5 18 25 20 16 5 3 6 10 14 11 9 4 4 11 10 7 8 9 11 13 15 8 9 9
33 31 30 31 31 30 29 27 27 29 32 28 26 26 23 18 20 19 23 21 12 6 3 6 19 17 20 14 13 11 19 14 7 12 12 12 6 14 13 12 11 14 17 11 12 11 15
33 32 34 34 32 29 28 27 27 23 24 28 25 25 24 22 22 21 23 22 12 5 2 4 2 3 6 10 5 23 21 14 7 15 13 12 17 9 16 14 11 15 11 11 9 7 5
34 32 33 34 32 31 28 28 27 26 21 26 25 24 28 29 18 25 22 16 10 6 3 4 4 4 5 9 3 4 24 22 12 10 7 8 8 19 20 15 13 9 5 5 3 8 8
34 33 33 34 33 33 28 30 27 27 26 29 26 26 33 31 19 14 16 21 16 4 6 6 5 5 5 5 2 2 5 17 3 14 15 8 0 7 12 14 13 3 4 3 2 1 9
36 34 35 36 35 34 31 29 29 24 21 28 28 26 32 33 29 25 24 26 3 4 3 6 4 5 3 6 7 7 6 8 5 7 8 6 15 4 4 6 8 11 6 3 4 6 12
36 35 35 36 39 40 32 33 31 18 19 31 27 27 36 33 27 31 34 2 4 4 4 3 4 8 7 7 6 9 6 8 13 6 1 6 4 16 9 15 5 13 15 4 7 4 6
34 36 34 35 40 39 39 36 18 19 18 26 22 32 42 38 34 37 24 4 7 5 6 10 5 5 6 8 6 9 9 9 9 16 8 5 5 3 6 7 12 6 10 22 5 4 4
36 34 35 34 36 41 44 28 12 13 16 27 19 33 35 42 40 38 7 5 5 4 8 5 6 9 6 6 9 8 8 5 9 16 12 5 2 6 5 4 9 14 7 5 5 6 10
35 35 34 34 36 40 44 25 14 15 10 25 28 13 26 38 43 25 4 6 4 9 9 6 6 6 7 6 8 7 6 4 13 12 20 5 4 2 5 10 14 9 11 10 6 6 5
33 33 34 34 37 38 42 31 12 17 12 19 11 4 37 42 6 4 3 6 6 7 8 3 3 8 7 10 6 5 8 7 15 10 12 10 4 8 20 11 11 15 17 19 7 13 4
30 32 33 33 37 38 40 34 21 22 9 12 9 6 45 42 5 5 4 5 6 7 8 7 10 11 12 6 5 10 8 9 13 13 9 8 5 4 7 7 11 10 17 12 12 2 18
28 30 31 31 33 37 38 36 27 24 15 10 7 4 10 17 7 7 6 4 6 7 6 9 6 12 7 7 10 4 6 4 19 9 19 15 4 7 6 4 5 10 21 20 12 7 14
27 28 30 30 30 34 38 36 31 23 8 11 6 3 7 8 6 9 13 9 6 7 9 9 4 17 9 7 9 9 12 5 5 14 12 9 5 10 17 23 17 15 19 22 15 12 9
27 26 28 29 28 31 35 33 31 27 13 16 5 5 7 6 13 8 11 9 9 5 7 5 9 13 14 7 7 2 7 6 4 12 11 6 4 3 13 21 18 14 17 21 18 15 16
28 27 27 28 26 30 33 34 32 19 13 4 10 12 14 10 8 7 5 8 10 8 10 15 15 12 11 20 20 23 16 7 9 11 12 5 3 3 5 9 11 8 14 21 15 16 21
29 26 25 27 24 28 29 28 28 19 18 10 15 16 4 4 7 8 8 11 13 14 9 6 15 10 5 6 12 9 5 5 8 12 10 5 9 5 2 1 2 3 3 16 20 10 6
28 26 25 25 25 26 28 29 27 18 15 9 14 10 5 2 5 5 5 5 10 17 11 13 21 18 24 5 3 0 1 3 2 3 9 8 1 3 2 3 5 4 5 1 4 3 1
26 25 24 25 25 25 26 26 26 16 13 5 13 11 5 3 6 7 3 4 2 2 3 4 1 11 11 1 2 4 4 4 3 3 6 7 4 1 4 2 2 3 4 3 1 2 2
25 25 23 24 23 23 24 25 25 14 12 6 11 14 8 5 6 9 3 3 4 2 2 2 3 5 10 5 3 3 2 2 4 4 4 3 2 5 2 2 7 5 3 1 2 4 2
25 24 22 23 21 23 22 25 25 18 10 8 10 18 13 4 4 5 12 7 5 6 3 3 3 3 3 3 3 3 3 4 2 3 4 5 4 3 2 1 5 2 4 1 3 2 3
24 24 22 23 21 22 22 24 23 19 9 2 6 14 11 6 3 9 15 16 11 9 6 6 2 3 6 3 3 2 2 2 4 3 2 4 6 4 6 5 2 2 2 3 2 5 4

GFSGBSN_850_spd_027.txt.gz
Wind_Speed
22 26 23 18 18 19 21 21 21 20 23 18 19 20 18 16 14 12 10 8 6 5 5 5 5 8 11 9 15 7 7 5 7 18 21 16 8 3 4 3 6 4 3 11 16 20 20
23 22 24 25 26 18 21 16 21 22 21 22 21 21 18 16 16 14 11 9 8 6 5 4 5 8 10 5 9 17 11 6 4 10 15 16 7 8 6 4 4 4 8 10 9 14 17
25 24 25 26 28 26 25 24 18 21 23 23 22 21 18 16 16 15 13 10 8 7 6 5 5 8 11 19 8 13 22 12 8 5 6 10 17 7 3 3 7 6 6 6 6 7 6
28 27 27 26 27 28 27 21 22 22 22 23 26 20 22 18 16 16 14 11 9 7 6 5 5 7 8 4 11 15 12 15 16 12 10 7 4 8 5 9 5 3 2 2 2 10 8
30 29 29 29 28 26 28 25 24 21 20 23 26 23 23 19 16 15 13 13 10 7 7 6 5 7 9 6 9 14 19 13 10 11 14 10 8 6 2 4 8 4 5 3 5 6 4
30 33 32 31 30 28 27 28 26 24 25 17 27 25 23 22 17 15 15 14 11 8 6 7 6 5 9 5 3 5 19 16 8 9 8 6 6 4 3 6 11 7 4 3 4 2 4
30 31 31 33 31 31 30 28 27 30 29 27 27 27 26 24 21 17 20 14 5 5 16 10 8 7 2 2 4 2 10 18 11 3 4 3 3 10 12 8 4 5 4 4 4 6 5
31 31 30 30 33 32 31 29 29 26 31 27 23 28 27 25 23 22 23 18 7 3 4 24 15 20 7 4 0 5 10 12 7 6 4 2 13 8 7 7 10 8 12 16 6 7 6
30 32 31 32 30 33 33 30 28 27 24 28 19 31 29 26 24 26 26 25 11 4 2 6 20 20 20 17 9 9 13 12 4 6 7 12 4 12 6 8 9 11 16 16 16 11 10
32 33 33 33 32 33 31 31 27 27 25 26 21 31 31 26 29 30 27 21 18 5 2 4 5 5 9 10 6 23 21 11 6 11 9 10 13 14 8 11 11 16 8 11 10 5 7
32 32 34 34 33 35 34 33 31 26 26 22 21 19 31 37 23 34 29 21 14 6 2 3 5 4 5 10 2 2 21 19 12 9 6 6 4 10 17 13 10 7 5 8 7 5 6
34 34 34 35 33 33 37 35 32 30 31 24 24 23 31 41 30 29 21 24 18 4 7 6 5 6 5 6 2 3 8 15 3 9 12 9 5 5 8 16 10 2 5 7 3 3 10
34 34 34 34 32 32 37 38 38 35 30 26 21 26 21 46 36 26 33 34 4 4 1 6 5 6 8 6 4 7 6 7 6 6 8 4 12 2 4 8 8 13 6 3 5 6 8
33 33 33 33 33 32 36 36 43 30 17 18 16 23 27 38 33 31 44 4 4 5 5 4 4 6 5 7 6 8 4 7 13 7 2 7 6 16 7 10 7 16 13 4 6 5 4
33 33 32 33 33 32 35 39 42 19 14 14 15 16 28 36 32 43 30 3 8 7 7 11 6 5 7 8 4 7 9 9 7 15 8 4 6 4 8 10 11 6 11 17 5 3 3
33 32 31 33 33 32 34 39 36 20 7 12 13 17 20 46 36 43 7 6 4 4 8 9 7 9 6 7 9 9 7 4 6 13 12 3 4 6 6 13 10 9 6 4 5 5 6
33 31 30 32 33 32 33 39 37 20 15 12 13 6 17 40 44 27 6 5 4 8 11 6 6 6 7 5 8 5 4 5 8 5 17 7 5 2 7 12 14 9 7 5 2 4 4
33 31 29 30 32 31 33 37 36 26 20 13 11 2 38 53 9 4 4 6 5 7 4 3 2 9 9 11 7 9 9 7 14 9 10 12 4 6 17 4 15 16 17 16 7 7 9
33 31 28 29 31 31 31 36 36 32 20 10 4 7 43 48 5 4 5 4 4 5 7 7 9 9 11 6 5 7 5 9 16 12 10 10 4 4 2 7 10 8 10 16 17 7 10
31 31 27 28 29 29 30 34 35 33 28 9 12 3 10 17 6 11 6 8 7 4 3 6 5 10 8 6 10 3 5 5 16 14 12 14 5 8 7 5 3 6 13 18 20 12 14
29 30 26 27 27 26 29 33 35 31 27 7 9 4 8 6 5 7 10 8 8 6 7 13 5 11 7 5 8 9 7 11 2 11 9 8 6 10 17 22 16 8 9 20 20 18 15
29 29 26 25 26 24 26 30 32 30 20 6 1 4 6 10 17 9 14 10 12 8 8 5 8 9 14 7 7 7 8 5 4 7 9 6 4 2 11 18 23 16 15 18 23 21 21
29 29 27 24 25 24 26 27 29 26 27 6 4 2 8 12 9 9 6 8 12 9 13 14 11 11 10 16 20 25 12 10 11 7 10 4 3 3 8 7 8 5 17 16 19 17 13
28 26 26 23 25 25 24 25 25 23 17 16 8 4 3 4 8 8 8 9 10 11 9 8 17 8 3 3 13 19 21 19 9 11 14 5 3 3 5 3 2 4 9 13 17 11 11
28 25 25 21 24 23 23 24 26 24 17 14 7 4 3 3 6 8 7 6 10 15 14 13 11 12 13 9 3 3 2 3 7 8 12 9 2 4 4 3 3 1 6 7 10 12 22
27 25 24 22 24 22 22 22 25 24 17 8 4 4 1 4 5 6 7 6 3 3 2 5 17 20 20 3 3 5 3 1 3 3 8 8 6 3 4 4 3 1 1 2 10 3 8
26 25 23 22 23 21 22 19 23 23 17 14 11 4 1 3 4 7 3 3 5 3 1 3 3 4 14 4 3 2 3 4 3 3 3 3 3 5 3 3 7 4 6 3 4 3 3
26 24 22 23 21 22 20 20 22 23 16 16 7 12 4 2 5 9 6 7 5 6 3 2 3 4 4 4 4 3 4 4 2 2 3 4 4 3 2 2 4 7 7 4 2 4 4
24 23 20 22 20 22 19 20 20 21 15 12 4 14 16 6 1 9 12 11 13 11 6 7 3 2 6 3 3 1 2 1 2 3 2 3 4 3 6 5 3 3 1 3 4 3 4

GFSGBSN_850_spd_030.txt.gz
Wind_Speed
25 25 26 25 25 26 26 25 20 16 22 22 22 22 20 18 18 15 13 10 8 6 4 5 6 7 9 9 12 4 4 4 8 20 18 11 7 4 4 3 2 4 3 7 7 11 16
27 27 26 27 28 28 28 27 25 23 20 23 22 23 22 18 18 16 14 12 9 7 5 5 6 6 8 4 9 16 8 5 6 13 20 17 6 7 3 3 3 2 5 8 8 10 11
27 28 29 30 29 29 29 28 27 24 23 20 24 22 24 22 17 16 14 12 10 7 6 6 6 8 11 17 8 6 16 8 7 8 9 12 13 5 1 2 6 5 5 6 7 10 7
27 28 29 30 30 31 28 28 28 27 25 21 20 24 26 24 19 16 13 13 8 8 6 6 6 6 8 6 12 14 12 16 12 9 7 4 2 8 3 6 3 3 1 3 4 6 8
28 30 31 30 30 31 31 28 28 27 24 27 21 16 24 24 21 16 11 12 12 10 7 6 6 6 8 6 9 10 17 11 19 13 11 5 5 4 3 1 4 4 8 5 6 3 4
28 30 31 32 32 33 31 30 29 28 27 26 26 25 25 25 23 20 12 14 12 9 7 6 9 5 8 2 2 3 12 12 8 9 6 7 6 3 4 5 6 4 7 10 8 3 5
28 29 30 33 34 33 31 31 30 28 27 26 24 28 24 26 25 23 22 18 8 4 15 10 6 7 1 2 4 3 6 16 10 6 5 3 3 7 10 8 10 4 3 9 4 7 7
28 30 28 32 30 34 34 31 30 30 26 25 23 26 20 27 25 29 28 22 15 5 3 24 12 14 5 6 2 4 7 10 6 4 4 0 10 8 5 4 5 8 13 19 13 12 10
31 31 33 34 31 33 32 35 32 31 27 25 24 23 24 30 26 35 32 26 19 10 1 5 20 21 12 12 4 7 12 8 4 5 7 7 3 7 9 6 5 6 11 8 14 9 12
32 33 33 34 34 33 32 33 35 31 29 26 25 23 23 26 26 38 34 28 17 10 4 4 4 5 12 13 6 20 17 9 2 9 5 8 10 10 5 5 8 13 7 14 13 6 7
32 33 34 34 34 34 33 32 34 35 29 28 26 24 27 16 13 42 33 31 20 9 1 3 5 6 9 15 2 2 20 13 7 6 5 5 4 7 14 12 7 4 6 8 10 8 6
32 34 34 33 35 33 33 32 36 37 40 31 26 24 21 22 23 40 33 29 21 5 6 6 5 6 6 6 1 4 9 10 2 8 12 11 4 3 6 7 14 3 4 4 3 4 11
33 33 34 32 33 33 33 34 36 41 43 24 19 19 20 23 27 40 35 34 4 4 1 6 5 5 6 6 4 4 6 8 5 5 7 4 12 6 4 4 7 9 3 3 5 6 7
32 34 34 32 32 33 32 32 36 45 29 17 7 10 18 32 25 40 46 4 4 5 5 7 6 8 6 7 4 4 4 7 10 6 1 2 5 12 12 16 7 17 10 5 5 5 4
34 33 33 31 31 32 30 32 37 42 26 15 5 4 13 17 40 41 31 3 7 7 7 8 11 6 6 6 3 7 9 5 7 15 6 4 6 2 5 6 9 5 11 14 5 3 3
32 32 33 31 31 32 30 31 36 37 30 10 9 3 9 20 41 43 10 5 3 4 7 5 5 5 6 7 7 7 6 4 6 12 11 1 6 3 3 3 11 8 1 4 6 5 5
33 33 33 30 29 30 28 30 35 35 34 20 9 5 4 17 38 23 5 3 3 5 9 4 4 5 4 5 9 5 4 4 6 5 14 6 4 1 5 9 11 8 9 6 3 4 4
31 33 32 29 28 28 27 30 33 34 34 27 7 3 14 34 7 3 5 6 5 5 3 2 3 4 6 8 6 8 8 6 9 11 10 9 3 6 15 10 16 18 13 17 7 6 4
32 32 30 29 27 28 27 29 33 34 33 30 9 2 34 45 4 3 3 3 4 4 4 3 3 3 6 6 5 8 3 7 13 9 11 9 5 4 4 3 8 10 18 20 19 8 14
33 32 30 28 26 28 26 28 32 36 34 23 4 2 6 13 2 11 7 5 4 2 4 4 2 4 5 6 9 3 5 5 19 14 12 16 5 7 12 10 3 6 16 18 17 10 14
31 31 29 27 25 27 26 27 31 34 33 7 3 2 4 5 3 8 6 8 9 5 2 9 5 12 7 5 6 7 8 4 4 12 8 7 7 11 21 23 18 12 12 20 19 23 12
31 31 28 27 24 27 26 25 30 31 24 2 2 3 9 11 15 9 5 7 11 7 8 5 8 7 11 6 7 8 5 4 5 4 8 5 5 3 17 19 18 24 23 18 21 21 21
30 29 26 26 25 27 24 23 24 25 24 8 7 2 7 14 9 8 7 7 11 8 10 12 12 10 10 15 22 22 4 8 4 2 5 3 3 3 9 6 12 5 10 18 13 11 17
30 28 26 25 24 26 24 24 25 24 22 19 8 6 3 4 9 9 11 8 8 12 6 4 17 6 3 2 3 13 15 15 17 15 14 5 3 3 6 9 4 4 4 5 13 9 16
28 28 25 24 23 25 24 24 25 23 23 21 7 4 2 3 5 9 9 8 8 9 10 12 9 10 5 7 2 3 2 3 7 10 12 14 3 3 4 6 6 4 1 3 5 6 12
27 26 25 23 22 21 24 21 22 24 23 15 2 9 2 3 7 7 9 8 3 3 4 5 6 12 8 2 3 3 3 3 3 2 2 9 10 2 3 4 4 4 5 3 3 5 11
28 24 24 23 22 21 24 18 18 22 23 16 4 3 1 2 5 8 3 4 7 4 1 1 2 4 17 5 3 2 2 3 2 3 3 2 3 4 4 3 7 5 8 6 4 4 3
26 22 22 22 22 22 23 19 19 21 22 16 3 4 3 3 1 5 6 6 5 5 3 3 2 4 3 4 2 2 3 4 2 3 4 6 3 3 2 2 4 5 4 2 3 4 5
25 22 21 20 20 20 22 19 18 19 21 13 5 8 7 1 2 6 8 9 11 9 11 8 1 2 6 3 3 3 2 1 2 3 2 3 5 3 6 5 4 3 3 5 4 4 4

GFSGBSN_850_spd_033.txt.gz
Wind_Speed
26 26 27 28 28 27 27 26 25 25 24 20 16 20 20 19 18 14 16 13 11 8 6 5 6 6 8 7 9 4 3 4 6 20 17 11 7 5 4 2 2 3 3 6 8 8 10
25 27 27 28 27 27 28 28 27 26 23 21 20 18 22 21 20 16 12 15 12 9 7 6 6 6 7 3 10 14 6 3 6 14 18 15 6 6 3 2 3 2 3 8 10 12 13
26 26 28 29 29 28 29 28 28 27 25 23 20 19 19 22 20 19 14 14 12 10 8 7 6 7 8 9 6 7 16 6 6 12 13 15 8 8 5 1 2 3 4 6 9 11 8
26 28 28 28 30 29 30 30 29 27 27 25 21 23 17 23 20 21 18 13 10 9 8 7 6 6 6 4 8 12 15 11 8 9 9 8 8 7 4 1 2 3 2 3 3 2 8
25 27 27 29 29 29 31 30 30 27 26 24 23 21 22 18 23 21 20 13 12 11 7 6 7 5 6 3 6 7 12 17 12 10 6 5 6 4 5 2 2 4 4 6 5 2 4
26 26 30 27 31 30 30 30 31 28 29 26 25 19 21 23 22 22 22 16 15 13 9 7 7 5 6 3 5 5 13 10 11 9 7 7 4 4 4 5 6 4 4 4 6 1 4
26 30 29 29 29 29 30 31 31 33 29 26 24 19 20 22 23 21 29 24 13 4 15 11 5 1 3 5 7 5 13 15 10 10 5 4 4 9 13 7 4 1 3 10 7 6 11
29 30 30 30 30 31 31 30 30 32 29 27 23 20 18 20 21 23 38 26 30 8 5 26 11 12 3 6 5 6 13 10 7 4 5 2 9 8 3 4 6 9 14 16 15 14 11
28 29 31 32 33 32 32 32 31 29 27 30 25 22 20 20 18 30 43 34 24 16 4 4 20 18 13 8 2 10 18 8 4 5 7 6 3 5 9 4 6 7 11 10 13 10 13
28 29 32 33 34 32 32 32 32 29 30 32 26 27 22 19 21 26 41 32 21 16 4 4 5 6 17 9 4 15 18 9 3 10 5 5 6 4 4 4 9 13 8 12 12 7 6
30 32 31 32 33 32 32 31 33 31 36 32 36 34 24 17 14 20 32 36 21 13 2 3 4 7 11 13 8 4 20 8 7 6 5 4 4 4 11 13 9 6 5 8 8 8 11
31 32 33 32 32 31 32 33 31 32 33 43 31 21 19 19 21 18 38 37 24 4 6 6 5 6 8 8 6 5 8 7 4 3 5 6 3 5 7 7 13 2 3 6 4 7 9
30 33 32 31 31 30 31 34 30 33 37 45 24 14 15 19 21 23 45 33 4 4 2 8 5 7 8 6 5 6 7 9 5 3 5 5 16 8 5 3 4 11 4 2 4 6 8
31 30 31 31 30 30 30 34 29 35 37 42 22 5 11 16 19 28 43 5 4 5 4 5 6 9 5 6 4 5 6 7 11 3 1 4 5 11 10 15 5 13 11 5 6 5 5
31 31 32 31 29 29 30 31 29 35 37 33 12 4 10 15 18 39 26 3 6 6 8 10 11 6 4 5 3 6 7 5 7 13 6 5 5 1 4 4 10 5 10 8 8 13 10
32 31 31 30 29 28 28 29 29 35 37 38 10 3 3 11 18 24 5 4 2 4 14 9 5 5 8 9 7 8 7 3 4 10 6 1 4 4 2 4 10 8 2 4 5 5 9
32 31 31 30 29 29 30 28 29 34 36 33 4 2 5 14 25 9 2 3 3 6 12 4 4 5 5 6 7 5 3 3 5 4 13 4 3 1 4 10 11 8 8 7 3 5 6
32 33 31 31 29 29 29 28 26 33 35 29 5 1 6 32 4 2 4 5 5 3 7 4 4 5 4 6 6 6 7 4 8 10 9 8 3 5 12 9 15 16 12 17 8 10 6
32 31 30 30 29 27 31 30 25 33 31 39 4 4 15 27 3 2 2 4 4 3 2 2 3 3 3 6 4 7 3 4 15 8 9 7 4 4 8 2 3 10 19 20 17 9 16
31 31 30 29 28 26 29 25 28 34 35 11 3 2 4 11 1 4 5 3 4 4 3 4 4 4 3 4 6 2 4 3 16 11 10 14 5 7 10 14 1 7 18 19 20 10 15
29 31 29 28 28 27 29 24 27 32 25 4 2 2 6 4 4 3 4 3 5 4 3 4 2 6 5 3 5 7 7 3 5 11 7 8 6 11 22 24 24 26 27 21 22 28 14
27 28 29 28 28 26 29 24 26 28 22 8 2 2 3 7 12 8 4 6 8 4 6 3 3 6 8 7 6 6 6 5 5 4 7 4 4 4 20 22 22 21 25 21 20 23 19
28 27 28 27 27 25 27 24 25 24 31 8 15 7 5 13 7 6 6 7 6 4 7 7 8 5 8 12 16 19 7 2 3 4 9 4 3 3 11 11 20 6 8 7 7 13 15
29 25 25 26 26 25 25 24 22 20 27 20 13 9 1 3 8 7 7 4 9 12 3 2 9 6 4 1 8 15 17 16 13 12 12 6 2 3 7 9 4 5 4 8 3 12 15
27 26 23 24 25 25 24 27 19 23 27 24 11 4 2 3 6 9 8 7 3 5 12 9 7 9 7 2 2 1 3 2 8 15 13 14 7 4 4 6 10 2 3 5 2 3 15
26 24 22 21 23 23 24 26 17 19 25 20 5 6 4 1 6 7 6 9 4 4 2 5 7 13 9 2 2 3 4 5 2 3 1 9 11 3 3 4 4 4 7 6 4 8 2
24 23 21 19 22 21 22 24 19 17 23 19 8 6 3 1 4 8 3 6 7 4 1 2 3 4 14 4 4 2 3 3 2 2 4 3 3 7 6 4 7 4 9 1 5 3 4
24 23 21 19 20 19 19 22 18 15 22 19 5 5 5 3 5 5 5 7 6 6 3 3 2 4 5 5 4 3 3 4 2 3 4 5 4 3 2 2 6 3 4 4 3 8 6
22 22 19 18 18 18 21 19 15 13 18 18 7 2 2 2 1 4 7 8 10 8 11 8 2 1 5 3 2 2 2 1 3 3 1 2 5 3 6 5 5 8 6 8 10 10 5

GFSGBSN_850_spd_036.txt.gz
Wind_Speed
22 21 23 22 24 24 22 24 25 24 23 22 20 19 14 18 19 19 19 12 11 12 9 7 6 6 8 7 9 7 6 6 11 18 16 11 11 8 9 5 6 9 9 10 12 12 14
20 22 24 24 24 23 24 26 25 27 23 22 22 21 15 18 20 18 21 14 9 11 10 8 6 6 8 10 10 12 6 4 6 14 18 13 9 8 3 5 8 2 7 10 11 16 16
20 22 23 26 26 24 25 25 25 28 25 23 22 21 20 17 12 20 21 16 10 11 11 9 6 7 8 10 6 10 11 6 7 13 16 15 11 8 7 4 5 7 11 13 16 15 14
20 24 25 26 25 27 26 28 26 26 27 23 23 20 18 21 15 19 19 21 13 12 11 8 7 6 6 6 12 9 14 9 8 11 11 15 13 8 5 2 4 5 6 6 3 1 5
23 24 27 25 25 27 26 26 28 27 28 26 23 22 18 18 18 16 20 24 17 14 11 8 6 5 4 5 9 10 14 13 14 14 10 11 10 5 5 6 6 8 8 9 10 4 4
22 25 26 26 27 28 30 27 26 28 28 30 24 22 19 17 17 21 21 25 20 18 14 8 5 4 7 5 7 12 16 16 11 14 10 6 4 5 8 8 6 5 12 9 11 2 9
25 25 25 28 30 29 30 29 27 28 28 26 21 21 19 15 15 15 26 32 21 8 17 9 8 1 6 9 9 9 19 13 14 14 9 8 7 11 14 14 12 5 7 11 10 9 17
26 26 27 29 29 31 30 30 29 30 27 23 21 22 19 17 17 16 22 12 32 12 8 18 10 10 6 9 6 9 17 10 14 12 10 6 12 12 8 11 13 14 16 17 15 13 14
27 29 28 30 30 30 29 31 29 28 29 26 25 22 22 21 20 20 16 31 29 19 5 9 17 11 10 8 5 14 18 8 11 12 15 8 3 3 14 11 13 16 16 15 17 16 18
28 29 31 31 31 30 30 28 28 29 26 28 32 24 32 25 21 15 20 34 27 18 3 9 9 10 13 8 5 11 18 7 5 12 9 9 12 7 9 12 13 14 8 12 13 8 6
29 30 29 33 29 31 28 28 29 31 27 32 35 33 22 19 19 11 15 24 31 16 7 11 7 9 14 14 12 7 15 5 8 8 6 4 6 10 14 15 10 7 5 7 8 11 14
31 31 33 32 31 31 29 27 28 29 27 35 34 31 21 13 22 21 10 30 21 5 6 8 8 11 13 16 8 8 11 3 5 6 6 10 3 5 10 9 13 2 6 9 10 6 8
29 32 32 30 31 30 28 28 28 27 29 37 38 29 12 13 21 21 16 30 3 4 8 9 9 11 14 12 10 9 10 10 6 5 8 8 17 8 8 7 8 10 3 3 4 6 8
30 31 31 32 31 29 29 29 29 26 30 38 41 12 6 15 11 16 22 6 4 6 7 7 13 15 7 15 6 9 12 10 13 7 2 5 4 14 11 15 5 15 9 5 6 6 8
30 29 33 32 31 28 29 29 28 26 31 36 30 4 4 13 17 23 16 4 4 7 11 13 13 8 5 11 5 7 9 7 10 14 6 5 4 2 9 4 11 5 9 12 14 20 15
34 32 32 31 30 29 28 30 31 26 32 35 17 2 1 10 17 20 6 3 0 5 19 16 7 6 9 13 8 11 11 5 10 14 15 2 4 5 3 5 12 12 3 4 6 6 10
33 33 31 30 29 29 29 30 27 27 33 31 4 1 8 16 24 16 1 3 5 16 14 3 7 8 7 11 11 9 6 2 8 8 16 6 4 3 3 11 13 10 8 7 8 9 6
31 30 31 29 28 29 28 31 23 29 32 29 8 1 14 26 4 2 2 3 8 10 3 5 6 9 13 11 9 8 7 4 7 12 10 11 4 8 15 11 13 15 15 19 9 13 11
28 28 30 29 28 29 29 32 25 30 31 33 1 2 17 11 3 3 1 3 3 4 3 3 4 4 4 8 5 7 3 2 12 11 10 11 5 4 4 3 5 8 16 23 21 16 21
26 27 27 30 29 28 29 32 26 33 31 13 1 2 6 5 2 8 4 4 3 6 3 7 11 10 8 4 2 4 6 3 10 15 8 13 4 8 10 14 3 9 16 19 18 13 22
28 27 26 27 27 27 28 32 25 36 19 7 5 3 4 4 1 6 4 4 10 4 3 4 4 5 5 4 4 4 7 5 5 9 9 7 5 13 20 23 24 25 27 27 20 26 19
27 28 26 25 27 25 25 30 21 30 25 11 7 2 3 3 5 7 4 7 6 4 3 3 3 6 5 4 5 3 6 7 6 8 10 7 4 3 15 23 22 23 23 22 20 18 20
26 26 25 22 25 25 26 26 20 22 32 10 16 9 2 8 8 8 7 7 8 7 3 3 6 5 5 7 11 10 8 4 3 5 12 5 2 2 6 12 22 7 6 12 15 8 7
25 26 23 22 23 24 24 25 21 17 24 22 14 7 1 4 7 10 8 7 8 6 2 2 5 4 1 3 3 5 11 15 15 14 11 4 4 2 6 11 4 5 7 11 10 9 8
23 22 22 21 21 22 22 22 22 16 20 23 8 3 3 3 9 7 9 9 7 4 4 8 5 5 6 1 2 3 3 3 10 17 16 16 8 3 3 5 13 8 8 6 4 6 7
21 22 22 21 20 20 21 22 21 15 18 18 3 7 5 1 7 12 11 10 5 6 3 4 7 12 10 3 2 3 3 2 1 1 2 10 11 5 2 3 4 5 11 4 4 2 4
20 21 20 20 19 19 19 21 20 13 17 17 4 11 2 3 5 8 10 10 7 6 2 2 3 6 11 3 4 3 2 1 2 3 4 3 3 9 7 4 9 5 13 1 3 4 5
20 20 19 19 18 17 19 20 18 11 13 15 5 6 7 3 4 5 6 6 6 6 3 6 3 3 3 5 3 3 4 4 3 2 3 6 5 4 4 5 5 4 9 4 6 7 8
21 21 18 16 17 19 20 19 17 14 12 12 9 7 4 2 2 2 6 6 9 8 9 12 3 3 5 3 4 3 4 3 3 2 2 4 5 2 5 4 2 5 6 6 8 9 5

GFSGBSN_850_spd_039.txt.gz
Wind_Speed
17 19 20 21 21 22 22 22 24 23 24 24 23 22 22 20 17 17 18 24 15 13 11 11 10 8 9 9 11 6 7 11 13 18 18 17 16 16 13 13 9 13 16 13 16 17 17
18 19 21 24 24 23 23 23 24 23 25 24 22 23 20 20 21 18 17 20 17 14 12 11 10 8 8 13 11 9 6 3 10 17 20 16 8 11 8 9 11 2 12 16 17 18 19
18 20 22 24 23 25 24 23 24 25 25 24 25 24 22 20 21 21 15 20 23 16 12 12 10 9 11 10 4 10 10 5 7 13 18 14 10 8 5 5 11 9 13 15 20 22 15
20 20 26 24 23 26 24 28 30 27 27 26 25 26 24 22 19 21 16 23 26 17 14 13 11 8 7 14 9 9 10 5 6 9 10 12 11 5 3 2 5 8 11 13 3 6 10
23 24 24 23 25 27 26 28 28 28 26 26 27 27 23 22 19 17 20 19 25 21 16 14 9 7 5 6 8 10 11 10 10 9 9 10 12 4 4 8 10 12 9 14 10 7 7
23 25 25 27 27 28 27 27 28 28 26 26 25 21 17 18 18 17 20 20 17 23 19 12 6 5 9 7 9 10 13 12 12 14 12 9 8 8 10 11 9 12 15 13 11 5 8
24 24 27 30 27 31 29 27 28 26 26 26 25 20 16 19 19 15 15 14 15 13 26 8 13 3 13 10 10 11 15 17 12 14 7 11 8 13 16 15 16 9 9 12 10 7 15
27 27 28 29 30 31 31 28 28 28 26 25 25 23 20 21 18 19 17 11 12 3 9 10 12 9 10 12 8 13 17 15 15 13 9 5 14 15 10 9 12 13 14 15 14 13 12
28 29 32 31 32 32 29 29 27 26 25 26 22 26 26 21 24 22 19 20 20 6 4 17 16 14 10 11 9 19 22 15 15 16 16 11 1 4 12 10 11 13 14 13 14 16 18
27 30 31 31 33 32 32 30 27 27 26 25 23 28 21 25 27 21 19 16 20 20 3 10 10 9 12 10 6 16 21 11 6 14 12 12 8 4 8 12 11 11 9 10 11 9 6
28 28 30 32 33 32 30 28 27 25 25 24 26 32 29 19 16 12 7 17 21 13 6 15 11 9 19 13 19 14 18 7 10 8 8 4 6 12 12 12 8 6 3 5 8 10 14
31 28 29 30 33 30 29 27 26 25 27 24 28 32 36 20 16 16 8 17 20 3 4 7 8 14 18 17 9 15 17 5 5 7 11 11 3 5 6 4 8 4 3 6 7 6 8
29 33 33 32 32 29 27 26 27 26 25 25 33 37 22 11 9 20 17 26 5 6 11 9 9 14 17 15 11 13 13 10 8 6 9 10 16 7 9 6 5 8 1 2 4 5 8
29 33 33 32 30 28 28 27 28 30 24 26 34 29 6 7 7 16 10 5 8 8 8 8 15 18 10 17 9 14 15 11 13 12 3 7 6 17 11 12 5 12 8 4 5 7 11
28 31 31 29 28 27 28 28 30 28 26 32 37 5 1 10 11 17 11 4 1 13 11 13 17 6 7 17 7 10 13 11 11 13 6 5 3 1 9 7 10 6 8 10 11 16 11
27 28 27 30 28 28 28 28 30 25 29 32 23 4 2 12 19 18 2 1 2 7 15 17 6 7 9 15 9 11 13 10 8 15 11 2 2 5 7 6 10 12 0 2 4 5 10
27 27 26 28 28 29 28 29 30 26 30 32 13 3 4 15 20 5 2 2 6 19 14 4 9 10 11 15 10 14 14 4 14 11 13 5 3 5 5 11 13 11 9 7 8 7 6
26 27 26 26 28 28 28 31 30 30 37 26 2 2 10 19 3 1 1 3 17 12 2 2 7 7 16 17 10 10 8 1 7 8 10 9 2 5 12 8 8 14 14 17 7 8 8
24 27 26 25 28 28 29 30 27 35 33 8 4 4 9 2 3 1 2 7 8 5 1 3 5 2 7 14 6 7 4 6 9 11 9 10 5 3 2 1 8 10 15 18 17 16 20
25 26 27 26 27 28 28 30 26 32 20 5 3 2 3 2 1 4 4 6 6 4 7 9 9 12 11 12 5 7 5 4 8 10 6 5 5 8 8 10 9 6 15 16 13 8 20
25 25 25 24 23 27 27 29 25 31 17 8 4 3 2 2 3 5 5 5 5 4 3 4 4 5 5 4 5 4 5 6 7 7 6 5 7 13 18 20 19 17 21 22 19 21 15
22 25 25 23 23 25 25 27 24 27 17 19 6 3 2 3 6 7 2 9 9 2 2 3 5 6 3 3 2 5 7 5 4 7 8 4 3 2 14 18 14 16 20 18 18 18 15
20 22 21 22 20 24 24 25 23 21 26 9 14 7 5 2 6 5 6 10 8 6 4 6 6 5 1 2 1 2 3 2 3 8 11 5 2 2 5 10 19 9 4 9 12 12 7
21 20 22 21 19 20 22 22 22 15 18 16 11 6 4 2 5 7 6 6 7 5 5 5 4 1 4 4 3 2 6 9 11 10 9 6 4 2 5 12 3 1 3 10 7 7 10
20 19 21 20 19 18 19 20 20 14 15 15 6 4 3 2 6 7 4 7 5 5 2 3 4 5 4 2 1 2 3 3 11 18 17 13 5 2 3 6 16 5 9 7 2 4 8
18 18 18 18 17 17 18 20 18 15 12 11 5 8 4 3 6 6 5 8 6 6 3 3 6 4 1 0 1 3 4 3 3 3 6 13 10 3 3 5 4 6 12 5 5 1 2
18 18 17 16 16 15 17 18 16 16 12 11 3 9 4 5 2 6 9 7 4 5 2 2 3 2 8 3 2 3 3 0 3 4 5 4 3 6 7 4 8 9 11 2 6 6 11
17 18 17 17 16 17 17 16 14 14 13 9 5 7 8 4 1 4 1 2 5 6 3 5 3 1 3 3 3 3 5 3 3 2 5 7 6 4 4 5 6 6 9 5 8 12 8
16 17 18 19 17 16 16 14 14 14 13 8 4 9 7 3 3 2 5 4 8 5 8 10 1 4 3 3 3 4 4 3 5 2 3 4 6 2 7 4 10 14 10 10 7 12 6

GFSGBSN_850_spd_042.txt.gz
Wind_Speed
19 20 21 24 25 24 23 22 23 24 24 24 24 25 23 23 21 20 21 17 16 22 16 13 9 7 10 10 10 6 6 17 21 19 19 15 17 15 10 10 14 12 16 17 16 16 12
21 22 23 26 24 24 26 25 25 25 26 25 25 26 25 26 22 21 20 18 17 20 18 13 11 9 13 12 7 4 4 6 13 15 21 20 12 13 5 11 11 7 10 16 22 12 14
22 25 23 25 25 26 27 29 29 29 27 27 27 26 27 28 24 21 18 21 17 17 21 15 13 12 10 15 5 9 9 5 9 16 20 18 8 5 2 3 10 5 7 11 15 15 10
23 22 27 25 27 28 28 30 29 26 29 26 27 27 27 26 21 20 20 19 16 9 20 15 14 11 8 11 11 7 12 7 6 11 10 14 10 5 3 3 1 4 9 7 9 19 19
28 25 26 26 28 31 28 33 30 27 27 27 27 25 25 22 18 20 19 19 23 28 19 17 16 12 6 9 18 12 13 11 10 8 7 9 8 3 3 2 4 9 6 12 10 6 5
25 27 27 29 31 31 32 31 32 26 27 26 27 24 23 21 19 17 17 20 20 21 21 17 8 9 11 10 13 15 15 12 14 14 10 8 5 4 4 6 6 8 13 11 9 6 4
25 29 28 32 32 34 33 32 29 29 27 26 24 23 25 22 19 19 18 17 7 6 34 9 17 2 21 18 16 16 18 16 15 16 5 11 5 8 11 13 14 13 9 9 10 8 7
25 28 30 30 30 34 34 32 30 27 25 25 24 22 22 24 22 19 15 8 10 4 8 21 10 10 17 22 13 17 21 13 11 10 6 3 7 8 9 6 7 8 9 10 9 10 8
29 30 29 29 30 31 31 30 29 26 25 24 24 22 24 28 18 20 16 17 11 14 6 13 17 16 20 13 10 23 25 15 13 10 10 7 2 11 11 7 5 8 7 8 10 11 11
30 29 32 33 33 33 31 29 26 26 25 23 24 21 23 26 18 10 18 9 13 12 3 11 12 13 12 11 8 20 22 10 8 13 12 8 10 4 5 9 6 7 3 6 6 6 4
28 32 33 33 34 31 29 27 27 26 26 24 22 22 26 23 29 19 3 14 8 5 2 13 9 13 16 11 22 14 22 2 10 7 6 1 2 4 5 7 7 5 5 4 5 6 7
28 30 33 34 32 29 28 27 28 27 28 26 22 23 28 33 17 11 5 17 16 2 5 5 7 13 13 18 4 18 11 4 4 3 4 4 5 1 5 5 5 6 3 4 4 1 4
28 28 31 30 30 29 28 28 29 29 27 23 27 32 34 16 9 10 18 19 5 5 4 8 9 13 15 14 9 15 9 7 4 4 2 4 9 3 4 5 4 6 3 2 2 3 6
24 28 29 29 29 29 29 29 29 30 24 26 32 19 7 3 8 19 28 3 4 7 2 7 15 16 9 14 8 12 11 8 8 7 5 7 4 16 9 7 4 9 5 3 5 2 4
24 29 29 28 29 31 29 30 31 29 27 28 24 13 5 7 13 16 12 3 1 6 9 10 18 9 7 11 8 10 11 9 10 9 4 6 2 2 11 5 8 5 5 2 4 5 2
23 27 29 28 28 30 29 30 31 30 29 31 18 9 7 8 14 17 1 2 3 4 14 17 5 6 7 15 6 9 11 11 9 14 10 3 2 4 7 6 9 7 4 2 1 2 5
22 27 28 28 27 29 29 30 29 30 30 11 5 6 4 12 15 5 2 3 1 14 21 1 8 6 11 15 8 8 10 5 12 13 12 4 1 3 5 7 8 7 5 3 3 4 3
23 27 29 28 29 30 29 30 28 30 26 10 4 3 7 10 2 0 1 3 21 5 3 2 5 10 11 14 7 7 11 2 11 9 10 8 3 3 10 7 12 7 7 9 4 5 5
24 25 26 25 25 28 29 30 26 24 18 8 5 5 11 3 1 1 3 1 4 2 2 2 4 6 16 11 7 4 7 6 4 3 10 7 4 2 3 1 4 4 7 10 12 6 12
23 25 26 27 26 28 29 29 25 25 14 8 4 2 1 4 6 3 3 5 4 9 10 8 7 9 14 6 9 7 6 2 5 4 7 10 4 4 2 1 2 3 6 10 7 5 11
20 24 24 24 24 25 27 28 25 25 11 6 4 2 1 1 3 2 2 6 4 4 4 3 3 9 12 5 7 6 9 7 5 4 4 1 2 6 9 12 11 10 12 13 13 16 12
21 24 23 24 24 24 25 26 24 22 10 18 4 4 6 2 0 7 2 3 5 5 4 3 8 7 6 6 4 7 6 4 4 6 5 2 2 3 5 11 14 15 15 13 15 17 18
21 24 22 21 21 23 23 24 23 19 19 10 6 4 3 4 1 1 1 6 5 5 8 10 8 6 6 7 6 6 5 6 4 6 8 5 3 2 4 7 11 7 7 10 7 10 9
20 22 21 20 19 21 22 22 22 16 16 9 5 5 4 1 1 2 1 2 5 6 7 6 5 3 3 2 5 5 2 2 4 6 7 5 5 2 4 8 2 2 7 7 9 6 4
18 20 20 19 17 17 19 21 20 17 12 8 6 3 2 3 4 3 3 0 9 6 6 6 7 8 5 2 1 3 3 3 7 7 8 7 3 2 2 3 7 7 3 3 3 5 6
18 18 20 19 18 16 17 18 18 17 11 5 5 6 1 2 2 3 5 4 4 3 3 5 7 4 2 1 1 2 3 5 3 2 10 8 5 2 2 3 3 1 3 4 6 3 3
17 18 18 19 19 19 17 16 16 15 14 8 2 7 1 3 3 4 2 5 2 1 3 4 3 1 3 2 1 2 2 2 3 5 5 3 3 6 5 3 7 5 8 8 4 4 2
17 18 18 19 19 17 18 16 14 16 14 9 3 2 4 3 3 2 1 1 4 4 3 5 3 1 2 2 2 3 2 3 3 8 6 6 6 3 4 4 6 3 8 1 3 7 9
17 17 17 18 18 19 18 18 15 15 13 10 5 4 6 4 3 2 3 2 5 2 6 10 1 3 4 1 2 3 3 2 4 1 2 4 5 5 7 5 8 18 4 4 7 7 4

GFSGBSN_850_spd_045.txt.gz
Wind_Speed
20 23 25 24 26 25 26 28 28 29 27 26 26 25 25 24 25 26 22 20 20 18 15 20 14 10 11 13 12 3 3 18 19 19 21 19 17 13 7 7 15 6 6 20 20 20 10
24 23 22 25 26 27 28 28 29 32 30 28 26 26 26 26 26 26 21 20 17 18 16 20 15 12 14 9 10 8 6 12 21 19 20 21 11 16 10 6 8 7 6 5 9 15 13
23 28 25 25 26 29 28 28 30 32 31 27 26 26 26 24 25 22 20 20 18 21 16 19 18 16 14 19 11 11 10 6 5 16 21 23 10 13 6 2 0 4 2 6 8 11 6
22 25 26 28 27 28 31 33 32 32 29 28 30 26 25 25 23 21 19 19 19 21 17 15 21 17 9 15 12 13 14 12 12 10 15 19 16 8 3 1 1 3 3 1 7 11 14
23 24 26 26 29 32 30 34 34 34 29 29 27 25 23 24 21 21 20 18 16 20 20 17 24 16 8 12 24 15 17 14 11 11 9 10 16 4 2 4 2 1 3 6 7 10 6
24 24 28 28 27 30 29 30 32 31 28 25 24 24 22 23 20 21 19 19 20 14 15 14 12 10 11 12 24 20 19 17 14 14 12 7 4 3 2 3 5 5 4 3 6 5 5
24 25 26 31 31 32 33 31 30 28 26 25 24 22 22 23 24 25 18 15 3 4 12 5 11 5 9 15 19 21 26 16 18 15 4 5 3 5 8 7 5 5 4 4 5 6 3
25 28 26 29 33 32 32 29 28 27 25 24 24 21 23 21 23 22 19 9 8 2 3 21 7 12 20 26 13 24 22 12 13 5 5 3 3 5 7 10 9 6 4 5 7 4 5
24 27 28 30 30 31 29 27 26 26 26 26 24 23 21 19 22 19 12 14 9 9 2 11 11 26 23 11 7 26 23 13 10 8 6 5 1 8 4 3 4 2 2 3 5 7 5
24 26 28 30 29 29 28 27 27 28 26 27 26 22 19 19 12 24 18 4 11 6 2 8 8 12 17 12 5 24 23 16 4 10 8 3 4 3 4 3 3 1 4 2 3 4 3
24 25 26 28 29 28 28 27 27 28 28 28 25 20 20 20 22 19 5 4 10 5 1 9 8 23 20 2 22 15 23 1 7 7 6 7 4 6 3 3 5 3 5 5 4 4 5
27 24 27 29 29 28 30 28 28 29 30 25 22 23 26 27 19 10 3 12 11 2 4 4 8 11 7 18 4 22 7 3 4 2 6 4 4 3 3 3 3 6 5 4 3 3 3
25 23 27 29 28 28 29 29 28 29 29 27 26 26 16 8 8 8 17 17 4 1 4 6 8 12 13 7 7 12 8 4 4 5 0 3 3 2 3 4 4 5 5 3 0 2 6
25 23 28 28 28 28 29 30 29 28 29 25 31 15 8 1 5 19 25 1 4 4 2 5 12 15 5 11 9 6 8 4 3 2 4 4 4 8 4 4 5 4 5 4 4 3 4
23 24 29 28 27 27 29 30 29 30 29 31 14 10 9 7 15 23 7 1 1 3 4 7 13 8 5 4 7 6 4 5 4 4 4 4 2 6 6 2 5 3 3 5 1 2 3
22 24 27 30 28 27 30 30 29 30 29 22 8 12 11 10 10 19 2 3 3 5 10 13 4 4 6 6 6 5 8 8 5 8 2 1 4 5 5 3 4 5 5 2 2 2 5
22 26 26 27 26 29 31 30 29 30 26 12 6 5 8 7 11 2 2 3 3 10 20 1 5 6 9 6 5 4 11 10 7 10 5 2 3 2 3 5 7 3 3 3 2 4 4
21 24 28 27 27 29 32 31 29 30 25 8 7 3 5 2 2 1 2 3 6 5 9 2 4 8 9 6 6 3 7 1 15 13 7 3 3 3 7 5 8 5 5 5 4 4 4
20 22 26 27 27 26 31 30 29 28 18 8 5 5 4 6 2 3 3 4 3 6 2 2 3 4 15 6 5 3 5 5 12 6 10 6 2 1 2 5 2 5 7 8 5 2 7
19 23 24 24 25 26 29 29 24 20 9 6 3 2 3 5 5 1 3 4 2 8 6 6 12 15 10 5 5 6 4 3 5 5 10 11 4 5 5 3 3 3 6 9 11 3 8
19 22 23 23 22 24 26 27 23 20 4 3 4 2 2 1 1 3 1 1 5 5 7 6 10 10 9 5 8 5 6 3 4 3 4 4 3 3 4 6 4 6 7 9 11 18 9
17 20 21 22 21 22 24 25 23 21 6 6 3 2 5 3 4 2 2 2 5 4 5 6 10 11 10 4 1 10 6 4 3 2 3 2 1 2 5 8 8 6 11 12 12 16 17
15 18 19 20 19 18 20 22 21 20 19 8 8 5 2 5 1 1 1 2 1 2 12 10 7 6 9 4 10 11 9 9 9 7 6 5 3 2 4 4 6 5 7 12 7 5 6
13 17 18 18 19 17 17 18 19 16 13 8 8 6 4 3 1 1 4 6 6 4 5 6 12 4 2 4 7 8 9 8 5 6 9 4 5 3 3 4 1 5 4 6 10 8 7
11 16 16 17 18 18 16 14 15 13 10 5 7 4 3 2 3 1 3 7 5 7 8 7 6 6 5 3 2 3 1 1 4 5 6 5 4 1 2 2 6 1 2 2 3 4 2
11 15 15 16 17 17 17 15 12 11 10 7 2 6 4 3 2 6 2 3 2 2 2 4 5 3 2 1 1 3 4 5 3 3 4 5 2 1 2 1 3 3 4 3 4 3 2
9 15 15 16 16 17 16 15 13 11 10 8 3 5 3 3 5 4 1 4 3 2 3 3 3 2 2 2 2 3 3 3 4 7 5 3 2 6 6 4 6 8 6 8 1 4 2
9 15 15 16 16 15 15 13 15 13 12 9 5 4 5 4 9 3 1 1 5 4 3 6 3 1 1 2 1 2 2 3 1 6 7 7 6 3 4 3 7 5 5 1 3 4 3
10 16 15 14 17 15 15 14 14 13 11 8 6 7 7 8 6 5 5 2 3 3 6 10 2 3 5 2 1 2 2 2 2 2 3 4 6 5 7 6 7 5 4 3 5 4 2

GFSGBSN_850_spd_048.txt.gz
Wind_Speed
21 22 24 23 22 25 25 28 28 27 28 28 27 26 21 24 25 24 25 24 19 19 15 17 14 18 14 12 17 2 2 22 25 23 26 26 20 12 6 8 11 3 3 7 13 18 8
16 21 23 23 26 26 27 31 31 32 32 30 33 29 28 22 24 23 22 20 19 18 17 16 21 21 19 10 11 6 5 26 25 23 25 24 12 19 8 5 8 4 13 14 12 10 6
21 22 22 22 23 28 27 28 30 29 30 26 24 26 25 23 22 22 20 19 19 20 15 19 12 24 22 25 7 10 10 15 21 22 23 26 11 13 6 3 10 3 5 2 5 5 4
22 23 23 27 27 25 28 28 29 30 28 27 25 23 21 21 21 21 20 18 18 16 17 27 28 20 10 22 12 15 14 13 9 19 20 23 20 6 5 3 3 5 4 1 4 3 8
23 24 24 28 28 28 30 30 29 27 27 25 24 21 22 19 20 20 20 21 19 13 16 20 15 17 6 14 26 21 17 16 14 14 17 16 18 4 5 6 3 1 3 5 6 8 6
22 25 26 25 27 31 30 28 27 26 26 24 22 21 20 20 20 20 24 19 15 14 12 7 11 7 7 15 28 21 19 15 15 18 13 6 5 3 2 4 7 6 4 3 5 4 2
24 23 25 26 29 29 29 27 26 25 24 24 22 22 20 19 18 18 27 20 4 1 7 5 11 5 3 15 20 25 22 17 16 11 4 6 3 6 5 5 3 3 2 2 4 4 5
24 23 27 27 28 28 26 26 25 26 25 23 23 23 20 18 17 18 18 3 3 2 4 17 9 20 10 21 16 23 26 10 9 5 6 3 2 5 10 6 6 1 3 4 6 1 3
25 25 23 26 27 28 26 28 26 26 26 25 26 22 20 16 15 12 20 10 5 5 2 3 17 17 15 14 7 22 24 11 8 7 4 5 1 7 5 6 6 4 3 2 4 5 1
23 25 23 27 28 28 26 28 27 27 28 29 24 20 16 17 13 10 16 3 8 2 2 3 8 8 9 11 4 21 19 13 4 9 7 3 1 4 4 2 4 2 1 3 3 4 4
23 24 23 26 28 28 28 27 28 27 27 27 26 21 22 17 18 18 11 2 11 4 4 9 6 22 12 1 21 13 9 3 5 8 5 4 5 3 3 3 4 3 4 4 2 3 4
23 24 23 28 28 28 28 28 29 29 27 27 25 24 24 19 10 12 4 11 9 2 3 5 7 10 8 8 4 16 4 5 6 5 5 2 3 3 4 4 4 7 5 6 4 3 2
23 22 24 30 28 27 28 29 29 28 29 28 27 16 12 8 3 6 11 11 3 1 2 3 8 14 12 5 5 7 6 3 4 5 3 2 2 1 3 6 3 5 6 2 4 2 6
23 22 24 27 28 26 29 31 29 29 29 28 18 11 10 5 4 11 21 1 3 4 2 5 12 14 6 7 11 7 6 4 3 5 4 4 2 5 2 4 5 4 6 4 4 3 4
20 23 26 27 26 25 29 30 29 29 24 16 14 15 19 13 11 15 1 2 1 4 4 9 15 8 4 5 6 5 2 5 3 3 5 4 1 3 4 3 6 3 2 4 3 4 3
20 21 24 27 26 27 28 30 30 28 20 9 12 15 16 12 9 10 2 5 3 4 7 7 5 1 4 4 5 3 7 4 3 6 2 5 4 2 2 4 1 4 6 3 3 1 4
19 21 23 25 26 28 28 29 30 29 16 11 7 6 7 9 6 2 2 3 3 8 8 2 3 4 6 5 6 3 9 1 7 4 4 1 4 1 4 4 6 3 2 1 3 4 3
19 20 24 22 24 26 28 28 28 21 11 11 7 3 1 5 3 1 2 6 7 7 8 4 4 7 4 4 4 3 7 3 14 8 6 1 4 3 6 2 4 4 6 6 3 3 2
18 20 23 23 22 24 25 26 24 18 14 9 4 2 2 4 2 2 3 3 4 7 8 3 3 3 5 5 5 5 4 6 16 8 7 4 1 2 2 5 3 3 5 4 4 2 6
18 19 21 22 21 22 23 23 21 17 7 6 1 2 3 3 2 1 4 3 2 5 4 5 5 14 5 3 3 4 3 4 4 5 12 7 3 4 5 4 3 3 5 7 6 3 3
17 17 19 21 21 20 22 23 22 17 9 2 4 2 3 2 3 2 3 6 6 6 8 11 7 4 5 3 4 4 3 3 6 4 4 4 4 1 4 6 3 4 5 7 9 18 6
17 16 18 20 21 19 19 20 21 18 6 8 3 3 6 3 1 4 3 4 6 4 4 3 5 4 7 3 2 5 6 3 3 1 3 1 2 2 5 5 7 6 9 10 13 15 14
15 15 17 17 20 20 19 16 18 16 12 6 5 4 2 5 2 0 2 2 5 3 11 9 7 6 9 3 10 7 8 11 7 6 3 4 3 2 4 3 3 5 11 15 6 6 8
17 13 17 16 18 20 18 14 14 12 11 7 7 5 3 3 1 1 3 2 4 3 5 4 10 4 2 5 8 12 16 11 7 3 6 4 4 2 3 3 1 6 2 6 11 9 9
17 11 15 15 17 17 17 15 11 10 8 4 3 1 2 3 3 4 3 3 5 9 5 5 7 6 3 3 3 3 2 2 3 2 4 5 4 1 1 2 6 2 1 1 5 6 3
15 9 14 13 17 16 16 14 13 9 7 4 1 1 1 3 4 4 2 4 3 2 2 4 3 4 1 2 1 3 4 4 3 2 3 3 3 2 2 0 3 3 1 3 3 4 4
14 8 12 14 15 14 15 15 13 14 10 6 2 3 2 3 5 3 3 3 4 3 3 3 2 1 1 2 1 3 2 4 5 7 5 4 2 5 3 3 6 7 4 5 1 4 3
13 8 13 14 14 15 13 15 13 14 13 8 4 5 2 3 11 5 2 1 3 2 3 5 3 1 1 1 2 1 2 3 3 5 6 7 6 3 3 3 7 3 2 2 3 3 6
14 9 14 14 13 14 14 14 12 14 12 8 5 6 8 6 7 7 6 3 3 3 5 9 1 3 4 1 1 1 2 2 2 3 2 4 6 4 6 5 6 5 5 8 8 8 6

GFSGBSN_850_spd_051.txt.gz
Wind_Speed
20 20 22 23 22 25 26 26 24 28 27 26 26 25 24 25 24 22 24 21 21 20 19 19 21 20 17 15 21 4 3 13 28 29 32 24 18 9 7 8 3 4 2 8 17 14 8
22 21 22 24 26 28 24 28 28 29 28 26 25 26 25 24 21 21 23 20 20 19 18 17 18 17 17 11 15 18 3 12 31 31 32 27 16 17 7 4 11 3 11 15 11 11 7
21 22 24 25 29 28 28 31 29 29 27 26 26 25 23 20 20 20 19 20 18 16 16 18 18 13 16 24 7 15 6 18 29 30 30 27 14 19 6 3 8 7 3 2 6 5 5
20 20 24 26 25 28 29 31 30 28 26 26 25 23 21 20 18 19 19 18 19 17 17 16 13 11 7 25 8 15 12 19 20 20 24 24 16 18 5 3 4 6 3 3 3 7 5
21 24 24 25 28 29 28 28 26 25 25 23 24 21 21 21 19 21 20 21 21 14 15 11 13 9 4 13 25 18 16 16 17 20 19 17 22 5 8 5 3 2 4 4 5 7 4
23 24 22 27 26 27 28 27 25 25 25 24 23 22 21 18 18 20 19 27 11 11 11 8 11 9 8 12 25 23 17 11 13 18 13 11 11 5 4 4 8 5 5 3 5 2 3
23 25 25 24 26 26 29 26 27 26 24 26 24 23 25 19 17 17 18 22 4 3 5 5 8 3 5 6 21 23 19 13 12 9 5 5 2 8 13 7 3 5 3 3 3 1 3
22 23 27 25 28 29 28 28 28 28 26 27 26 25 20 17 15 12 17 14 6 4 3 9 7 5 4 13 12 21 18 11 8 4 6 4 3 10 4 3 1 3 1 3 5 0 2
22 24 25 24 28 29 28 28 28 25 28 27 24 22 19 14 16 12 8 9 4 3 2 3 6 5 3 12 7 19 19 6 5 4 3 4 3 9 8 2 4 1 3 3 3 3 3
23 24 25 24 30 29 29 28 29 29 27 25 26 25 24 18 12 6 7 7 5 2 2 2 4 4 8 13 5 22 19 8 3 5 5 3 3 13 8 6 5 4 3 2 2 3 2
24 25 24 26 30 30 29 29 29 28 27 29 27 27 27 17 11 13 6 1 9 1 4 5 4 12 8 1 21 10 11 3 5 6 5 2 4 7 4 5 4 3 4 4 3 4 2
22 25 25 27 29 28 28 30 31 29 29 27 28 19 12 7 8 1 6 11 6 2 3 5 6 8 6 7 4 11 4 8 12 6 6 3 2 3 3 4 3 8 5 6 4 2 2
21 23 25 27 28 27 28 30 29 30 27 23 18 15 10 11 8 8 13 8 4 3 1 4 8 10 8 13 6 4 3 4 4 5 3 3 3 2 5 7 5 5 6 3 4 3 4
20 22 24 27 28 28 28 31 30 27 26 14 12 10 12 10 9 11 13 2 6 3 2 1 11 13 6 6 8 7 6 3 3 5 4 3 0 3 1 4 5 1 5 4 4 1 3
19 21 24 25 27 28 27 29 27 26 20 11 14 18 21 16 10 11 5 3 2 2 2 8 12 7 4 5 4 5 1 4 3 1 5 4 1 1 2 3 5 3 2 3 5 3 2
20 21 24 24 25 26 27 28 25 22 13 4 8 12 17 10 6 4 3 5 2 5 10 5 4 2 6 3 4 4 4 2 3 2 1 4 4 2 3 5 6 3 7 3 3 2 3
19 20 24 24 23 24 25 28 25 16 9 5 6 5 7 6 4 4 2 5 4 11 12 5 3 5 5 5 4 2 5 1 3 4 2 4 3 2 4 2 5 2 1 5 4 3 3
16 18 25 24 25 24 24 25 23 21 13 7 7 3 6 10 3 2 2 4 9 4 6 4 5 6 4 4 3 3 6 2 9 7 4 1 4 3 2 2 3 3 5 5 3 3 1
17 20 24 24 26 25 22 21 20 17 13 10 4 4 8 8 3 3 2 3 2 3 3 1 3 2 2 5 5 3 3 4 10 5 6 4 2 3 4 5 3 2 4 4 4 3 5
16 19 22 24 26 26 24 19 19 16 10 6 3 3 5 4 3 2 2 3 3 3 2 4 4 5 5 3 5 4 3 4 5 7 8 6 3 4 5 4 3 2 4 6 6 3 4
15 17 21 23 25 25 24 19 18 15 8 3 5 2 3 3 4 3 3 2 4 5 4 9 4 4 5 3 3 3 2 2 6 5 4 4 2 0 4 5 2 4 4 7 8 10 6
14 15 20 20 23 23 23 19 17 14 4 7 3 3 3 4 9 6 3 6 5 4 4 4 5 8 7 3 0 5 5 2 2 3 3 3 3 3 4 4 7 5 8 9 10 9 11
12 12 18 20 19 22 21 19 15 14 9 5 4 2 4 4 4 3 4 3 4 2 11 10 5 4 9 5 1 7 5 8 6 6 3 4 4 2 4 4 3 5 9 12 5 5 9
14 13 15 20 16 19 19 17 13 10 11 6 6 4 3 3 1 2 5 4 4 2 5 4 7 3 2 6 8 14 15 12 7 2 5 4 4 3 3 3 1 6 4 6 13 10 12
15 15 12 17 20 14 17 16 14 10 6 3 3 3 2 2 4 4 4 2 4 8 5 5 6 5 4 2 3 3 3 3 2 1 2 3 4 1 1 2 6 2 3 5 5 6 5
15 16 11 14 19 16 14 14 12 13 7 3 2 3 1 3 4 6 2 2 2 1 2 4 6 5 2 2 2 2 4 3 2 1 3 4 5 2 1 1 3 2 3 1 4 3 5
16 15 9 13 16 15 15 13 13 11 12 6 4 5 3 3 6 2 3 3 3 2 2 2 4 2 3 2 1 2 2 5 5 6 5 3 2 6 3 3 6 7 3 5 2 4 3
16 13 9 13 16 13 14 12 12 9 10 9 6 6 4 5 14 7 5 3 3 4 3 5 3 1 2 1 2 2 2 2 2 4 5 6 5 3 4 3 6 4 2 2 3 5 6
15 12 13 11 16 14 13 14 14 10 11 9 6 9 8 8 8 8 11 9 5 4 3 8 3 3 4 2 1 1 1 1 2 3 1 4 6 4 7 5 5 3 3 7 10 9 7

GFSGBSN_850_spd_054.txt.gz
Wind_Speed
19 22 21 22 26 26 29 28 28 30 28 27 26 25 25 23 22 22 21 20 21 20 18 20 18 16 17 11 22 9 3 7 25 31 31 23 23 15 10 10 6 5 2 13 12 7 6
20 22 22 25 27 25 27 29 29 31 30 25 23 23 23 21 21 20 20 19 18 18 17 15 14 13 16 9 20 26 15 9 26 33 34 28 17 13 11 6 8 6 13 12 6 8 6
22 21 24 24 25 27 28 29 29 25 27 23 22 23 22 19 19 19 18 19 18 16 14 14 13 14 16 17 11 14 14 14 26 38 36 31 16 15 9 3 9 6 4 3 8 6 5
21 24 25 24 26 27 27 29 28 26 25 25 24 22 20 20 19 19 19 19 17 17 17 14 12 12 9 10 17 10 10 12 25 34 31 30 17 21 5 5 4 6 3 1 3 9 6
23 23 26 26 25 26 29 29 28 28 27 25 24 24 21 20 19 19 19 20 20 25 17 10 9 8 5 8 20 9 9 19 25 25 23 23 20 9 5 6 3 2 4 4 5 8 4
22 23 25 28 25 27 30 29 28 27 27 26 28 23 24 24 20 17 18 17 16 7 5 6 7 5 10 8 21 14 12 20 19 19 19 17 14 5 3 5 7 8 5 3 6 1 2
22 23 26 28 25 29 31 29 29 26 28 25 27 26 21 18 14 14 17 15 4 2 4 5 8 4 7 8 15 17 16 16 13 16 8 13 7 10 16 6 4 6 4 3 2 1 2
23 24 27 26 27 30 31 29 28 29 28 30 25 21 21 20 15 13 11 8 5 2 3 4 3 8 4 15 11 16 16 7 7 5 6 6 5 4 11 9 5 5 5 2 2 1 1
22 25 27 27 29 31 29 28 30 31 29 27 29 28 27 20 16 15 2 4 3 1 2 2 3 6 5 15 9 11 16 3 2 2 4 5 9 11 11 9 8 3 3 2 3 3 2
22 24 26 27 29 29 28 29 30 29 31 29 28 29 25 24 7 7 3 4 5 3 4 5 1 3 10 7 6 15 16 5 2 5 5 4 5 14 11 6 3 2 4 2 3 2 2
23 23 25 27 31 32 29 29 32 31 31 29 24 21 14 9 5 7 3 1 10 1 4 1 1 7 11 3 19 7 13 2 5 4 4 2 7 8 10 6 11 3 5 5 3 4 2
24 22 24 27 28 30 30 30 31 29 31 23 19 18 12 10 9 6 5 9 6 3 4 3 1 3 9 4 4 8 4 1 8 7 9 4 5 3 2 5 2 9 5 6 4 3 1
23 22 24 27 29 29 28 30 30 28 25 21 20 16 10 10 9 10 10 2 3 4 2 2 3 7 9 7 5 4 2 4 4 4 4 5 3 2 5 7 5 4 5 2 3 3 4
21 22 24 28 28 27 27 29 27 23 17 14 18 14 13 14 10 11 3 4 5 2 1 3 8 12 5 5 7 3 5 4 4 4 3 4 0 2 1 3 6 2 5 4 4 1 3
21 21 23 26 27 26 26 27 27 20 12 10 11 13 14 12 5 4 7 4 3 2 2 7 10 7 4 4 4 4 4 3 1 1 4 4 3 1 3 3 3 3 2 3 6 3 3
23 20 22 24 26 27 25 24 22 22 15 12 13 8 12 10 7 5 3 5 5 1 4 5 4 1 3 3 4 4 3 1 3 2 1 2 4 2 3 4 9 3 7 3 3 2 2
22 19 21 23 27 30 25 21 22 20 17 14 11 5 13 15 10 5 3 4 3 8 8 4 3 4 5 4 4 2 4 2 1 2 5 3 3 2 4 1 6 2 1 5 4 3 3
21 20 20 22 27 30 28 22 22 17 17 13 7 3 16 17 5 3 3 4 5 5 4 4 4 5 3 3 3 2 3 3 5 7 4 1 4 3 2 2 2 2 5 4 4 3 1
19 20 18 22 26 28 28 23 20 16 14 15 6 5 12 14 3 3 2 3 2 3 4 3 3 2 2 4 4 3 3 1 9 4 5 5 2 3 1 3 4 3 3 4 5 3 4
17 19 17 20 25 26 27 24 19 16 10 8 4 4 6 6 3 1 4 5 5 3 3 3 4 4 4 4 4 4 2 4 9 7 6 5 3 3 5 3 3 2 4 5 5 3 3
15 17 16 18 22 25 25 25 19 17 8 4 4 2 3 3 3 5 3 2 3 4 4 6 4 3 4 3 3 3 2 2 5 7 4 3 3 3 2 4 3 4 4 7 6 5 6
14 16 17 18 20 24 22 23 20 14 7 7 3 2 4 5 9 5 6 5 3 2 4 3 6 6 6 4 2 6 5 2 3 2 3 2 3 2 3 3 5 4 7 8 9 6 10
12 15 17 17 20 21 21 20 19 15 11 6 3 2 2 4 5 2 2 4 5 1 9 9 4 5 9 5 1 3 1 6 7 6 3 3 4 2 3 4 5 5 8 12 6 6 11
11 14 15 15 19 21 19 18 16 13 10 7 6 3 2 3 2 2 5 3 6 5 4 5 7 4 3 0 8 14 17 13 9 5 3 4 4 2 2 4 1 5 2 5 13 8 14
12 13 14 11 17 19 17 16 15 12 7 3 4 2 2 3 2 4 6 1 3 7 4 4 5 5 6 2 3 3 2 3 4 5 3 3 4 2 1 3 6 2 3 6 6 4 8
13 14 14 11 13 18 19 15 15 11 11 4 3 2 3 3 4 2 3 2 2 1 2 2 6 5 2 3 2 2 3 2 1 2 4 5 5 3 3 2 4 3 2 1 4 3 3
12 12 14 11 12 15 16 15 15 11 12 9 4 6 4 4 5 3 4 2 1 2 2 1 3 3 2 2 1 2 2 5 5 5 4 3 2 6 3 2 6 8 5 3 3 4 2
12 13 13 12 11 15 14 14 13 13 8 11 8 6 5 5 16 10 7 4 2 3 4 4 3 1 2 2 2 2 2 2 2 4 5 7 5 3 3 3 7 5 3 2 3 3 4
14 15 14 11 12 15 16 15 11 14 7 11 10 7 11 9 9 10 16 16 12 4 2 8 2 3 5 2 1 1 1 1 2 2 1 4 5 4 7 5 5 4 5 9 11 12 6

GFSGBSN_850_spd_057.txt.gz
Wind_Speed
20 23 21 24 24 24 27 26 26 28 28 27 25 21 21 21 18 19 17 17 16 16 16 16 15 14 12 16 18 8 10 7 27 29 33 23 24 18 12 11 6 3 2 11 6 6 2
20 21 24 25 24 27 26 28 28 28 29 25 25 24 22 21 18 18 17 16 15 15 15 14 13 10 13 11 10 22 8 3 24 32 35 27 20 18 13 9 8 8 10 3 6 7 4
22 22 24 25 26 25 26 31 29 28 28 26 24 24 22 20 19 18 17 17 17 14 12 13 14 9 14 17 5 17 29 15 13 34 38 31 23 19 14 5 13 7 3 4 11 6 3
23 23 25 26 28 26 28 31 31 28 28 26 25 23 23 20 19 19 17 17 16 15 16 18 11 10 8 11 13 4 22 20 15 33 34 30 23 14 6 11 5 5 1 3 2 10 8
23 24 26 28 28 26 31 31 31 29 27 26 26 25 23 22 21 19 16 17 14 19 18 14 8 9 5 12 11 11 11 10 25 30 31 28 25 10 7 6 4 4 4 7 3 9 3
24 23 26 29 27 29 31 33 29 30 30 28 28 26 23 19 18 14 14 15 13 6 3 8 4 6 6 6 12 16 8 16 26 28 19 21 11 4 3 6 9 7 4 3 9 3 2
23 24 26 28 28 30 30 29 29 30 32 29 26 25 25 21 19 14 13 9 2 1 3 1 5 6 12 8 13 17 8 22 19 24 10 18 7 15 14 6 3 9 5 4 2 2 2
23 24 25 27 29 30 32 30 32 33 31 33 30 29 28 27 17 14 9 3 4 2 1 3 6 12 2 10 8 10 12 13 12 13 10 8 13 9 12 7 5 6 6 4 1 3 2
23 25 25 27 30 31 31 30 32 30 33 34 32 28 25 20 14 5 4 1 2 2 0 3 2 6 2 9 10 12 13 9 3 7 11 6 3 9 13 10 9 2 5 3 3 1 2
22 24 26 27 29 30 29 30 31 29 35 32 28 27 20 14 10 4 5 1 5 3 3 5 3 3 8 11 3 13 8 5 4 8 12 1 2 11 10 13 9 4 2 4 4 2 1
23 23 26 28 28 30 29 30 30 27 29 30 27 23 17 16 6 5 1 1 7 1 5 3 2 2 8 5 10 4 4 5 6 10 4 3 10 11 7 3 6 1 3 4 3 4 2
23 25 26 27 29 29 28 28 29 24 23 27 29 22 16 12 12 9 8 6 2 5 5 2 2 7 1 8 6 6 4 11 10 9 10 2 6 6 3 11 5 10 5 6 4 2 0
23 25 25 28 28 28 27 27 27 25 23 23 26 20 17 11 11 10 4 6 4 6 2 3 2 6 2 6 6 4 2 4 3 4 3 5 5 3 7 9 2 1 3 2 2 1 3
23 24 25 28 28 28 26 25 23 23 21 20 18 19 14 11 5 3 15 4 9 1 1 4 6 11 6 6 7 4 2 3 5 4 3 4 3 3 1 3 6 2 2 4 4 3 1
22 23 26 27 28 29 29 24 22 21 19 17 16 13 15 17 15 10 8 5 3 2 1 5 6 7 5 6 5 4 3 1 3 4 4 4 3 2 5 2 2 3 2 2 6 2 1
21 21 25 26 28 29 30 25 23 22 19 17 15 9 18 18 18 9 1 6 3 3 2 4 4 1 4 2 3 2 1 2 3 3 0 2 5 2 1 4 10 2 6 2 2 2 3
19 20 22 25 27 29 30 28 23 22 19 18 11 3 20 19 8 8 3 3 3 5 3 3 3 4 3 4 2 2 1 2 1 1 5 3 3 1 3 1 5 2 1 4 3 1 3
18 19 18 24 27 27 29 29 22 22 20 17 6 3 18 12 5 3 3 4 6 5 6 3 4 4 3 4 3 2 3 3 5 5 3 1 4 3 2 1 1 1 4 4 3 3 2
17 19 16 22 25 27 27 29 23 20 18 17 4 6 14 13 4 4 5 4 2 5 4 3 2 2 1 3 4 2 3 2 6 3 5 4 2 3 1 1 3 3 3 3 4 3 4
16 19 17 18 24 25 25 27 25 19 13 10 3 3 7 9 5 3 5 4 5 4 3 3 3 4 3 4 5 3 2 4 5 2 8 5 3 3 4 3 3 3 4 4 5 3 3
14 16 16 16 22 23 24 23 23 18 11 5 4 1 2 3 3 3 1 3 3 5 6 8 4 2 3 3 2 2 2 2 5 5 4 3 3 1 1 1 3 3 4 7 6 5 6
13 13 16 16 18 21 23 21 22 19 11 5 3 2 3 4 7 3 5 2 5 4 4 3 5 3 2 4 3 6 5 3 3 2 3 2 3 2 3 0 5 4 7 9 9 4 10
12 12 15 16 16 19 22 19 19 19 15 6 5 2 1 4 2 1 1 3 1 2 4 6 2 4 7 4 1 0 1 6 7 6 3 4 5 2 2 3 3 5 10 14 5 5 9
12 12 13 16 13 18 19 20 17 15 12 8 6 3 2 2 1 2 2 2 3 1 5 2 5 3 5 5 10 14 16 14 10 5 3 5 4 2 1 3 1 4 3 8 13 6 12
13 13 14 15 13 16 17 18 17 13 10 4 3 2 2 3 2 6 3 2 1 4 3 3 3 5 6 2 3 3 2 3 3 5 3 1 4 2 1 2 6 1 2 5 6 2 8
14 13 13 15 13 12 16 16 15 15 10 7 3 3 3 3 4 4 4 2 3 2 2 1 4 6 3 3 2 3 3 2 2 2 5 4 4 3 1 2 3 3 1 2 3 1 2
14 12 12 14 14 11 14 13 14 12 11 9 4 6 4 4 8 3 4 3 2 3 3 1 3 2 4 2 2 2 2 5 4 4 4 2 1 3 3 2 6 7 7 2 2 3 2
14 11 13 15 14 12 13 13 13 13 9 10 8 7 5 5 18 15 8 7 4 3 3 5 4 2 1 3 3 2 2 3 2 3 5 7 6 4 3 3 6 5 2 3 1 3 4
14 12 17 17 13 13 12 15 13 11 10 11 12 10 11 11 13 11 22 27 23 14 4 7 2 5 7 3 1 2 2 2 2 2 1 4 5 4 7 5 5 1 4 4 9 16 13

GFSGBSN_850_spd_060.txt.gz
Wind_Speed
21 21 22 23 25 26 28 25 29 30 28 27 26 24 23 20 19 17 16 15 12 13 12 11 11 11 10 14 20 7 15 19 28 26 28 26 32 24 15 18 14 13 5 9 7 7 6
21 23 24 25 26 28 26 28 31 30 28 28 27 23 23 21 19 17 16 15 15 13 12 11 10 10 11 15 11 21 12 8 23 31 30 26 26 23 20 14 14 14 7 9 12 8 5
20 22 23 26 27 28 27 30 33 30 28 29 26 24 22 22 18 17 17 15 14 13 13 11 9 10 12 22 13 16 23 7 14 33 32 27 18 22 14 7 12 4 12 13 8 10 10
21 23 24 26 28 28 30 30 29 27 30 28 27 25 24 22 19 18 17 16 14 13 14 13 11 10 11 13 22 10 23 22 10 26 27 27 19 22 11 8 13 12 6 9 11 17 6
22 22 25 28 27 27 30 30 28 30 30 29 26 25 21 18 18 15 15 10 12 12 14 12 8 8 6 8 15 13 17 17 16 25 26 26 19 20 10 14 9 14 10 17 5 12 13
22 23 25 26 26 30 28 30 27 30 29 31 31 26 23 21 20 13 15 11 8 4 3 8 4 5 10 15 11 13 11 16 21 27 21 23 13 8 14 15 15 17 16 14 14 7 10
22 23 26 26 27 29 26 28 28 28 31 35 32 25 23 20 17 14 11 5 1 2 2 2 2 5 3 11 11 13 14 15 23 27 14 25 5 14 20 19 0 8 16 9 7 6 7
23 25 27 26 28 29 27 28 28 27 32 34 31 28 23 19 12 8 6 1 1 1 2 2 5 7 10 5 6 11 5 10 31 22 15 11 14 14 14 14 7 12 13 10 5 5 6
23 26 26 25 27 27 26 26 27 26 29 33 32 28 26 20 12 11 7 3 1 3 1 6 6 5 5 1 4 12 6 17 20 20 15 16 6 14 16 14 12 9 12 10 4 6 1
23 26 26 25 27 26 26 26 27 27 27 31 31 29 24 11 12 11 5 4 2 1 1 2 2 3 0 6 5 3 7 1 4 9 6 3 6 18 18 18 14 11 4 8 8 7 3
21 25 27 25 27 27 24 25 27 26 23 27 28 25 21 20 9 9 5 3 3 1 2 4 1 1 5 5 8 4 2 8 10 12 5 4 7 14 17 18 14 4 7 6 5 3 1
21 24 26 27 28 29 25 25 24 23 20 20 23 21 16 17 15 12 8 5 3 3 9 5 6 3 4 4 4 8 8 15 9 9 14 5 5 5 3 8 6 11 10 7 4 1 4
19 23 26 27 28 30 31 24 22 21 17 16 15 18 14 12 8 8 15 6 2 7 2 6 5 1 7 5 8 5 5 5 4 5 4 2 4 2 10 7 5 3 9 4 3 3 2
18 21 25 26 28 29 31 26 23 19 18 14 13 10 15 15 14 13 13 2 10 4 4 4 5 10 5 4 6 6 4 5 7 9 5 3 4 2 2 1 6 7 4 2 3 4 3
18 20 23 25 27 28 30 30 23 21 18 14 13 9 15 17 14 10 3 7 3 0 2 4 7 5 5 9 5 2 4 3 3 4 4 4 4 4 2 2 3 3 4 2 4 2 2
17 20 22 24 27 28 29 30 25 23 19 16 9 3 20 16 12 8 2 6 2 2 2 2 3 2 4 4 3 3 3 2 2 2 1 3 6 2 5 3 10 2 8 3 0 4 4
17 19 22 23 27 27 27 29 26 24 21 13 6 2 17 10 13 10 4 4 2 4 3 3 2 4 3 4 4 3 2 2 2 2 3 6 3 3 3 2 6 4 3 2 1 2 2
16 19 20 22 26 27 26 27 27 22 22 11 5 2 12 7 6 4 3 4 5 6 5 3 4 5 4 3 3 2 2 1 3 2 3 2 5 5 2 2 3 1 2 3 2 3 1
16 17 20 21 24 27 26 25 26 22 20 15 4 3 10 5 3 3 1 1 1 5 4 3 2 1 1 4 3 2 2 3 2 1 3 5 3 5 4 2 1 4 4 2 4 2 4
16 16 18 18 23 25 25 24 24 21 15 11 5 1 5 8 4 2 2 4 3 2 2 2 2 2 3 2 3 4 3 3 1 2 6 3 3 1 0 3 3 4 8 9 4 3 4
15 15 15 17 21 23 22 23 22 21 14 9 6 3 3 2 3 3 1 1 0 2 4 5 2 1 2 3 2 3 2 4 3 2 2 1 3 0 1 1 2 3 6 12 8 5 5
14 14 13 16 19 22 20 22 20 19 15 6 4 4 4 4 4 1 2 1 1 1 2 1 2 2 1 2 0 5 5 3 2 2 2 2 3 1 0 0 5 5 9 9 13 13 12
14 13 14 15 17 19 18 19 19 17 14 7 5 3 4 3 3 2 1 0 1 1 1 1 5 3 4 2 1 1 1 3 3 5 3 3 5 1 1 2 3 8 15 17 10 9 12
14 13 14 15 16 17 18 18 17 15 12 7 6 4 2 3 3 2 1 2 2 3 2 2 2 3 5 12 10 11 12 10 6 5 2 6 5 1 1 1 4 2 2 4 16 9 15
14 14 14 14 14 14 15 16 15 14 11 6 3 3 3 3 5 9 5 4 2 1 1 0 1 5 12 5 3 4 2 1 4 5 1 1 4 2 2 3 6 2 3 5 6 0 13
17 15 14 13 13 13 12 13 13 13 12 9 3 2 2 5 3 5 4 4 3 3 3 2 4 8 3 1 2 3 3 2 3 2 4 4 2 3 1 3 3 4 3 3 4 4 5
19 15 14 13 13 14 12 12 11 11 11 10 7 4 4 5 7 4 5 3 3 2 2 3 5 4 4 2 3 3 3 2 4 4 4 3 2 7 5 4 5 4 4 1 3 4 1
18 16 14 13 15 16 13 11 11 10 9 11 9 7 4 6 15 16 9 8 5 4 3 4 4 3 3 5 4 3 4 5 4 3 4 8 5 3 5 5 6 3 4 3 1 2 3
18 16 14 14 18 16 13 12 11 11 10 12 13 10 10 10 14 22 24 25 28 19 7 4 3 4 6 3 2 2 3 3 3 3 4 5 5 3 7 3 1 2 2 5 8 11 12

GFSGBSN_850_spd_063.txt.gz
Wind_Speed
18 22 24 24 26 28 27 28 29 30 28 26 27 26 24 22 19 17 16 14 13 13 12 11 9 10 7 14 21 6 9 23 26 27 28 23 30 29 18 20 19 16 10 15 6 9 12
21 25 26 25 27 29 28 29 30 28 27 30 28 27 24 22 20 17 13 14 12 12 13 10 8 7 9 18 12 14 20 12 27 30 29 28 29 29 16 13 18 15 15 12 12 12 9
22 24 26 26 27 28 30 29 31 28 30 30 28 26 25 22 20 15 15 15 14 11 13 10 9 8 14 21 5 7 23 11 7 30 31 29 24 27 11 10 15 3 17 7 16 15 7
21 25 28 26 27 28 28 27 31 28 29 29 33 32 25 20 16 14 12 13 11 10 11 10 10 10 11 13 21 20 15 22 5 29 27 25 23 20 10 9 15 13 11 15 16 13 15
23 26 28 27 27 28 29 28 29 27 29 32 32 29 23 19 15 13 8 10 7 8 7 9 10 10 10 5 20 16 17 18 9 24 24 23 16 15 18 13 11 14 13 17 13 25 10
23 26 28 26 26 27 27 26 26 27 30 32 32 27 24 18 14 13 9 8 6 2 4 5 2 6 10 10 13 12 16 16 13 33 27 20 12 10 12 14 13 19 21 19 18 11 20
23 26 28 27 27 27 27 24 26 25 29 32 31 28 26 20 9 5 3 3 1 2 5 4 3 9 7 3 12 12 16 14 15 20 14 23 7 17 26 23 18 16 17 12 14 9 11
21 25 29 27 27 27 25 25 25 24 26 29 33 27 23 20 17 11 7 2 2 2 3 3 7 8 10 4 4 15 17 17 14 20 16 10 12 13 18 18 12 9 16 13 3 9 9
20 24 28 26 26 27 25 24 23 24 24 25 28 27 16 17 16 14 9 4 2 4 2 5 7 6 6 8 7 8 6 7 11 23 18 13 4 12 16 15 13 12 14 16 6 7 10
19 23 27 28 27 29 29 24 23 23 23 21 22 24 20 6 6 7 7 4 3 3 2 8 5 4 6 5 6 7 5 6 7 22 17 7 3 13 9 17 14 12 7 9 8 11 6
18 21 26 29 29 30 32 26 24 22 22 17 17 16 16 14 4 6 5 4 1 5 4 7 7 6 6 6 6 9 5 11 11 10 5 3 5 16 16 15 15 3 9 10 8 8 1
18 20 24 28 30 30 31 29 23 24 21 18 14 13 10 9 7 7 8 5 4 3 9 5 6 5 4 1 4 5 6 16 11 9 13 4 5 6 2 9 6 10 12 8 4 2 4
17 19 23 26 29 30 30 30 24 23 22 18 15 9 9 8 6 10 7 2 2 6 2 6 3 2 4 4 4 6 9 6 5 4 2 2 3 6 1 11 5 4 13 4 4 4 4
17 18 21 24 29 31 30 30 27 24 24 19 10 9 11 9 10 9 4 3 9 6 6 3 3 10 4 2 6 5 9 8 10 9 3 2 3 3 3 3 4 7 3 3 5 7 7
16 17 20 23 27 30 30 31 32 24 24 22 6 9 11 12 10 7 4 7 3 1 4 2 3 6 4 7 4 2 10 5 5 2 1 4 3 2 2 2 8 4 4 2 2 2 2
15 15 19 22 25 30 30 30 31 26 24 20 6 5 7 13 10 7 4 5 2 2 5 4 3 4 2 4 2 2 4 2 3 2 7 4 6 6 5 4 4 1 6 3 2 3 5
15 14 18 20 24 29 30 29 30 29 23 14 7 2 11 9 10 7 3 4 1 3 3 4 3 1 3 3 1 3 3 2 1 2 1 5 3 5 5 4 6 3 2 2 3 3 3
15 14 16 20 22 28 28 28 28 30 25 14 6 2 11 6 3 4 2 2 3 4 2 1 1 3 3 1 4 2 3 4 2 1 2 4 5 4 3 2 4 6 6 8 3 5 1
15 15 15 18 21 24 27 27 27 27 23 19 9 5 8 4 2 3 2 3 1 4 4 2 1 2 2 3 1 1 2 2 3 3 2 4 4 4 2 2 3 5 8 6 1 3 3
15 16 15 16 19 22 25 25 26 24 20 13 6 3 4 4 3 1 1 0 2 1 1 1 2 2 5 4 1 3 3 2 1 3 4 1 2 3 3 4 3 4 10 10 5 2 4
14 15 14 14 17 19 23 23 24 23 20 9 5 3 3 2 2 3 2 2 4 2 2 2 3 4 5 4 3 2 2 6 4 3 2 2 3 1 1 1 2 4 7 13 8 8 4
13 15 15 14 16 18 20 22 21 21 18 5 4 4 6 7 4 5 2 1 4 1 3 3 5 5 5 3 1 3 5 4 3 5 3 1 2 1 2 2 6 8 10 9 13 14 14
13 14 16 15 16 17 18 20 20 18 16 6 6 4 3 6 4 3 1 1 1 2 2 4 1 4 5 1 1 1 1 1 0 3 7 4 4 1 1 1 5 9 16 16 10 8 14
13 14 15 16 15 15 16 17 18 19 16 9 6 5 4 3 4 4 5 6 7 5 4 1 4 5 2 6 7 7 7 5 5 3 4 4 4 1 2 2 3 2 3 3 17 9 14
14 14 14 15 15 14 14 14 15 16 14 9 7 4 4 4 6 11 10 6 8 6 7 4 2 1 8 3 4 5 3 3 3 2 3 3 4 2 3 4 9 6 4 4 7 5 16
18 18 13 14 15 14 14 13 12 12 12 9 7 6 5 8 0 5 8 7 6 7 5 4 3 7 3 3 3 4 4 3 4 4 2 3 2 3 2 3 3 4 4 2 4 3 4
20 21 17 14 14 14 14 14 12 11 11 9 7 7 4 8 9 5 4 5 4 4 4 4 6 6 4 4 3 2 3 2 5 5 6 5 4 8 6 4 6 5 7 1 3 4 5
22 22 21 16 16 15 16 17 12 10 9 10 8 9 4 8 17 12 10 11 11 8 3 3 4 5 6 5 3 3 5 5 4 4 6 8 6 4 5 4 7 4 4 4 4 3 3
21 23 23 16 17 17 17 13 13 11 12 9 10 12 11 11 14 16 22 24 22 22 10 5 2 2 10 5 4 2 3 1 6 3 8 5 6 3 7 4 3 3 2 2 2 5 8

GFSGBSN_850_spd_066.txt.gz
Wind_Speed
22 23 24 25 26 27 28 29 27 31 25 28 29 30 28 24 20 17 14 12 11 9 10 8 8 7 4 9 18 9 3 18 27 27 24 21 24 25 12 13 16 17 14 22 9 2 3
22 23 26 24 27 28 27 25 28 27 27 28 32 31 30 26 20 17 12 9 10 8 6 6 6 6 6 13 11 9 17 11 23 27 28 27 17 24 14 9 15 14 20 9 9 5 2
22 24 25 25 26 28 27 27 27 25 28 31 31 31 28 23 15 12 11 10 9 8 7 7 5 5 10 17 3 6 10 13 8 29 27 28 21 26 6 9 16 3 10 10 9 12 3
21 24 24 26 26 27 27 25 24 25 28 31 33 31 28 22 15 11 10 6 8 3 5 4 5 6 9 9 13 17 12 12 15 10 27 25 26 11 12 5 7 4 4 7 8 13 10
21 24 25 26 25 26 25 24 25 24 27 29 34 32 30 22 12 8 5 5 4 4 2 4 5 6 9 5 11 13 14 16 11 10 30 23 23 9 13 5 7 8 6 13 10 11 5
20 23 26 27 26 28 25 25 25 26 26 29 32 32 29 27 9 1 2 5 4 5 7 4 2 3 8 9 9 13 13 18 11 13 23 20 11 7 7 7 12 15 14 13 15 17 14
19 22 26 29 28 30 27 24 25 26 25 27 28 29 27 24 18 9 8 7 3 2 2 3 4 11 11 16 6 12 13 12 11 16 8 19 7 16 23 15 11 12 13 13 14 10 17
19 22 26 29 29 29 29 25 23 24 23 23 23 25 18 19 22 18 12 5 6 3 4 4 5 8 5 7 2 10 16 11 8 8 14 10 10 11 14 14 16 7 12 16 3 12 9
18 21 25 28 30 29 30 28 24 23 22 21 20 19 15 11 14 11 11 7 4 4 2 6 6 7 6 5 4 9 13 12 9 17 15 9 4 6 11 12 13 14 12 13 5 5 3
17 20 24 27 30 29 30 30 25 25 23 22 16 15 14 10 6 9 6 5 5 4 0 6 4 2 3 2 3 7 7 2 4 14 9 5 4 11 6 9 16 11 9 8 10 6 3
17 19 23 26 29 30 30 30 29 26 25 23 18 13 11 9 5 5 5 6 6 2 3 11 4 5 3 4 8 5 10 7 4 9 5 3 3 8 5 7 12 4 7 8 8 7 1
15 17 21 25 28 31 29 29 30 27 27 24 18 11 9 7 6 13 10 9 2 1 6 5 5 6 4 14 5 6 8 8 11 9 13 4 3 2 2 4 6 7 8 9 2 1 2
15 17 20 24 27 31 30 30 31 29 27 25 15 11 9 5 6 11 7 5 1 6 0 7 4 8 6 5 6 7 7 5 3 4 2 3 2 5 2 6 2 6 9 3 2 2 4
14 16 19 23 26 30 30 29 30 30 26 22 10 11 13 13 13 7 4 2 8 2 3 3 5 5 5 3 5 10 5 5 8 6 3 2 2 2 3 1 5 3 2 3 5 5 4
13 15 18 21 26 30 31 28 30 30 26 21 9 10 15 16 12 4 4 6 3 1 3 5 5 3 3 6 4 1 10 5 3 2 3 4 1 1 4 2 2 3 3 2 3 3 4
12 14 17 20 24 29 30 29 30 31 25 20 12 5 6 11 9 6 2 4 1 4 6 8 4 2 6 4 2 3 4 1 8 10 10 6 4 2 3 2 4 1 3 2 1 2 3
11 13 15 18 22 26 30 29 30 30 27 18 9 3 8 12 5 6 3 2 1 2 3 4 6 3 4 3 2 3 5 1 1 2 7 4 3 5 8 6 8 3 1 3 2 1 1
12 12 14 17 20 25 29 30 30 30 28 17 6 2 10 5 3 3 1 3 1 3 1 1 3 4 2 2 1 3 5 5 4 4 2 4 4 3 2 2 2 3 3 7 3 3 2
13 13 14 17 18 22 27 30 28 26 27 23 6 4 7 6 1 1 2 3 3 2 2 2 1 3 3 1 1 2 4 1 2 5 3 3 2 3 2 1 2 2 3 3 5 3 2
14 16 15 15 18 20 24 28 28 26 23 15 9 3 5 1 3 5 3 3 3 3 3 2 0 3 3 3 2 4 5 1 2 4 3 5 1 1 1 3 3 3 6 6 5 3 3
12 14 15 16 16 19 22 26 27 25 21 10 7 4 4 3 3 6 5 7 6 2 4 3 3 5 5 3 3 4 7 5 4 3 2 3 1 3 2 2 2 4 5 7 6 5 4
13 14 16 18 17 18 20 24 25 24 19 12 8 8 10 9 11 7 2 5 7 2 2 3 3 1 2 3 3 2 4 5 5 4 2 2 1 3 3 1 3 4 7 8 8 9 9
15 14 15 17 17 17 18 21 22 21 19 6 5 1 4 9 6 4 3 7 7 5 3 5 8 2 5 3 5 5 6 5 3 5 5 5 4 2 1 2 4 6 12 13 7 7 10
10 12 15 17 17 16 16 17 19 19 18 9 7 5 3 4 6 7 11 10 11 12 7 4 3 5 1 2 4 2 2 3 4 2 3 4 5 2 2 2 1 5 3 3 14 9 9
11 11 14 17 17 16 15 15 17 16 14 10 9 4 3 4 10 12 12 11 14 15 6 10 2 2 6 2 1 2 1 3 3 1 5 1 4 3 2 4 6 6 4 3 6 9 12
12 14 17 17 19 18 15 15 15 15 11 9 8 4 2 3 1 10 10 12 7 7 6 5 5 7 4 2 2 4 3 3 3 4 3 1 2 2 2 1 3 3 4 1 2 2 4
13 16 17 17 19 19 16 16 16 13 11 9 7 8 2 5 9 8 4 4 9 7 3 7 6 5 5 2 2 2 2 3 4 4 5 3 3 4 4 2 5 5 7 2 2 3 7
14 15 17 16 18 18 18 17 19 12 11 11 8 12 6 8 18 19 15 16 16 10 4 7 3 3 4 3 3 3 2 4 2 3 6 7 5 4 4 3 7 8 2 1 3 9 6
14 15 16 19 18 18 17 17 16 11 11 13 14 11 11 14 18 23 26 25 19 20 12 7 10 11 9 3 4 3 4 2 4 2 3 4 4 4 6 4 4 8 5 6 5 5 3

GFSGBSN_850_spd_069.txt.gz
Wind_Speed
19 21 21 24 24 25 24 23 23 22 25 27 30 31 28 25 22 14 11 8 4 5 5 3 2 2 3 5 16 3 9 11 23 27 28 21 25 18 6 7 11 8 2 21 19 9 3
19 21 22 24 24 25 24 23 23 23 25 28 29 31 28 24 19 10 9 6 5 4 2 2 2 2 4 4 0 7 7 2 21 25 30 26 19 18 13 8 9 12 18 13 5 7 1
19 22 23 26 24 25 24 24 24 25 25 27 29 30 28 25 17 8 5 5 5 4 1 2 2 1 4 10 5 4 4 5 10 20 27 26 20 24 13 2 14 9 13 7 4 8 2
18 22 24 26 25 26 25 24 23 24 24 25 28 30 28 26 11 5 5 7 5 4 1 1 1 1 5 8 7 11 7 7 6 14 24 26 21 9 8 4 5 5 5 4 4 10 4
18 22 25 27 28 26 27 23 24 24 25 25 27 27 29 24 17 9 7 8 6 6 4 1 2 2 7 6 6 7 10 8 5 10 23 29 19 9 8 6 3 4 4 6 4 13 5
18 21 26 28 29 27 29 27 24 24 23 24 24 23 24 26 19 13 9 10 11 12 9 7 2 1 3 8 8 4 8 9 6 11 16 18 10 4 4 6 13 8 4 4 7 8 7
18 20 25 27 29 28 30 29 25 24 23 22 21 20 18 18 16 11 6 3 3 3 1 2 5 5 9 11 1 9 8 8 5 8 7 12 5 15 15 10 2 9 8 5 7 7 7
17 20 23 26 28 30 29 31 28 24 23 20 17 15 11 14 14 14 6 7 7 4 5 3 4 2 1 3 3 7 8 9 7 9 8 7 10 6 8 10 9 4 3 8 3 7 14
16 18 22 25 27 30 30 31 31 25 24 21 16 12 10 6 11 11 13 8 5 3 3 3 4 4 3 6 3 6 11 2 1 5 12 3 5 12 10 9 9 4 7 4 5 2 2
16 18 22 25 26 30 30 29 30 26 24 23 16 12 8 6 2 8 7 6 5 6 2 7 6 2 1 5 2 9 15 2 4 9 7 3 1 9 7 8 4 4 6 10 11 5 4
14 16 20 24 26 29 31 28 30 28 24 23 17 11 8 6 2 4 7 8 5 3 4 13 4 4 5 1 5 6 9 3 8 6 4 2 5 6 5 4 3 6 6 7 3 6 3
13 16 19 24 26 29 31 29 30 30 25 23 12 10 8 3 2 5 7 5 2 5 6 7 7 4 4 7 3 5 3 4 10 9 9 4 4 4 2 3 3 8 3 8 4 3 1
12 15 18 22 25 28 31 30 29 30 26 21 9 9 9 8 3 7 3 3 4 6 2 7 3 5 7 4 5 3 3 4 4 5 3 5 3 3 3 3 5 4 6 2 1 0 5
11 13 16 20 24 27 31 31 29 30 28 19 9 9 12 13 10 3 4 3 9 2 4 5 4 5 1 3 4 3 5 3 5 5 4 4 2 2 0 1 4 9 3 5 6 4 4
10 12 15 18 22 27 30 32 32 29 29 18 12 6 12 13 8 6 2 7 4 4 4 5 5 3 2 2 6 3 2 2 2 2 5 4 3 1 4 2 7 5 5 4 3 2 3
9 11 13 18 21 25 29 32 31 28 28 19 10 4 10 12 6 3 4 5 2 5 4 4 3 1 2 3 3 4 2 5 2 5 3 4 5 2 3 1 3 3 4 2 2 2 4
8 10 12 16 19 23 27 32 32 30 26 19 7 5 12 12 4 6 3 3 3 4 1 2 4 2 2 1 1 3 2 0 6 5 8 5 3 3 3 4 6 4 3 3 0 4 4
6 9 11 14 18 23 27 31 31 32 28 20 5 2 12 13 5 3 2 4 0 3 4 3 3 3 3 2 3 3 4 1 5 2 6 2 4 3 2 8 8 4 4 3 3 4 1
6 8 12 15 16 20 24 28 27 27 27 23 8 5 8 11 3 3 4 3 3 2 2 3 2 3 2 1 2 3 4 1 2 2 3 3 2 3 2 4 2 5 6 7 1 2 4
7 9 11 14 17 20 22 26 27 25 22 13 7 4 6 5 6 3 4 4 2 3 2 2 2 2 3 1 1 3 2 2 1 2 2 1 3 5 6 4 4 5 5 6 5 3 2
7 9 11 14 16 17 20 23 26 24 20 10 7 2 3 4 4 6 4 3 5 4 3 3 3 5 4 3 3 4 2 1 2 3 1 3 3 2 1 3 3 4 4 7 6 5 6
6 7 9 13 15 16 18 21 24 24 19 12 5 6 6 6 13 6 4 3 3 4 1 5 2 8 5 0 1 3 5 5 5 4 3 2 3 3 3 3 3 4 7 8 8 6 6
4 5 8 13 13 16 18 19 21 24 21 8 6 1 2 5 6 4 3 8 10 9 5 4 3 4 4 2 1 1 2 2 6 7 4 4 4 3 3 3 1 6 13 14 6 6 12
6 5 6 10 12 13 17 17 19 19 19 14 12 7 4 4 2 1 7 9 7 12 9 11 11 2 2 3 2 0 1 3 3 3 6 5 5 3 3 1 1 6 4 7 18 10 8
6 5 6 9 10 12 14 14 16 17 14 12 12 6 2 3 5 9 10 5 15 14 9 13 14 6 2 2 1 2 1 1 4 1 3 3 4 2 3 3 6 2 4 5 7 9 11
10 9 7 10 10 11 12 14 15 15 12 8 8 9 3 5 3 9 8 10 4 4 4 8 7 6 5 1 2 4 4 5 4 3 0 2 3 4 2 2 5 3 2 2 3 3 2
10 11 8 8 10 11 12 14 15 15 12 8 6 5 6 5 12 7 2 4 7 4 2 6 7 4 9 2 3 3 4 5 5 5 4 2 2 4 4 3 6 5 4 5 2 3 3
8 10 10 8 10 11 11 14 15 14 10 11 7 10 10 8 22 25 21 18 16 8 2 4 7 3 3 4 4 4 4 5 3 4 6 7 6 4 4 4 7 8 4 4 3 7 7
13 13 13 12 10 12 13 15 13 11 7 8 14 13 13 20 23 35 37 37 28 21 15 6 5 2 5 3 3 2 3 2 5 3 3 3 6 4 7 5 5 11 3 7 10 8 5

GFSGBSN_850_spd_072.txt.gz
Wind_Speed
18 18 21 24 23 23 21 21 21 22 22 25 27 29 26 21 16 9 5 4 4 2 2 1 1 1 6 6 6 4 9 9 22 31 29 20 21 15 5 6 9 1 13 11 9 14 21
18 18 21 23 22 22 22 21 20 22 23 23 26 27 26 23 10 6 5 3 2 1 1 2 2 2 4 3 4 2 3 6 15 24 26 24 18 16 10 7 7 12 7 7 2 13 13
18 18 22 23 24 24 24 21 22 20 22 23 25 26 26 20 11 8 7 6 3 1 2 2 2 1 2 2 2 5 7 6 7 18 26 26 13 19 8 3 8 5 8 4 11 13 8
17 19 22 24 25 25 25 24 21 21 21 22 23 23 22 18 13 9 10 10 9 5 2 3 2 2 2 5 6 2 1 1 3 10 20 26 13 23 3 6 5 5 5 6 7 10 10
16 19 21 23 25 26 26 26 23 21 21 20 20 17 18 15 11 9 9 8 6 6 5 5 5 3 3 4 7 8 6 5 3 5 15 22 18 6 7 4 4 2 4 6 5 15 5
16 18 20 22 25 27 26 27 24 21 20 19 16 13 13 12 10 7 7 11 11 10 9 6 4 3 3 8 8 3 6 6 3 7 12 13 11 4 2 4 9 6 3 2 3 7 6
15 17 19 21 24 27 25 27 26 22 20 18 14 11 9 9 9 6 3 2 3 2 0 1 6 5 8 11 3 6 5 5 4 1 6 13 5 13 5 6 5 7 1 5 5 5 5
14 16 18 21 23 26 26 25 26 23 22 18 13 9 8 6 7 12 8 5 4 2 3 5 2 2 3 3 4 6 5 3 3 4 3 5 8 5 8 6 5 7 6 4 2 4 4
13 15 18 20 22 26 26 24 25 24 22 20 14 8 4 2 3 4 5 6 4 2 2 2 2 2 3 4 3 5 8 6 5 4 4 8 7 9 8 7 6 1 5 3 4 2 2
11 14 16 19 22 25 26 23 25 25 22 22 14 9 4 3 4 3 2 1 1 2 2 8 4 1 1 4 4 5 7 4 3 7 3 4 5 10 7 8 5 5 4 6 2 3 4
10 13 16 18 21 25 26 24 24 25 24 21 12 10 6 3 3 3 7 5 4 1 4 10 4 2 3 1 10 2 7 2 5 6 3 2 4 13 7 5 5 5 3 5 2 5 3
9 11 14 18 20 23 26 24 23 23 24 18 10 10 8 5 5 5 4 2 3 5 5 4 4 2 3 2 3 6 2 4 6 5 5 3 3 3 3 2 3 3 2 6 4 4 2
8 10 13 17 19 22 25 26 24 21 23 17 8 9 9 9 6 4 4 1 4 6 1 6 2 2 3 3 4 5 4 6 4 5 1 3 3 1 2 5 4 2 4 2 2 4 5
7 9 12 16 18 22 25 27 25 22 21 14 7 5 10 11 8 4 3 3 9 4 2 5 3 3 2 3 5 2 3 2 1 4 3 4 3 3 2 1 5 3 3 4 5 4 4
6 8 11 14 17 20 24 27 25 22 20 15 5 3 13 11 8 5 2 6 6 5 3 3 6 1 3 3 4 2 1 1 2 3 5 4 1 2 2 2 3 4 6 2 2 3 3
6 7 9 13 15 19 23 27 26 24 21 15 4 4 14 12 7 6 4 2 2 4 3 2 3 1 1 4 6 5 6 3 2 6 4 7 4 4 3 1 0 3 2 2 3 3 3
5 6 8 11 14 17 20 24 27 25 22 13 5 4 12 12 5 5 3 4 3 7 6 3 2 4 0 1 1 3 5 5 5 7 4 5 4 4 5 7 9 5 4 6 3 4 4
3 4 6 9 11 15 19 23 25 27 26 11 4 3 9 12 4 3 1 4 2 5 4 3 2 2 2 3 2 1 5 3 2 9 6 7 5 4 2 4 7 7 5 4 4 4 2
0 2 5 7 10 14 17 22 24 23 22 16 4 3 6 8 3 3 5 4 3 2 2 3 3 1 1 2 1 2 2 1 0 3 7 6 0 3 1 1 3 4 5 5 2 3 5
2 0 3 7 10 12 16 20 22 22 19 10 3 3 4 6 4 1 4 4 3 4 3 3 3 2 2 2 2 3 2 1 0 0 2 3 4 6 7 5 5 5 7 12 8 4 3
3 2 2 7 9 13 15 18 20 21 17 6 6 3 3 3 4 5 4 3 3 3 4 3 3 1 3 3 2 3 3 0 1 1 1 4 5 4 5 4 4 5 6 10 10 11 8
4 2 2 5 7 9 14 16 18 19 16 15 4 3 3 3 8 5 4 3 5 5 2 2 3 5 4 5 3 3 6 4 5 1 2 2 2 2 3 4 4 3 7 9 12 5 7
7 5 2 3 6 9 12 15 18 18 16 7 6 2 0 2 5 1 1 3 5 10 7 7 1 3 5 3 2 3 3 4 4 7 6 3 4 3 4 1 3 6 13 15 7 7 13
11 9 3 3 5 9 10 12 15 16 15 10 7 3 3 2 1 3 5 6 7 7 8 16 13 4 4 4 4 5 4 4 6 4 6 5 5 2 1 3 2 6 3 5 15 7 10
12 10 6 6 4 7 10 10 13 15 14 9 8 3 1 2 4 8 6 6 14 20 10 16 21 18 11 3 3 1 2 1 4 5 5 4 4 2 3 3 7 4 4 6 7 8 14
13 10 8 6 6 5 7 9 12 13 12 8 6 5 2 1 5 3 3 6 3 5 7 6 10 7 10 3 3 5 5 5 4 2 4 4 3 4 2 1 5 4 1 4 4 5 6
16 12 10 7 9 4 6 8 10 12 10 7 5 4 4 5 6 6 3 2 4 2 4 9 10 8 9 3 4 4 4 7 5 5 5 3 2 5 5 4 7 7 4 7 3 4 2
16 13 10 9 10 8 7 8 11 10 11 9 7 7 8 6 16 15 8 6 9 8 3 10 12 5 2 4 5 5 4 6 5 5 7 6 6 3 3 4 8 4 3 5 3 1 2
15 13 11 10 11 9 9 10 11 13 13 12 11 10 11 15 20 25 32 37 30 25 21 10 7 7 7 3 2 2 3 2 6 4 2 4 6 5 7 5 5 9 4 8 7 4 1

GFSGBSN_850_spd_075.txt.gz
Wind_Speed
16 18 20 17 20 18 20 17 18 17 19 21 23 25 25 20 13 9 8 3 3 2 2 1 2 1 6 5 3 3 5 9 15 18 20 12 16 10 4 5 6 1 7 15 10 4 9
16 18 20 19 19 20 21 19 17 17 17 20 21 22 21 16 12 10 10 5 3 3 2 3 3 3 3 2 1 8 8 3 15 25 22 17 13 13 9 6 8 8 4 16 20 16 11
15 17 19 19 20 20 22 21 18 17 17 18 18 19 18 12 10 10 10 7 4 1 2 2 3 3 3 4 2 8 6 6 17 19 24 21 9 11 6 5 9 2 5 6 15 17 6
14 16 18 20 20 20 21 21 18 16 17 16 14 14 13 10 8 8 7 6 5 2 2 3 5 2 1 7 8 1 2 2 9 12 21 22 8 15 2 7 7 4 3 5 9 14 6
13 15 17 19 21 21 20 20 19 17 17 15 11 10 10 9 6 7 7 5 4 3 3 4 6 4 2 4 7 4 6 1 5 8 16 19 14 8 2 5 3 4 5 6 7 16 7
13 14 16 18 21 23 20 20 20 18 18 15 11 7 7 7 4 3 4 5 6 6 5 4 8 3 6 8 6 4 4 6 9 9 12 13 8 4 2 3 12 4 2 4 5 9 9
12 13 15 18 21 23 21 20 21 20 18 17 12 6 3 4 5 3 2 2 0 2 6 5 10 4 9 6 4 4 5 6 8 4 2 2 3 13 6 4 4 6 2 4 2 4 5
11 12 14 17 20 22 22 19 20 21 19 19 13 8 3 2 2 5 5 3 5 3 2 7 4 4 5 4 3 5 5 3 4 3 4 1 7 6 8 7 5 6 6 2 2 2 3
11 11 13 16 18 21 22 19 19 20 19 18 13 9 5 5 3 1 3 3 4 3 1 3 4 4 3 4 3 3 4 4 6 4 2 4 7 11 7 4 5 3 4 3 2 2 2
10 11 12 15 17 20 22 21 20 19 20 16 11 9 6 4 3 3 1 0 1 2 2 6 1 1 1 3 4 5 5 3 4 2 6 1 8 11 8 5 4 3 2 2 2 2 3
9 10 11 14 16 19 22 22 20 18 19 15 8 9 8 4 2 2 4 3 5 1 5 7 2 2 2 2 10 3 6 4 5 6 2 3 9 11 8 5 6 5 1 6 4 1 2
9 9 10 13 16 18 21 23 21 19 18 13 5 8 7 6 3 2 1 2 3 5 3 3 3 1 3 3 2 4 2 7 7 4 2 3 4 3 3 3 2 2 5 6 4 3 2
8 8 9 12 15 17 20 22 20 19 17 12 4 6 8 8 4 3 0 1 4 6 1 4 2 0 0 3 4 1 1 3 4 2 2 3 2 1 2 5 4 3 6 2 1 1 5
7 7 8 10 13 16 20 22 20 19 17 11 1 5 8 7 5 1 1 4 9 3 3 4 2 2 2 2 2 5 6 3 4 4 2 3 4 4 0 2 5 3 6 4 5 4 4
7 6 6 9 11 14 19 22 22 20 20 9 5 9 10 9 5 3 1 6 5 5 3 4 5 3 2 1 3 1 1 4 5 5 4 4 1 2 1 1 2 4 3 4 5 3 3
6 4 5 7 10 14 17 21 22 22 21 6 5 3 14 11 5 3 4 2 1 4 2 1 2 2 2 3 1 2 3 4 3 6 2 5 4 2 4 1 1 1 4 2 2 1 4
7 4 4 6 9 12 15 20 23 23 21 4 6 3 11 10 6 2 3 4 4 4 5 2 2 3 3 4 5 5 6 2 5 6 3 5 3 3 4 6 7 4 4 2 1 4 5
8 5 4 5 8 10 14 18 22 23 20 3 3 3 8 8 3 2 1 4 2 3 3 3 2 3 3 1 3 6 7 3 8 11 6 4 3 4 5 1 4 6 7 7 4 5 2
9 6 3 3 6 8 11 16 20 21 20 8 3 1 5 6 2 3 5 4 3 3 3 1 2 2 1 3 2 4 4 4 8 7 6 5 1 3 1 3 4 7 9 8 2 1 6
10 7 3 2 5 5 8 12 16 17 16 7 2 2 1 3 3 1 4 4 3 4 4 4 3 2 1 2 3 3 3 4 6 7 8 14 4 5 6 3 4 5 10 17 12 4 3
12 8 5 3 5 4 8 11 15 14 12 6 4 2 1 2 3 4 3 3 3 3 4 2 2 3 1 2 2 3 3 1 4 7 6 5 5 4 5 6 5 5 7 16 21 18 8
14 10 7 4 4 4 8 10 13 12 10 9 4 4 2 3 4 3 2 1 3 4 3 3 4 5 2 5 5 4 5 3 5 2 6 1 2 3 3 4 6 5 7 10 17 15 14
16 12 9 5 3 4 8 10 11 11 11 7 7 4 2 2 2 1 2 1 4 9 9 11 7 6 4 7 7 5 6 6 4 7 6 6 5 3 4 3 2 6 15 14 7 9 11
18 14 11 8 5 3 7 10 12 13 12 11 8 5 3 3 1 3 0 3 6 5 5 16 21 5 6 7 10 8 6 9 7 7 7 6 6 3 2 2 2 7 3 7 16 16 13
21 16 13 12 8 3 4 7 10 11 10 10 8 4 1 3 4 6 3 5 13 15 7 12 21 17 20 15 3 3 1 2 5 7 7 4 5 3 3 3 7 6 2 5 6 6 15
21 16 16 14 9 5 2 4 6 8 9 8 6 6 4 2 3 5 4 4 3 4 6 7 16 15 6 3 4 6 5 5 4 2 2 3 2 4 3 2 5 4 3 4 3 5 4
22 17 16 14 8 5 4 5 4 6 7 8 7 6 5 4 3 4 4 2 5 3 3 9 11 10 6 4 4 4 5 6 5 7 5 3 2 7 5 3 7 7 6 6 2 5 7
24 19 17 14 9 4 5 6 6 8 7 6 8 7 6 5 17 7 8 9 10 4 2 10 12 1 4 3 2 3 3 6 4 5 7 6 7 4 3 4 8 5 4 5 4 3 6
21 20 19 13 8 8 7 5 6 7 8 11 11 10 9 12 18 27 28 23 27 29 17 6 10 7 4 3 5 3 3 2 6 4 1 3 6 5 7 6 4 5 7 4 8 4 3

GFSGBSN_850_spd_078.txt.gz
Wind_Speed
15 16 17 17 18 18 19 18 16 15 15 17 18 19 17 14 12 12 10 5 6 7 7 6 5 3 2 0 3 0 6 9 8 13 17 12 16 8 5 7 9 1 4 11 7 3 7
14 15 17 17 18 19 18 19 16 16 15 15 16 15 15 11 10 12 11 6 5 4 5 5 5 3 1 1 4 6 8 7 11 17 18 13 11 11 6 4 6 8 8 17 13 7 8
13 14 16 18 19 21 17 19 17 16 15 15 13 13 11 9 8 10 10 8 5 4 4 5 5 4 4 3 2 6 4 5 9 20 21 15 8 9 7 5 7 10 7 6 6 9 3
13 13 16 18 20 20 17 19 18 16 16 14 12 10 10 8 5 7 7 6 5 4 4 4 6 3 3 5 6 1 4 0 8 18 20 16 5 8 3 6 5 5 5 6 6 17 11
12 13 15 17 20 21 18 17 18 17 16 15 12 9 7 7 5 6 6 5 5 5 5 6 7 4 2 3 7 3 1 0 4 12 18 14 6 3 4 5 4 3 4 5 7 19 8
12 13 14 16 18 20 20 17 18 18 17 16 13 8 6 6 6 5 2 3 4 6 5 3 8 4 6 7 6 3 4 5 6 14 14 8 3 2 2 3 12 6 4 2 5 11 10
12 12 13 15 17 19 20 17 17 18 17 16 13 9 6 5 6 6 3 2 4 1 11 5 4 2 8 5 5 4 5 9 5 9 3 10 4 10 4 3 5 6 5 6 3 4 9
12 10 12 14 15 18 20 19 16 17 18 16 13 10 6 5 4 5 3 1 3 2 3 9 4 4 6 6 4 6 3 3 2 4 3 4 6 7 7 3 5 6 5 2 1 2 6
11 10 11 12 14 16 19 20 19 17 17 17 11 10 7 4 5 5 3 0 2 3 3 4 6 5 4 4 4 6 6 6 7 5 2 1 4 9 6 4 5 2 6 3 2 2 1
11 10 10 11 13 15 18 21 20 18 16 15 11 9 6 4 3 3 3 2 1 1 3 5 3 3 3 3 4 5 6 4 4 5 4 1 3 11 7 4 5 2 3 5 2 3 3
11 10 10 10 12 14 17 20 19 19 16 14 9 8 6 4 3 3 3 5 4 1 5 7 3 2 4 3 5 4 9 8 4 6 1 2 6 9 5 4 3 2 2 4 3 3 3
11 10 9 10 12 13 17 20 20 19 17 13 7 6 6 5 2 2 0 1 4 5 2 3 2 1 2 3 3 1 4 7 7 3 1 2 2 3 3 3 3 4 5 6 4 2 2
11 9 8 9 12 13 16 18 19 20 18 12 3 4 6 5 4 2 1 2 4 6 1 2 2 2 0 3 3 2 1 3 3 4 0 4 3 1 2 6 3 4 3 1 2 1 5
12 10 8 8 11 13 15 17 20 20 19 9 2 3 7 6 3 1 0 4 7 3 2 2 2 1 3 1 3 3 3 4 2 5 3 3 4 4 1 2 5 4 6 4 5 4 4
12 10 9 8 8 11 14 17 19 19 19 4 6 4 9 8 3 0 2 5 5 5 3 2 2 2 2 1 3 2 3 2 5 5 5 3 2 2 1 2 1 4 3 4 4 2 3
12 11 11 8 8 9 12 16 17 18 17 3 7 3 11 9 4 3 4 1 0 3 3 1 1 2 3 4 3 2 2 3 3 5 3 4 4 1 2 1 4 1 5 2 2 2 4
13 11 11 8 7 9 11 14 16 16 14 3 4 1 10 10 6 2 3 4 4 6 5 2 2 2 1 4 5 5 6 3 3 5 6 5 3 2 6 5 6 3 3 1 3 4 4
14 13 11 8 6 7 10 13 14 14 12 3 2 2 8 10 2 2 1 3 3 3 2 3 1 3 3 3 5 4 7 5 12 12 6 6 4 4 4 1 2 4 3 5 3 4 1
16 13 11 8 5 6 8 12 13 13 13 3 2 2 5 9 3 3 6 4 3 2 3 3 4 6 4 4 3 6 5 5 16 10 8 6 1 3 1 1 0 5 6 8 3 2 7
17 15 12 9 5 5 7 9 10 10 11 4 2 2 3 5 4 2 4 4 5 4 5 5 4 2 3 4 6 3 4 4 10 11 10 7 3 5 7 5 5 6 9 13 12 7 8
19 17 13 11 7 6 8 7 7 8 7 3 3 1 1 2 2 2 1 2 4 4 3 4 3 4 4 3 4 5 4 2 3 6 6 5 5 5 5 4 4 6 9 14 19 18 12
21 17 15 12 8 5 6 6 5 4 4 3 3 4 3 2 2 2 1 1 2 5 4 5 4 9 3 4 5 4 4 4 6 3 7 3 2 2 3 2 6 5 8 12 19 21 22
23 20 16 13 9 5 3 5 7 5 4 1 3 3 2 1 1 2 2 2 2 4 8 9 6 9 8 6 14 17 13 5 4 8 7 7 5 3 4 3 4 6 15 16 8 8 19
26 22 19 16 10 5 2 6 8 8 6 4 4 2 2 2 2 4 0 1 4 4 5 15 22 6 9 23 27 16 11 10 5 6 9 5 6 3 2 2 3 7 2 5 13 15 14
28 25 21 18 12 7 3 5 6 8 8 7 7 4 1 2 2 4 2 3 10 14 6 9 21 9 17 12 1 5 3 3 5 6 7 6 4 3 3 3 6 9 2 5 7 6 11
29 26 22 19 14 10 6 3 3 5 6 8 8 9 4 1 2 3 2 3 3 3 5 5 17 25 11 3 4 4 5 5 5 1 3 3 2 5 3 4 5 5 2 5 3 5 2
30 26 23 21 17 12 8 4 3 3 4 6 8 10 8 3 1 1 2 3 4 2 3 7 11 10 6 3 4 5 4 5 6 8 5 4 3 7 5 4 6 8 7 4 2 5 3
30 26 23 21 17 12 8 4 3 3 3 5 7 7 9 6 11 5 10 12 11 6 3 7 9 1 3 3 2 3 4 3 2 6 7 8 7 4 3 4 7 8 5 6 5 4 5
32 27 24 21 19 14 10 6 2 2 4 4 6 5 7 8 11 26 20 16 19 22 16 4 4 6 3 2 4 4 4 2 2 3 2 4 6 5 7 6 3 13 6 11 6 7 5

GFSGBSN_850_spd_081.txt.gz
Wind_Speed
15 16 18 17 20 17 16 17 17 15 15 14 14 14 15 12 11 13 10 7 7 7 7 8 7 4 6 2 3 1 8 14 1 12 12 15 17 9 5 6 8 3 7 8 11 11 10
15 16 17 19 19 18 16 17 17 15 15 14 12 13 12 13 10 11 11 9 6 5 6 7 6 6 5 3 5 4 7 4 5 14 12 14 14 11 6 8 7 9 7 13 10 8 5
15 16 16 18 19 19 17 16 16 15 14 14 13 11 10 10 9 10 10 8 7 5 4 6 5 6 9 5 4 3 4 2 7 19 15 13 15 7 6 6 7 15 5 3 1 3 3
14 16 16 17 18 19 18 16 17 17 15 14 12 11 8 8 8 9 9 8 7 5 4 5 6 4 4 6 8 3 6 0 5 17 15 13 14 6 2 6 4 6 6 4 2 7 2
14 14 15 16 18 18 18 16 17 18 16 15 13 10 7 8 7 7 6 6 7 7 3 6 5 4 2 4 8 3 6 4 5 12 11 13 5 3 3 5 2 3 5 6 3 5 2
14 14 14 15 17 17 19 18 17 17 17 18 15 11 8 6 6 7 4 3 3 10 6 2 7 3 10 8 5 4 6 7 5 8 10 7 3 3 2 2 11 5 5 5 7 9 5
14 13 13 14 15 16 17 18 17 17 17 18 16 13 9 5 5 6 4 3 3 2 14 5 4 2 5 6 7 4 5 10 2 10 4 2 2 9 4 3 3 6 5 5 2 7 8
15 13 12 13 15 15 18 19 18 17 16 17 16 13 10 5 4 4 3 1 4 2 4 7 5 4 7 6 4 7 6 5 1 8 4 3 5 5 5 4 6 5 7 3 1 2 13
16 13 12 12 14 15 17 19 19 17 16 17 15 12 10 6 4 3 2 1 1 3 3 4 6 5 4 6 4 5 5 5 8 8 6 1 5 12 4 4 7 2 5 4 4 2 2
16 14 11 12 13 14 15 19 19 18 17 16 13 10 9 6 3 2 2 1 1 1 3 5 3 3 3 3 3 7 3 3 4 6 3 2 2 11 6 3 4 3 3 5 5 3 3
15 14 11 12 12 13 14 17 18 18 16 15 10 8 8 6 3 3 3 1 3 2 5 6 1 2 3 4 2 3 6 5 6 7 1 3 6 7 6 6 3 3 3 5 3 3 2
15 13 12 12 11 12 13 16 17 18 17 13 7 6 8 7 5 4 2 3 3 5 2 2 3 1 0 2 1 1 2 5 7 5 3 2 1 2 2 3 2 7 5 6 3 2 2
15 13 12 12 11 11 12 14 16 18 18 10 2 6 8 8 5 3 1 1 4 6 2 3 1 3 3 3 1 1 1 2 4 4 1 2 2 2 2 5 3 2 4 2 1 1 4
14 13 13 12 11 11 11 12 15 17 16 4 4 6 9 8 5 2 1 3 8 3 3 2 2 3 1 5 1 2 3 1 1 4 3 2 2 4 1 2 5 3 4 4 6 4 3
15 13 12 11 11 11 10 12 14 15 12 4 6 5 13 9 3 1 1 5 5 5 3 1 2 3 3 2 1 4 4 4 6 6 4 3 2 1 2 2 1 4 4 3 4 1 1
16 14 13 11 11 10 9 11 13 14 8 5 5 2 11 9 3 1 3 3 2 4 3 2 3 5 3 3 3 5 5 4 5 7 3 5 3 1 2 3 3 1 5 2 1 2 4
17 15 13 12 10 10 8 9 11 12 5 4 5 1 8 8 4 1 3 4 4 5 6 4 2 3 3 4 5 4 4 3 4 5 5 5 4 3 5 5 7 3 3 1 2 3 3
18 16 14 13 10 9 8 7 9 9 3 4 2 2 5 6 2 2 1 2 2 2 2 3 2 3 3 2 5 4 5 4 12 13 7 5 3 5 4 2 1 2 5 5 3 4 0
19 17 16 13 11 9 7 6 7 6 2 5 2 2 2 3 3 3 5 3 2 1 2 2 3 5 2 3 2 5 3 3 15 9 8 7 3 4 3 1 1 5 6 6 3 3 6
21 18 17 14 12 10 7 5 6 4 4 2 2 1 1 3 5 4 1 2 4 3 2 3 4 2 1 4 5 4 3 3 12 8 10 10 3 5 7 4 5 5 7 10 9 5 6
22 20 19 16 14 11 8 4 4 3 2 0 1 1 1 2 0 3 2 0 2 3 2 3 2 4 4 4 3 5 5 2 4 8 5 7 4 4 5 4 4 5 7 13 15 17 11
23 22 20 17 16 12 8 3 3 4 1 1 2 3 1 2 2 2 3 4 2 3 2 3 3 5 3 4 2 3 4 1 6 4 8 2 2 2 4 4 6 4 7 9 18 20 20
25 25 21 19 16 12 9 3 1 1 2 3 3 3 2 1 1 1 2 2 2 1 7 8 2 3 7 8 6 14 16 19 11 5 7 7 5 3 3 0 1 4 14 18 10 8 18
28 27 24 21 17 14 9 4 2 3 3 2 3 3 3 2 2 2 1 1 3 3 4 13 20 4 4 15 20 14 12 21 11 9 8 5 5 2 2 1 4 6 2 8 15 16 15
31 30 26 22 19 15 10 5 3 4 4 4 5 2 2 1 1 0 1 3 7 10 5 8 11 7 18 14 3 4 2 4 8 7 7 6 3 3 3 3 5 8 2 5 7 8 12
34 30 26 24 21 16 11 7 4 3 4 4 7 7 3 6 3 3 2 2 1 2 5 5 14 14 4 4 3 3 3 2 4 3 3 4 5 3 3 4 5 5 2 5 3 5 2
35 31 30 26 22 17 13 9 6 4 4 4 6 8 4 3 4 6 3 2 2 2 3 6 9 7 7 2 3 3 3 4 4 5 5 5 3 8 4 4 6 7 6 8 2 4 3
37 34 31 27 22 18 16 11 8 5 4 4 6 7 9 1 5 5 5 8 6 5 2 7 6 3 4 1 2 3 2 2 1 3 4 8 7 3 4 3 8 10 7 7 5 2 5
40 34 31 26 23 20 18 12 9 7 6 5 5 4 9 3 3 11 9 10 12 16 10 3 2 1 2 1 2 2 2 3 5 2 3 2 4 4 7 6 2 16 5 15 6 6 4

GFSGBSN_850_spd_084.txt.gz
Wind_Speed
16 16 16 16 18 20 18 16 16 15 14 13 13 13 10 12 10 11 11 8 7 7 8 10 9 5 4 3 6 4 9 6 1 10 11 16 19 15 11 13 15 13 16 9 9 9 8
17 16 16 16 17 18 18 15 16 16 15 14 13 13 9 8 9 10 11 9 7 6 7 8 8 7 4 6 6 6 9 5 2 12 10 17 12 8 15 12 17 15 17 14 11 8 4
18 17 16 16 16 17 18 15 15 16 15 16 14 12 11 7 7 9 10 9 7 7 6 7 6 5 9 8 9 6 6 3 3 11 11 13 11 7 11 12 7 17 11 10 8 9 4
19 18 16 15 16 16 18 17 15 16 15 16 15 12 11 7 6 7 7 8 8 8 6 7 6 5 4 7 8 5 6 3 1 12 8 10 13 3 6 5 7 12 13 11 9 9 5
19 19 17 15 15 16 16 17 16 16 16 16 16 13 11 7 5 5 4 5 7 14 3 8 6 4 3 7 9 8 9 5 5 9 5 7 15 2 6 11 9 11 12 17 7 9 5
16 20 18 16 15 16 16 17 17 17 16 17 17 14 11 7 4 5 3 3 4 14 6 4 9 1 9 7 7 7 6 9 6 10 7 3 4 5 8 11 12 10 11 15 12 11 9
19 18 19 17 15 15 15 17 18 16 17 17 17 13 10 7 3 3 4 3 2 2 13 8 4 3 5 5 8 7 5 9 9 8 3 5 3 11 16 10 1 11 10 12 8 7 8
19 15 19 17 15 15 15 16 18 16 16 15 16 11 10 7 3 1 2 2 3 5 7 10 6 4 6 6 4 8 6 5 3 7 11 2 4 8 6 8 7 10 11 9 5 6 8
18 15 17 16 16 14 15 15 17 16 15 15 14 9 9 7 3 1 1 2 3 5 2 5 4 4 3 5 4 4 5 11 8 8 9 3 3 7 8 8 10 9 14 9 3 5 11
17 16 15 16 15 13 14 13 15 15 15 15 11 6 7 5 2 2 2 4 3 4 2 6 3 3 4 2 4 4 4 5 3 7 4 1 2 13 11 11 11 11 5 7 8 11 6
17 16 14 16 15 12 12 12 14 15 15 15 8 5 6 4 1 2 2 4 5 2 2 4 2 2 4 3 1 1 2 2 8 9 4 2 5 15 13 11 7 3 5 9 4 7 3
19 17 15 15 15 12 10 10 12 15 15 13 3 4 5 4 5 4 4 5 6 2 4 1 1 1 1 1 1 1 1 1 10 6 6 1 1 8 7 3 3 10 8 7 4 5 8
20 19 16 15 15 12 9 9 11 14 14 7 3 5 6 4 3 4 4 2 2 4 1 2 1 3 1 2 2 3 4 6 3 4 2 1 3 3 4 10 7 9 12 4 5 6 7
21 21 18 16 15 12 8 8 9 11 11 3 5 8 6 5 5 4 1 1 4 1 3 1 2 4 2 4 2 3 4 6 5 2 4 5 6 8 6 8 7 14 13 4 6 5 3
24 23 19 17 15 12 8 7 8 8 7 7 6 4 7 4 3 1 1 3 2 3 1 2 3 3 3 4 2 5 10 9 5 7 3 5 2 2 2 3 3 8 6 1 1 1 3
28 25 21 18 15 12 8 7 6 6 2 8 6 2 7 4 2 1 1 2 1 2 2 2 2 3 1 5 4 2 7 5 5 11 3 4 4 4 3 3 2 4 8 4 2 4 5
34 27 22 20 16 12 9 6 4 3 2 8 7 3 4 4 3 1 2 1 2 5 6 4 2 3 5 4 7 7 5 4 9 10 5 7 3 5 5 6 6 4 5 4 3 4 3
37 29 24 21 17 13 10 8 4 0 5 9 4 2 0 2 0 1 1 2 2 3 5 5 4 5 6 3 6 8 8 8 12 13 8 7 2 5 9 2 6 11 12 14 6 6 4
38 30 26 22 18 15 12 9 6 3 5 8 5 3 1 2 1 0 0 2 3 3 4 4 4 7 3 4 5 9 7 4 16 15 13 9 5 5 5 3 3 7 13 13 14 2 8
41 32 28 24 20 17 14 11 8 6 5 9 4 2 2 1 2 1 1 2 2 3 4 5 4 4 5 9 9 7 4 1 12 13 8 14 6 7 7 3 6 9 16 18 13 7 12
40 32 28 24 21 18 15 12 10 8 7 8 4 2 3 1 2 1 1 1 1 2 3 4 3 4 4 6 9 12 10 10 4 6 9 6 6 8 6 3 5 5 13 17 17 17 15
40 33 27 25 22 19 16 13 12 11 9 8 5 5 4 4 2 1 1 2 2 2 3 4 6 6 6 8 12 5 1 3 4 5 10 7 4 5 2 6 7 8 11 12 19 23 23
36 32 28 28 24 20 17 14 13 13 12 6 7 7 4 3 3 2 1 2 2 0 5 8 6 5 12 15 11 13 10 9 7 5 5 8 6 5 3 5 3 6 15 18 14 14 18
37 33 33 29 25 21 18 16 14 13 12 8 7 7 4 3 3 3 2 3 5 6 9 8 13 7 2 13 19 20 22 21 16 14 12 3 7 4 2 5 6 1 3 8 13 19 17
42 38 34 29 26 22 20 17 15 14 12 9 9 6 5 3 3 3 5 4 7 7 6 6 6 4 17 13 5 5 4 5 10 13 12 13 5 3 4 7 6 12 5 6 7 9 14
47 39 36 31 27 24 21 18 17 15 12 9 8 6 4 7 6 5 4 3 2 3 4 2 9 10 6 3 3 2 3 5 0 2 3 6 8 6 3 4 6 1 4 7 6 5 4
48 41 37 32 29 26 22 18 17 14 11 8 8 5 5 4 9 8 4 3 3 2 3 5 7 5 5 2 2 2 2 2 3 4 4 3 3 8 6 5 5 6 7 10 5 1 4
50 44 42 37 31 27 23 19 17 15 11 8 8 6 5 4 10 8 7 6 4 4 2 2 3 1 3 1 2 3 3 3 3 1 2 6 5 4 6 4 10 9 8 6 2 3 2
53 46 43 37 31 28 25 20 17 15 12 8 8 6 5 6 6 7 6 4 7 9 3 3 1 1 1 1 1 2 2 3 3 2 2 4 3 2 6 4 2 14 6 12 5 2 2

GFSGBSN_850_spd_087.txt.gz
Wind_Speed
18 19 20 19 19 20 21 19 17 17 16 14 13 13 13 9 12 11 12 11 10 9 9 10 9 7 6 2 8 14 11 9 6 7 6 11 15 15 16 19 21 16 8 13 5 6 14
19 18 19 20 19 19 20 19 18 18 16 15 14 13 13 9 9 10 11 10 10 10 9 8 8 7 5 7 6 9 9 4 5 6 8 9 9 12 13 15 17 14 23 17 8 8 9
20 19 18 20 19 18 19 21 19 18 17 15 16 13 12 9 7 8 8 9 9 10 8 8 6 4 8 7 7 6 7 3 4 6 10 12 3 8 7 7 14 10 13 11 16 20 7
21 20 19 19 20 19 18 19 21 20 17 16 15 14 12 9 6 6 6 6 8 15 6 7 5 4 5 7 5 7 5 1 1 6 7 16 8 7 6 7 12 14 12 9 17 14 7
24 22 19 19 19 19 18 18 20 21 17 16 16 15 12 9 4 5 5 4 8 14 3 7 5 3 6 7 8 8 6 3 9 9 9 16 9 6 5 12 10 11 14 19 14 16 9
27 21 22 20 19 18 18 17 19 21 18 16 15 14 11 8 3 4 4 3 4 14 7 5 5 2 10 8 8 8 2 5 9 12 11 5 5 6 9 13 13 13 17 20 15 11 13
29 23 22 20 19 16 17 16 17 19 17 17 14 11 10 7 2 3 4 4 2 3 14 9 6 6 5 8 5 6 7 7 13 10 4 4 4 9 14 14 6 14 16 15 14 8 11
29 24 22 20 20 16 16 15 16 17 17 16 13 9 8 5 1 0 1 1 0 4 6 8 6 6 6 7 6 7 4 3 9 8 12 1 7 6 12 10 5 9 12 8 5 7 8
28 25 22 21 21 16 14 15 15 15 16 15 12 6 5 4 3 2 1 3 4 5 1 4 4 6 4 10 5 6 5 3 8 6 7 3 2 3 7 9 10 9 12 12 7 11 11
26 26 22 22 21 17 13 14 13 14 15 15 9 4 3 3 3 1 1 6 5 5 1 6 3 3 3 3 3 3 2 2 0 5 7 2 7 7 10 13 11 10 8 5 6 5 9
31 29 23 23 20 17 13 13 13 13 14 13 5 2 2 3 1 1 3 7 6 2 1 3 3 1 2 2 4 3 1 1 8 6 4 3 7 14 12 11 9 2 9 5 5 9 8
38 34 26 25 20 18 13 12 12 12 12 10 1 1 2 4 3 3 5 9 5 2 3 1 1 1 3 1 3 4 2 1 3 6 3 1 8 9 7 6 4 6 7 8 6 8 6
40 39 28 25 21 18 14 12 12 11 9 3 3 2 3 5 1 5 8 2 1 2 1 1 1 3 2 2 3 7 6 7 5 4 3 2 5 3 4 9 7 9 12 5 5 5 8
41 41 28 25 22 20 15 12 10 9 7 5 5 4 3 4 6 8 3 2 3 1 3 2 2 5 5 7 3 9 7 9 13 8 4 6 3 10 12 11 7 13 14 5 9 9 10
39 44 32 27 22 21 16 13 9 8 5 10 7 5 4 2 3 5 3 3 2 1 2 3 3 4 5 5 4 7 13 14 12 13 7 7 6 5 5 5 3 13 10 9 4 1 4
38 41 33 29 24 22 17 14 10 8 6 13 8 4 0 1 4 3 1 1 1 1 2 4 5 4 4 8 5 6 9 11 17 13 11 6 2 8 4 5 8 5 5 5 3 4 8
43 44 38 31 26 23 19 16 11 9 9 15 9 3 2 1 4 2 2 1 2 5 5 4 5 6 7 6 10 6 6 5 15 12 15 5 1 6 5 10 17 9 5 7 3 10 4
45 45 40 34 28 24 21 18 13 10 15 18 7 3 4 3 3 2 1 2 1 5 6 7 6 10 10 7 8 9 10 9 10 13 10 9 4 4 10 7 13 15 17 14 8 7 7
46 39 47 35 30 26 23 20 16 13 19 19 7 4 3 4 2 2 3 2 4 5 6 3 5 8 5 8 7 10 13 12 9 11 9 11 5 4 5 4 7 8 12 16 16 10 7
45 45 49 38 32 29 25 22 18 16 21 16 6 3 2 3 3 3 1 3 3 4 8 8 10 10 10 12 13 9 10 5 5 14 17 8 8 11 9 3 9 11 17 19 15 6 12
44 44 43 42 34 31 27 24 20 18 20 17 6 2 5 3 4 3 2 1 4 3 6 4 6 8 9 10 12 16 15 16 11 8 7 3 6 10 12 6 6 7 14 20 18 17 13
43 43 45 44 35 32 28 26 23 21 23 16 7 5 4 3 3 4 3 5 4 3 3 5 8 11 8 12 14 18 9 6 5 4 2 5 3 6 5 7 9 8 8 14 19 18 20
42 40 51 42 37 35 31 28 24 24 25 9 11 10 5 4 3 3 2 2 1 0 2 5 6 8 13 13 11 17 16 14 7 1 5 4 3 5 2 7 4 6 18 17 17 19 17
52 43 48 42 41 37 32 30 26 27 26 13 14 11 5 3 6 4 4 4 5 7 8 5 10 8 5 13 20 20 22 22 21 14 12 4 8 4 2 6 5 1 3 17 19 18 18
53 47 50 45 41 36 32 29 26 26 26 18 14 10 6 3 6 5 7 5 4 6 6 7 5 4 13 13 4 7 3 2 10 18 15 12 4 3 4 9 7 7 6 6 8 9 13
54 49 47 43 39 35 32 28 26 26 25 20 17 13 6 5 5 3 4 4 3 2 3 3 3 5 4 3 2 3 3 4 2 5 4 12 9 4 3 4 4 5 5 3 3 8 5
52 53 48 44 39 37 32 29 27 27 25 21 18 14 8 5 4 5 2 1 2 0 1 0 3 0 1 1 2 2 3 2 3 4 3 3 5 9 9 6 5 3 9 6 3 2 4
57 54 49 45 42 36 33 31 30 28 25 23 19 15 11 5 6 7 5 3 2 3 1 3 2 3 2 2 1 2 3 3 4 3 1 5 4 4 7 3 8 12 9 5 3 3 1
58 54 49 47 41 36 34 31 28 26 24 18 17 14 11 7 6 9 8 7 4 4 4 2 2 1 2 2 2 3 3 3 3 2 1 3 3 2 5 2 5 11 6 6 10 6 3

GFSGBSN_850_spd_090.txt.gz
Wind_Speed
22 21 20 20 19 19 21 23 24 21 19 18 16 16 15 14 10 11 12 13 13 13 11 10 10 10 11 7 8 14 15 3 10 7 5 8 10 10 10 11 12 9 7 12 8 10 11
25 21 20 21 20 19 19 21 23 23 21 19 18 16 14 14 10 10 10 11 11 14 10 9 7 7 8 9 10 10 9 7 3 6 8 6 4 2 5 17 16 16 12 16 9 5 7
31 24 22 20 21 19 19 19 22 23 23 20 17 17 14 13 8 8 8 9 11 15 8 9 6 9 9 7 9 10 7 6 8 2 4 5 5 4 11 4 20 19 12 12 13 21 4
28 29 25 22 21 20 19 18 20 22 23 20 17 16 14 12 7 6 6 8 12 13 7 8 9 10 3 10 10 12 10 6 4 6 5 5 3 6 5 3 4 13 11 3 6 6 4
30 31 30 25 22 22 19 18 18 20 22 21 17 15 13 11 6 4 5 4 15 15 7 10 9 4 4 8 10 10 7 5 8 7 6 4 2 6 4 1 3 6 4 9 5 13 4
32 30 27 25 23 22 20 18 16 18 20 20 17 13 10 10 4 2 4 3 7 17 9 6 8 3 10 10 9 10 9 6 8 10 6 7 10 5 1 4 8 10 14 13 11 11 10
30 29 25 27 23 21 19 19 16 16 18 18 16 12 9 8 3 1 4 5 4 3 14 7 6 5 7 8 7 6 8 7 8 10 4 5 2 5 8 11 5 7 9 11 14 14 12
32 29 29 30 24 22 20 18 16 14 16 17 15 10 8 6 2 2 4 3 3 3 3 6 4 5 5 6 6 8 9 1 7 7 9 4 4 8 9 9 8 3 9 11 11 10 12
36 30 28 21 25 23 20 18 16 13 13 15 15 8 6 4 1 3 2 5 7 4 3 2 3 4 1 7 5 6 4 3 5 5 4 4 0 8 8 7 7 7 11 6 5 7 4
38 34 28 23 26 24 19 18 15 13 12 13 12 4 4 1 2 2 1 5 7 3 2 5 1 2 2 2 3 0 3 4 2 5 5 4 5 6 5 7 7 6 2 7 5 3 3
38 37 31 25 29 25 20 19 15 13 10 12 9 3 1 1 3 1 5 6 7 3 1 4 2 3 3 2 6 2 1 1 4 5 2 1 4 5 8 7 6 2 6 7 3 5 6
40 36 34 29 32 28 21 19 15 13 9 9 5 2 2 3 2 4 5 10 7 1 1 2 2 1 4 2 4 4 3 2 4 5 2 1 7 4 5 9 2 5 1 3 3 1 1
30 37 36 36 32 30 22 19 16 12 9 7 6 3 3 8 4 7 14 6 1 2 1 3 2 1 4 2 4 7 8 6 4 4 4 1 3 2 2 2 2 6 5 2 1 2 5
43 37 36 39 30 29 23 19 16 12 9 4 8 4 5 5 6 13 8 2 3 1 4 4 1 5 4 4 4 7 5 9 12 8 4 5 4 8 9 5 4 6 6 3 4 3 4
39 33 37 37 29 28 25 20 17 13 8 10 11 6 3 5 8 11 4 3 2 3 5 3 2 5 4 6 3 4 11 12 11 14 5 6 5 4 2 6 2 6 5 4 2 6 1
37 36 40 36 31 31 27 22 18 14 10 15 12 6 5 4 10 6 0 1 3 3 3 2 4 6 6 7 4 5 5 7 16 15 10 2 3 6 4 2 4 2 2 2 1 2 3
32 40 42 37 32 32 28 24 21 16 12 20 13 4 4 6 7 5 2 1 2 6 5 4 5 5 7 7 9 4 5 9 8 9 12 7 5 3 5 7 7 5 2 4 1 4 2
35 39 42 37 31 34 31 27 23 19 18 24 10 2 8 10 4 4 2 3 1 4 7 5 5 8 9 10 10 8 8 9 4 14 8 6 3 5 8 5 8 8 9 6 3 4 3
37 38 38 39 32 35 34 30 27 24 23 29 9 6 8 9 2 2 3 3 4 5 6 4 5 6 5 6 5 7 6 5 3 3 4 7 5 1 5 2 5 7 9 13 7 5 4
33 22 32 41 41 39 37 34 30 26 25 26 8 3 4 8 6 2 4 5 3 9 6 6 7 8 8 10 10 8 9 9 13 7 15 4 3 7 12 5 5 5 12 15 10 5 6
31 23 29 42 39 44 39 36 32 28 30 26 9 3 7 4 6 4 2 1 4 4 6 3 4 10 6 4 9 13 13 12 9 18 5 6 4 6 13 7 5 3 9 16 18 14 10
30 30 22 45 42 47 41 38 34 30 33 29 6 5 6 4 9 5 5 6 4 2 2 4 6 6 5 6 9 12 9 7 4 6 6 6 1 4 10 3 3 4 11 12 19 18 17
25 30 30 49 44 48 43 41 37 35 36 15 16 11 8 7 5 4 3 2 2 3 1 2 3 5 8 5 9 14 14 14 3 2 4 2 4 6 1 7 4 4 13 15 11 14 15
24 17 25 46 47 53 45 42 38 35 35 18 17 13 5 3 3 4 3 3 1 3 4 3 7 4 5 11 16 16 20 18 16 10 11 1 2 1 3 7 4 4 3 19 16 13 14
24 21 31 42 47 50 46 42 37 33 32 27 16 9 6 3 6 3 5 3 3 3 3 2 3 2 10 8 3 5 1 2 4 11 12 8 1 3 3 4 2 2 2 5 8 8 9
28 35 26 56 46 50 46 40 36 32 33 33 15 11 5 9 1 7 6 5 2 2 4 4 1 5 3 2 1 2 2 3 2 1 6 12 7 4 3 2 1 3 1 3 5 3 4
18 30 40 58 52 50 42 38 34 32 31 32 18 16 7 7 5 6 3 4 4 3 1 4 1 1 1 1 1 2 3 3 3 3 3 3 3 7 5 3 5 6 7 5 1 2 5
23 22 44 51 50 44 41 37 32 29 30 30 22 19 11 7 8 4 5 5 5 2 0 4 2 2 2 1 1 1 2 4 3 2 2 5 4 4 4 3 3 8 4 2 1 3 2
21 13 45 51 46 43 38 33 33 34 32 29 23 21 14 7 8 10 9 6 8 8 5 3 2 3 5 1 1 1 2 1 5 3 2 2 2 3 3 1 4 8 6 7 10 5 4

GFSGBSN_850_spd_093.txt.gz
Wind_Speed
22 24 26 21 22 22 22 22 23 23 23 23 19 17 16 14 12 10 11 11 12 15 11 9 8 10 11 8 11 17 18 8 9 2 6 2 7 3 6 7 8 1 4 8 12 10 7
27 26 24 25 23 24 22 22 22 23 22 22 20 17 16 14 10 9 9 9 11 14 11 9 5 11 11 6 12 14 15 8 7 4 7 4 3 6 9 12 11 11 4 5 8 12 12
31 28 26 26 24 21 24 22 21 22 22 22 19 17 16 13 8 7 7 10 12 11 11 9 8 7 7 10 13 13 9 9 9 7 6 11 5 10 2 8 15 15 10 4 7 4 7
31 31 27 27 24 24 22 22 21 21 21 21 19 17 15 12 8 4 4 11 14 10 11 9 10 8 2 13 14 6 12 11 8 4 7 5 2 2 4 4 7 6 3 4 3 9 2
30 31 31 30 27 25 22 21 19 20 21 19 18 15 14 12 7 2 1 6 16 12 9 8 9 9 5 11 13 9 14 8 10 9 5 3 7 6 7 5 5 2 5 4 6 4 6
30 32 32 31 33 28 21 20 19 18 19 18 17 16 13 10 5 1 0 2 6 19 7 2 9 1 13 11 11 7 12 5 8 5 7 5 7 4 4 4 4 7 6 6 6 3 6
33 32 31 33 33 30 26 18 19 17 18 17 16 15 11 8 3 1 1 2 2 4 15 8 5 3 5 8 9 9 11 6 9 10 5 6 5 1 4 4 3 5 9 5 12 12 10
40 37 33 32 34 31 29 19 19 15 17 17 14 13 8 6 1 2 3 3 4 6 4 6 4 8 8 7 3 6 6 0 4 4 2 4 1 2 7 7 6 2 6 6 1 15 5
39 40 38 33 34 34 33 20 19 15 15 16 13 11 5 3 2 3 4 5 7 4 2 2 4 2 3 7 4 6 8 3 3 5 4 3 2 9 7 6 4 2 4 4 5 4 3
40 42 40 35 36 35 31 22 19 16 13 15 13 7 3 1 2 2 3 8 8 2 4 4 2 2 3 2 4 3 5 3 2 3 5 1 3 4 6 1 3 2 2 7 9 6 4
40 42 43 36 34 34 35 23 19 17 13 13 12 6 4 4 4 2 2 8 8 1 4 4 1 0 1 1 1 1 4 4 2 2 4 3 4 3 2 3 1 1 3 6 4 3 3
38 39 40 41 32 34 36 26 22 17 13 12 10 7 6 4 3 3 5 11 7 5 2 2 2 2 3 4 3 0 2 3 5 1 3 2 4 3 3 3 4 5 3 4 4 3 1
38 40 40 30 27 37 33 29 21 17 14 11 9 8 8 7 3 5 15 7 4 5 1 3 3 4 3 5 5 5 3 3 2 2 5 5 4 5 1 2 5 2 4 1 3 1 5
40 41 46 36 33 30 34 35 22 18 14 10 10 10 9 6 5 15 8 3 6 4 5 3 3 5 3 6 5 7 3 6 8 4 3 5 5 7 5 5 5 5 6 4 5 4 4
43 43 42 41 29 29 42 33 19 20 14 11 14 12 10 7 12 15 4 2 7 6 6 3 4 3 3 5 5 5 9 7 7 11 5 5 5 2 4 3 6 5 3 3 4 3 3
45 44 43 44 29 31 43 35 24 22 17 15 18 10 7 10 14 10 2 4 4 5 4 2 5 7 4 4 5 6 4 5 5 13 15 4 3 4 4 3 3 2 1 2 2 3 3
42 43 41 45 27 29 40 38 27 25 19 19 18 7 7 12 15 4 3 5 3 7 7 5 4 4 3 3 7 4 4 6 3 4 6 6 4 1 3 7 9 3 1 1 3 4 4
41 39 39 39 24 28 41 39 31 29 24 27 16 3 10 16 4 4 2 4 2 7 9 2 2 3 3 4 4 2 5 7 5 6 6 3 3 4 7 3 2 3 5 4 4 4 4
39 36 42 39 29 29 51 41 35 34 30 34 14 6 10 13 3 3 3 2 4 4 5 5 4 6 2 0 3 3 2 10 15 4 2 4 3 3 3 1 4 5 5 4 2 2 4
33 32 34 28 23 27 48 40 39 35 28 29 11 3 5 11 8 3 4 4 3 6 2 3 2 2 2 3 4 4 5 5 10 7 11 7 2 1 3 2 3 4 10 12 8 3 2
26 26 29 23 27 30 53 47 41 36 32 33 11 6 8 5 6 5 4 2 4 4 4 3 2 3 1 2 5 4 5 4 5 10 5 3 3 5 8 11 6 3 6 13 13 9 9
25 23 23 22 21 32 50 45 40 36 36 35 10 6 7 4 11 6 4 4 6 3 4 1 2 3 4 1 1 3 3 1 3 5 4 3 1 5 5 10 8 8 12 13 17 16 14
21 23 21 22 23 42 48 41 40 40 42 24 18 10 7 7 4 5 5 4 5 7 4 5 4 3 3 2 6 10 10 10 6 4 1 1 2 2 4 1 8 4 13 14 11 15 15
21 19 22 16 21 42 51 46 43 42 43 24 22 12 5 2 3 5 6 3 5 4 4 3 4 3 1 9 15 13 13 16 10 6 6 3 2 0 4 2 0 5 2 16 18 13 16
19 19 21 16 21 41 47 43 43 43 44 33 22 10 4 3 5 5 8 5 9 5 2 3 2 1 7 5 3 4 3 4 1 4 6 4 1 2 1 2 6 4 3 3 7 8 5
21 21 20 18 20 32 40 46 46 43 44 43 16 10 5 11 3 5 5 6 4 4 2 3 2 2 3 1 3 2 1 1 2 3 4 5 1 1 3 1 2 3 3 3 4 3 5
17 17 12 18 9 40 44 52 46 44 41 37 23 12 3 8 5 7 3 5 6 4 3 4 3 2 2 2 2 1 2 2 0 2 4 3 3 5 5 3 5 4 3 0 2 3 3
19 17 15 21 29 44 40 48 45 43 38 32 36 12 6 6 9 5 6 6 8 6 4 6 4 1 2 2 3 2 1 2 2 2 4 6 4 3 3 2 5 9 4 2 3 3 2
18 15 13 11 26 41 48 47 44 41 35 30 26 21 10 4 9 11 12 9 5 9 12 6 4 3 4 3 1 2 1 2 0 2 5 0 1 1 3 3 2 18 17 15 11 4 3

GFSGBSN_850_spd_096.txt.gz
Wind_Speed
27 27 27 28 32 26 21 21 21 22 20 21 21 18 17 14 12 9 9 11 10 9 9 9 8 11 10 7 9 17 16 11 7 7 4 3 7 6 3 6 11 5 3 11 12 18 15
27 27 27 28 28 31 27 20 22 21 20 19 21 19 16 13 11 7 7 10 6 7 9 9 6 8 14 6 14 15 12 7 6 7 6 6 7 8 6 7 13 7 10 14 15 14 11
27 27 27 28 30 28 32 25 19 21 20 17 19 20 16 12 10 4 5 7 5 8 8 9 9 9 6 9 17 13 8 5 11 10 10 10 3 8 7 4 14 15 4 9 11 9 6
34 30 26 27 29 28 30 31 18 19 18 16 18 19 16 11 8 1 4 8 4 7 8 8 8 8 5 16 11 11 8 10 10 13 14 8 3 7 1 15 5 6 6 4 2 6 4
33 33 30 30 26 28 31 31 26 18 17 16 16 18 15 10 6 1 4 5 8 4 6 8 7 6 6 11 9 12 8 9 10 11 7 4 1 2 5 6 5 2 3 4 3 3 2
34 31 34 33 32 27 30 30 30 18 17 16 14 17 15 9 4 3 4 6 7 11 4 2 8 2 12 12 5 9 6 8 6 5 4 3 2 2 4 4 5 6 4 2 4 4 4
30 35 34 31 34 32 33 31 29 21 17 16 13 15 14 7 3 3 4 4 3 1 11 9 8 4 4 9 3 10 5 6 7 7 5 7 5 2 1 1 2 6 9 8 5 11 8
32 38 41 38 35 32 33 33 29 25 17 16 14 13 12 7 4 4 5 4 4 5 4 5 6 6 5 7 5 8 8 4 7 4 3 6 1 4 6 4 2 2 6 5 3 8 4
32 33 35 44 42 37 32 34 29 28 18 16 14 11 10 6 5 6 6 6 6 3 3 1 1 1 2 4 3 6 9 5 4 3 3 5 2 5 4 4 2 3 5 5 3 7 2
30 33 26 31 41 41 32 33 32 26 19 15 13 11 8 7 4 6 7 9 6 1 4 4 1 1 1 1 2 2 6 3 2 2 1 1 2 3 4 2 2 1 2 7 9 8 4
32 32 34 28 36 38 33 30 37 22 21 15 14 10 9 9 5 7 4 11 8 1 3 3 2 2 1 1 1 1 2 2 2 2 4 2 2 4 1 2 3 2 2 4 4 4 4
35 34 33 33 32 35 31 26 32 25 25 16 14 10 11 9 7 6 8 11 8 5 4 1 3 3 2 2 2 1 1 2 2 1 2 1 2 3 3 3 3 3 5 7 6 3 1
37 36 36 34 31 36 34 27 27 28 25 17 14 11 11 8 5 7 13 12 4 4 2 3 4 4 4 5 3 3 2 1 2 3 2 4 3 2 4 1 3 2 3 3 2 3 3
37 37 37 34 30 36 35 30 22 33 25 19 14 14 13 9 8 13 17 4 3 4 6 3 4 3 3 5 5 5 2 3 6 4 2 3 5 8 6 6 6 5 8 3 5 3 4
39 38 37 36 35 34 32 31 17 32 25 19 16 19 12 10 12 18 6 2 7 6 6 7 3 3 2 4 3 4 5 4 6 10 6 4 5 2 3 3 7 4 3 4 4 3 3
37 38 39 37 34 35 33 33 20 39 25 23 24 17 11 11 15 13 3 6 3 4 4 3 6 5 5 4 5 6 5 4 4 10 9 3 3 3 4 3 1 3 5 3 2 5 4
35 35 37 37 35 33 31 30 17 41 31 27 24 10 13 14 16 5 3 6 4 5 5 4 5 3 4 3 6 3 4 3 4 2 9 4 2 1 2 6 8 3 2 2 3 4 4
32 33 35 36 36 31 31 36 21 49 34 34 19 3 17 19 5 4 3 5 3 5 4 1 2 2 3 1 2 3 5 4 7 2 4 3 3 6 10 0 3 4 6 7 4 5 2
29 31 37 34 34 32 31 37 22 48 42 40 15 7 15 21 4 4 4 2 4 4 4 4 4 5 3 3 1 4 1 4 9 3 2 4 3 3 2 3 2 5 5 4 5 3 6
27 35 36 33 30 28 33 20 39 47 45 35 11 4 6 14 8 3 4 4 4 6 4 4 3 3 3 4 4 3 1 4 4 5 5 7 3 4 1 3 3 4 6 9 7 4 4
28 34 35 28 23 28 32 25 42 47 47 33 12 5 11 6 8 6 4 7 5 5 4 7 2 2 3 1 2 2 2 4 5 10 4 1 4 2 8 10 7 5 6 11 11 8 8
30 34 24 23 26 22 16 23 47 50 48 29 11 6 8 8 7 10 5 7 7 4 5 3 5 4 3 4 6 4 2 2 1 4 2 3 2 1 5 3 10 14 10 7 11 10 15
27 24 22 19 22 26 13 25 51 44 54 24 10 12 9 5 4 6 5 6 7 9 5 5 8 4 3 3 4 5 7 4 3 3 1 1 1 2 4 5 5 8 15 14 9 9 14
22 20 20 18 19 9 6 26 51 52 56 26 20 15 8 3 2 5 6 3 5 3 6 4 6 4 4 2 6 5 5 7 5 5 4 2 1 0 3 2 3 4 4 12 14 10 13
18 18 19 18 19 6 10 34 50 53 54 20 27 10 7 3 4 4 8 6 11 7 4 4 2 3 1 1 3 3 3 3 3 2 5 3 2 2 1 2 5 3 1 4 6 5 7
19 21 22 12 12 9 9 28 47 49 51 26 31 17 3 8 1 5 5 6 4 3 3 3 3 1 3 2 2 3 2 3 1 2 4 3 1 1 2 3 3 1 8 8 3 3 5
21 21 20 14 10 7 16 30 49 53 51 28 23 17 6 8 5 4 3 5 7 5 4 3 3 2 2 2 2 2 1 1 2 2 4 2 2 3 3 3 5 7 13 9 1 4 11
23 21 19 16 9 11 25 34 49 51 53 33 18 14 8 7 8 3 5 6 8 6 4 8 4 1 2 2 3 2 2 2 1 2 4 5 4 3 3 2 5 16 6 4 9 20 11
25 23 18 15 8 14 30 40 42 49 46 36 28 15 6 7 10 13 13 10 7 8 10 9 3 3 4 3 1 2 1 1 3 2 3 2 3 1 5 3 3 3 2 11 17 14 19

GFSGBSN_850_spd_099.txt.gz
Wind_Speed
25 25 24 24 24 26 27 26 28 27 22 22 21 20 19 18 16 11 6 7 7 6 5 4 7 13 12 9 10 19 13 7 5 3 4 5 14 7 5 7 2 11 15 6 8 16 25
29 29 25 24 24 23 26 27 28 28 24 20 21 20 18 16 14 9 4 6 4 3 3 5 7 7 14 7 16 14 10 5 3 5 10 7 7 8 4 9 10 9 12 16 10 17 19
26 28 27 27 24 25 24 27 26 28 25 21 19 19 17 15 13 7 2 4 1 1 1 4 6 7 7 10 11 13 8 4 1 3 6 5 7 8 4 12 14 6 5 8 18 13 8
30 34 29 28 28 26 24 25 26 25 26 22 19 18 17 14 11 6 1 4 0 2 1 3 5 3 2 8 9 10 9 8 4 4 6 7 2 5 4 18 9 4 5 4 12 12 8
25 29 35 37 33 31 28 24 28 26 25 23 19 17 15 13 10 7 6 4 2 4 2 1 3 1 4 3 9 9 10 10 6 3 4 4 3 3 3 5 3 1 4 6 7 10 6
30 29 28 31 38 38 33 29 25 32 26 24 19 17 14 12 8 7 7 7 6 4 5 4 2 2 4 2 6 8 7 10 6 5 5 2 1 3 3 3 3 4 5 5 6 2 5
27 27 27 30 30 31 30 32 26 27 33 24 19 17 13 11 8 7 7 6 5 3 5 3 3 3 2 4 3 8 5 5 6 5 4 7 6 4 3 4 2 5 6 10 8 8 3
29 29 30 30 26 28 27 32 31 27 33 28 21 16 12 9 8 7 7 5 5 3 1 1 2 2 3 2 1 7 7 3 6 2 6 6 3 2 5 3 3 5 6 3 6 14 5
31 29 29 30 31 28 29 29 29 30 30 25 22 16 12 8 7 8 8 6 5 2 1 3 3 1 1 1 1 4 6 3 3 4 4 3 4 5 5 3 3 2 2 1 4 10 2
32 33 32 30 31 29 29 31 22 23 27 22 23 15 12 8 7 10 9 9 6 1 4 3 3 1 1 1 1 1 3 2 2 2 0 0 4 2 2 2 1 1 3 5 8 7 3
34 34 34 32 31 32 28 32 28 18 17 31 19 15 12 13 5 9 6 11 7 2 3 2 3 2 2 2 1 1 0 1 2 0 4 4 1 1 2 2 1 3 4 5 6 4 5
38 36 35 34 34 32 30 31 28 26 21 27 22 15 13 17 11 9 8 11 6 5 5 2 3 3 2 2 1 1 2 1 1 1 2 3 3 3 3 2 1 1 5 7 5 3 2
39 39 38 36 34 31 30 30 29 30 23 20 24 14 15 14 10 12 13 14 4 3 3 3 5 4 3 4 2 3 2 2 4 3 3 5 3 3 3 1 3 3 5 2 1 3 4
41 41 42 37 36 31 29 28 25 29 21 17 17 15 18 15 10 14 22 4 2 3 5 2 3 4 4 5 3 1 1 2 4 3 3 3 5 6 4 5 5 4 6 4 6 3 2
42 40 40 39 35 30 26 26 24 23 20 19 15 15 19 15 13 21 11 2 6 5 5 8 3 3 2 3 3 3 4 4 5 9 6 4 5 2 2 1 4 4 3 6 3 1 3
40 38 40 35 32 31 24 25 22 19 18 19 19 22 16 15 18 19 3 5 4 3 3 3 3 4 5 3 4 4 3 3 3 9 5 3 3 2 3 3 1 4 6 4 0 4 4
40 39 39 29 30 30 26 24 20 14 15 24 22 9 12 17 21 9 3 6 4 4 4 4 6 4 4 4 6 4 4 1 2 3 5 3 1 3 0 5 7 3 2 2 4 2 4
40 41 28 27 25 25 29 23 20 15 19 28 18 3 22 25 6 4 3 5 4 4 2 2 3 2 4 4 3 3 4 1 9 1 4 3 3 4 8 3 1 2 2 4 3 4 1
35 33 27 17 24 28 27 26 22 21 20 34 12 5 24 27 4 3 4 3 4 3 3 2 3 3 3 4 2 4 4 3 11 4 2 1 1 2 7 2 1 3 4 7 3 2 5
28 24 17 21 27 28 30 26 23 24 21 40 12 4 7 17 4 2 4 4 3 3 3 4 3 3 3 1 2 1 3 4 4 6 8 2 3 5 5 1 2 6 3 10 11 3 5
19 17 17 25 26 25 19 26 25 27 39 37 12 6 11 6 10 7 4 6 5 5 2 6 2 3 5 4 1 2 2 3 4 7 5 2 6 6 9 9 8 9 8 9 12 11 8
16 15 22 25 27 31 23 22 32 31 50 37 9 6 9 6 15 13 4 6 8 4 5 3 4 4 4 5 5 6 4 3 1 5 3 3 2 2 5 7 7 12 9 10 12 6 13
22 20 27 24 19 16 13 24 23 27 58 25 15 10 9 7 5 9 5 5 8 10 4 2 7 5 2 1 4 6 4 5 4 4 1 2 3 2 4 4 2 3 8 11 9 10 7
22 22 22 22 20 15 21 9 30 38 59 30 15 13 5 3 4 6 6 3 5 1 7 3 7 4 4 5 4 6 5 2 1 2 2 2 1 1 3 4 2 5 0 7 12 5 11
21 21 22 22 22 20 17 10 35 36 53 34 18 9 4 3 3 6 8 6 12 9 5 5 3 5 6 4 3 3 3 3 3 5 2 3 2 2 2 3 5 1 5 3 4 1 1
22 20 22 21 20 16 7 3 29 17 51 27 16 10 2 8 1 8 6 5 4 3 3 3 6 6 5 2 2 3 3 2 2 1 4 1 1 1 2 2 2 1 7 15 2 0 9
23 21 22 21 17 12 7 13 20 26 52 35 11 15 2 8 2 8 4 5 6 5 4 4 6 4 2 2 2 2 2 3 3 5 4 2 2 2 2 3 6 4 11 12 2 3 21
23 23 21 21 16 11 7 17 20 32 56 22 18 17 7 8 7 6 7 7 5 5 4 8 5 1 2 3 3 3 2 3 1 3 5 6 5 3 3 2 6 8 5 3 4 9 15
25 24 21 20 14 13 8 13 36 52 54 19 21 17 8 8 12 18 16 11 7 5 7 10 2 4 6 4 1 2 1 1 2 2 1 3 4 2 6 4 0 3 5 4 6 9 18

GFSGBSN_850_spd_102.txt.gz
Wind_Speed
25 25 25 24 25 25 24 23 31 28 25 27 24 22 22 19 17 14 12 11 10 9 7 7 7 8 9 3 7 12 12 8 10 3 7 12 4 3 4 5 8 4 5 18 19 17 9
25 29 30 29 27 28 28 25 25 31 26 25 25 23 20 19 17 13 9 10 8 7 5 7 7 8 6 2 8 12 10 9 7 4 7 6 1 7 10 5 5 7 15 22 19 11 17
20 21 25 27 32 33 32 30 26 26 33 24 24 21 20 19 17 12 8 8 7 6 6 8 10 9 6 2 7 10 10 9 6 6 1 3 1 5 14 3 14 4 5 14 10 14 7
23 25 25 26 27 27 32 34 32 25 27 30 24 21 18 19 16 11 7 6 7 7 7 9 9 8 6 3 5 7 7 7 6 4 5 5 4 6 6 21 8 5 5 6 12 17 6
23 25 25 25 28 29 29 27 24 27 26 28 26 25 16 19 17 12 8 5 5 7 6 6 8 7 8 3 4 6 8 7 3 3 4 5 2 4 6 6 6 4 2 3 9 13 6
25 25 25 26 26 29 27 27 28 24 22 25 31 26 17 14 16 12 8 11 5 7 8 12 10 7 5 4 7 6 6 6 2 3 3 3 3 3 3 5 3 5 2 5 5 7 10
27 27 26 26 26 28 29 29 28 29 21 20 27 28 19 12 14 12 8 7 7 5 3 4 4 6 9 6 7 6 7 2 2 4 4 7 6 4 4 1 2 2 4 4 4 5 7
28 28 27 27 27 27 29 29 28 32 24 17 19 29 19 8 14 11 8 7 6 2 3 6 5 7 6 7 5 7 9 3 4 3 3 6 3 1 5 4 2 3 5 4 8 13 7
28 29 28 28 27 28 27 29 30 31 24 19 18 24 21 9 14 12 9 9 5 2 1 5 5 6 4 4 4 7 9 5 4 3 4 5 3 3 1 1 3 1 4 4 4 8 1
33 32 30 29 31 28 29 29 30 30 23 17 23 25 17 7 11 10 11 9 5 2 4 4 3 2 2 2 3 4 6 5 4 3 2 2 1 1 0 2 2 1 3 2 7 4 0
36 35 34 32 30 30 29 30 30 29 24 16 18 23 18 11 6 8 5 10 6 2 3 2 3 2 1 1 3 3 4 4 2 4 5 2 2 1 2 2 2 2 2 5 4 3 2
38 37 36 36 33 31 32 32 31 28 24 19 20 21 17 9 17 6 4 10 6 5 6 2 3 1 1 0 0 2 3 3 2 3 4 3 2 3 2 2 2 4 5 7 5 2 2
37 38 36 35 35 33 30 30 33 27 25 22 22 23 18 8 10 8 10 10 3 3 3 3 4 4 2 2 1 1 1 3 1 4 4 7 3 2 2 1 2 3 4 1 0 2 3
37 37 36 37 36 31 28 27 29 26 25 16 19 23 13 11 10 12 16 1 2 3 5 2 3 4 4 5 2 2 1 2 3 2 2 1 7 2 1 4 4 3 6 4 5 3 2
40 39 38 40 33 29 28 24 23 24 18 19 15 16 14 14 11 16 9 2 5 5 5 8 3 3 3 2 1 2 3 3 5 7 5 3 5 2 2 2 1 2 2 3 6 2 2
40 40 41 36 38 30 28 21 20 21 12 10 14 12 11 16 15 19 2 4 4 3 4 2 3 3 5 4 4 3 2 2 2 7 1 2 3 1 5 2 2 3 5 3 2 3 4
41 42 41 40 34 32 20 19 18 18 9 10 17 7 13 17 19 11 3 5 5 6 4 3 4 4 3 5 6 4 3 1 3 1 6 3 2 5 3 4 6 2 2 1 3 3 4
41 39 38 28 26 21 17 16 17 16 6 13 11 2 21 25 8 4 3 4 4 3 2 2 4 3 6 6 4 4 4 1 9 1 3 3 3 4 7 2 1 2 3 4 3 3 2
38 33 27 18 13 7 11 16 18 16 11 15 11 4 22 31 4 4 3 4 4 3 3 3 2 2 2 5 2 4 4 2 10 4 2 3 2 3 9 0 3 3 4 7 1 2 5
30 26 20 15 11 11 14 19 20 16 18 18 10 3 7 19 3 2 3 4 3 2 3 4 3 3 3 1 2 3 2 4 4 5 7 2 3 5 5 5 2 3 3 6 7 2 3
25 24 19 17 17 20 23 24 23 19 21 19 9 3 7 5 9 5 2 3 4 4 1 3 2 3 5 3 1 3 2 1 6 7 5 3 1 1 9 10 8 6 8 6 6 4 4
26 24 21 21 28 30 23 12 19 23 27 24 9 5 7 5 8 12 4 4 7 2 4 2 3 4 4 5 4 5 4 1 2 5 3 4 1 2 4 7 9 10 8 11 13 8 10
28 24 24 20 24 24 19 10 8 17 29 21 14 9 9 6 5 9 5 4 7 8 2 2 6 5 4 3 7 8 9 8 5 4 2 3 1 3 4 5 2 3 6 8 3 4 4
27 25 25 19 24 23 13 17 28 26 29 17 26 13 6 3 7 9 4 5 4 1 6 3 7 4 6 13 15 11 12 9 8 5 3 3 2 1 3 5 1 5 5 2 6 5 4
26 26 25 20 20 22 28 30 25 30 43 42 31 20 7 3 6 3 6 5 10 10 5 4 4 7 14 8 3 3 3 3 4 5 1 2 2 2 2 2 5 3 5 4 2 3 7
26 26 24 23 20 22 24 22 2 27 48 43 32 20 6 6 3 3 5 4 4 3 3 3 7 8 5 2 2 3 3 3 2 2 3 1 1 2 2 1 2 1 6 5 4 2 10
27 24 23 24 21 19 19 15 20 24 46 42 31 13 4 7 3 6 3 5 7 5 3 4 5 3 2 2 2 2 2 4 4 5 4 2 1 3 1 2 6 4 12 7 2 2 12
27 23 22 23 20 17 17 9 27 27 38 39 20 10 3 7 7 4 4 4 6 6 4 8 5 1 2 2 3 3 2 3 2 4 5 6 5 3 3 2 5 5 4 2 0 2 6
28 25 22 22 19 15 15 5 23 24 35 40 11 8 8 6 11 14 15 10 7 6 8 11 2 4 7 4 1 2 1 2 3 2 1 2 5 3 7 5 3 2 2 5 0 5 8

GFSGBSN_850_spd_105.txt.gz
Wind_Speed
21 22 22 23 27 30 31 31 28 27 24 22 33 27 24 21 20 22 18 14 13 9 8 7 10 13 14 6 5 11 13 13 9 8 2 4 4 1 4 5 5 1 4 9 19 20 18
24 22 23 24 24 23 25 27 27 28 25 22 24 30 29 19 16 21 18 12 13 9 7 8 10 14 10 4 6 9 13 12 9 7 4 5 3 5 9 5 2 5 9 16 17 24 30
23 22 22 23 24 24 24 26 26 19 22 21 22 26 31 22 15 16 19 12 12 8 7 7 11 14 12 7 5 9 11 10 8 5 3 3 2 1 10 5 13 9 3 11 10 21 10
24 24 24 24 24 24 26 27 26 26 19 16 16 21 27 26 14 16 14 12 11 8 7 8 11 12 7 4 5 7 7 6 4 5 4 4 3 5 1 14 6 5 6 5 5 17 16
25 25 26 24 24 26 26 26 27 26 27 17 15 14 26 28 19 15 14 11 9 8 7 7 9 7 7 4 4 6 9 6 4 4 5 5 2 5 8 3 3 1 3 3 8 11 13
28 28 27 28 27 26 25 26 28 28 28 23 13 14 17 28 24 16 14 9 11 13 10 9 11 6 3 4 4 5 6 7 4 4 4 3 2 1 2 1 4 7 6 5 4 3 13
30 30 28 27 26 27 27 28 27 27 27 26 12 17 20 24 21 14 12 9 4 7 9 7 4 6 6 6 5 3 7 7 5 2 1 3 3 3 3 2 3 4 9 4 3 5 8
28 29 29 29 30 30 28 27 27 28 24 24 16 19 20 22 21 12 9 4 1 7 8 11 8 8 6 5 2 1 5 1 3 1 5 5 2 2 4 3 3 3 7 3 1 8 8
28 28 29 31 31 30 29 28 29 31 24 23 17 22 14 18 15 12 7 8 5 6 5 4 8 5 4 3 2 1 5 1 2 2 3 3 1 3 1 2 4 1 4 5 5 7 0
29 30 31 31 31 32 32 28 28 33 26 25 18 15 10 11 6 7 7 4 3 2 3 3 3 1 3 2 2 1 4 2 1 1 1 1 4 2 2 0 3 2 1 4 8 8 1
30 31 31 32 33 33 33 29 27 30 29 29 19 10 19 17 5 1 3 5 4 2 3 0 2 3 2 2 1 2 3 1 2 2 4 2 3 2 1 2 1 3 2 6 4 2 3
35 31 32 32 32 33 32 30 27 27 27 30 20 13 11 15 11 6 3 8 3 4 6 0 2 2 2 1 1 2 1 2 1 3 3 2 2 2 2 2 2 4 5 6 4 2 1
33 34 33 33 34 34 31 31 25 24 24 30 25 10 12 21 10 11 9 8 3 3 3 2 3 2 2 2 2 2 2 3 2 4 5 5 1 4 2 2 2 1 3 1 2 2 3
34 35 36 35 34 33 33 25 23 20 21 25 22 16 20 17 12 15 15 3 3 3 4 2 2 2 2 4 2 2 2 4 2 3 3 3 5 1 2 2 2 4 3 4 5 4 2
34 36 38 38 37 34 29 28 21 14 19 14 4 18 21 18 16 19 12 2 3 4 2 5 3 2 2 0 2 2 1 1 2 5 3 2 4 1 3 2 3 1 4 2 5 2 1
35 37 39 37 35 32 26 21 17 11 16 8 9 8 8 19 17 20 3 3 3 3 2 1 1 2 4 2 1 2 0 0 3 4 1 2 3 0 3 1 2 3 1 2 2 4 3
36 35 35 33 27 25 25 15 7 8 10 5 7 3 6 19 22 14 2 3 4 8 4 3 4 2 2 3 4 2 1 2 4 3 4 3 1 5 2 1 3 1 2 1 1 2 3
33 33 30 28 23 20 16 1 7 7 2 4 6 2 16 22 5 4 3 3 3 4 4 1 2 2 5 4 3 3 3 1 8 3 2 2 2 4 6 2 2 3 1 2 3 4 1
30 30 24 24 20 17 11 5 2 5 4 3 4 2 19 23 3 3 3 2 3 2 3 2 2 1 1 4 2 2 3 2 10 4 2 3 2 3 9 3 3 3 1 3 6 3 4
28 26 22 22 20 17 12 8 8 8 6 8 3 2 5 15 1 4 4 4 2 4 2 2 2 2 3 2 4 4 2 4 4 5 6 1 2 5 6 5 2 4 3 1 2 3 3
27 26 24 20 20 22 23 16 16 10 8 9 4 3 5 4 3 4 3 1 2 3 0 3 1 2 4 3 2 2 1 2 5 7 5 4 2 2 4 6 4 11 13 8 1 2 3
26 25 24 19 21 17 24 9 3 7 14 16 4 3 4 4 10 5 2 2 4 2 3 3 2 3 2 3 3 6 4 1 1 5 3 5 1 2 4 4 5 5 9 8 8 7 10
26 24 22 20 21 16 20 14 9 8 18 12 22 9 4 8 5 6 4 4 2 5 2 3 3 4 4 3 8 10 10 9 5 4 2 2 2 3 4 6 4 3 4 3 2 2 3
26 23 23 21 17 16 16 16 5 10 12 25 24 6 5 2 5 5 2 8 3 1 4 3 4 4 7 18 18 15 17 15 13 7 3 3 3 1 3 5 4 4 2 1 6 5 9
27 24 23 21 18 18 18 17 18 26 24 26 28 13 4 2 6 4 4 4 9 7 4 4 5 7 22 6 3 3 3 4 5 5 3 2 3 2 1 2 4 2 3 3 2 1 6
27 24 21 22 18 15 17 21 25 28 28 40 34 28 7 4 2 2 5 7 4 3 3 3 9 16 7 2 2 3 3 3 3 2 2 2 3 3 2 1 2 2 2 2 3 1 5
25 25 21 20 19 14 14 19 19 7 24 40 35 29 14 2 2 4 3 5 6 4 4 4 6 4 4 2 2 2 2 4 3 5 4 1 1 3 0 2 6 5 7 0 1 1 3
22 25 21 20 19 13 10 12 9 11 29 37 28 27 16 2 3 3 4 5 6 5 4 8 5 2 2 2 3 3 3 4 2 4 5 6 5 3 3 1 5 2 3 0 1 1 4
18 24 22 20 19 14 8 9 3 17 30 31 25 23 13 4 7 11 10 7 6 6 6 14 1 4 8 4 1 3 2 1 3 2 1 2 5 4 7 5 3 2 3 3 2 2 5

GFSGBSN_850_spd_108.txt.gz
Wind_Speed
22 22 22 22 20 22 23 24 24 22 18 24 21 19 20 23 24 20 16 13 11 10 9 7 7 11 14 6 8 9 11 12 9 9 4 3 5 5 8 7 8 5 6 3 7 11 19
22 23 23 23 23 23 22 23 24 23 23 21 16 16 17 19 21 19 17 13 10 8 9 8 7 10 11 6 7 9 11 9 6 4 3 4 3 3 2 4 9 8 8 8 15 20 17
22 22 22 23 24 24 23 23 24 25 24 23 16 12 13 24 20 20 20 12 10 7 7 9 7 9 14 11 7 8 10 6 4 3 4 2 2 3 3 4 4 8 7 4 10 10 8
23 24 24 23 23 24 22 24 24 25 24 23 20 13 15 15 21 20 20 13 9 7 7 10 7 7 8 6 7 8 10 6 3 4 4 4 2 2 3 3 4 5 4 4 3 11 7
26 27 27 26 26 26 26 24 23 25 23 24 21 12 14 12 19 18 19 13 9 7 5 9 7 4 9 5 7 7 9 8 8 5 5 3 1 1 6 5 4 6 4 6 5 5 4
26 26 27 28 26 24 24 25 23 28 22 23 22 15 13 18 16 18 17 10 8 10 10 11 8 6 7 3 7 7 9 9 5 7 4 4 3 2 3 5 2 6 6 7 9 4 3
26 27 26 25 27 28 27 25 25 28 27 25 25 21 12 18 17 16 13 6 3 2 11 8 5 4 7 5 5 4 8 7 6 1 3 1 4 4 5 6 8 4 6 8 2 6 1
29 29 27 27 26 27 27 26 26 26 26 25 26 19 19 15 10 14 11 6 5 3 6 8 11 10 7 3 2 5 7 3 2 2 3 4 4 2 6 6 3 3 5 5 2 0 4
29 29 27 27 27 27 27 27 27 25 25 23 25 15 14 12 9 12 7 5 4 3 4 1 8 5 4 5 2 3 4 2 2 2 2 5 1 5 6 3 2 1 2 4 1 3 7
28 30 29 28 28 28 28 28 27 23 25 23 25 19 10 13 11 5 1 5 4 2 1 3 4 2 4 4 1 2 2 2 3 2 2 4 3 3 5 5 5 2 2 4 6 7 2
31 30 30 32 32 31 31 29 29 26 24 22 23 20 14 9 8 3 3 7 6 2 1 3 3 4 3 2 3 2 2 2 2 1 2 1 2 2 5 4 5 3 3 3 6 2 3
33 31 32 33 35 33 33 31 27 27 22 20 22 19 14 13 16 7 8 9 4 2 2 2 2 3 3 1 2 0 3 1 0 1 3 4 2 3 4 5 2 2 4 5 4 3 4
32 32 33 35 35 35 34 32 28 23 20 20 21 20 14 12 19 12 13 11 2 1 0 2 2 3 2 2 1 1 0 2 2 2 2 2 3 3 2 5 3 6 6 3 4 3 3
32 33 36 34 36 35 34 32 26 23 19 18 19 22 14 16 18 17 16 3 3 1 3 1 2 4 3 5 1 1 2 1 0 1 1 3 1 2 2 2 3 8 4 3 5 4 2
31 31 34 35 33 34 32 32 20 18 14 12 13 2 11 14 16 18 9 2 3 3 1 3 3 4 4 3 1 2 0 1 1 3 3 3 1 2 3 4 2 1 6 3 1 1 3
30 31 30 32 31 30 31 24 13 10 4 10 8 5 7 17 16 16 3 2 3 4 2 2 1 2 3 4 4 3 1 2 2 2 3 1 4 1 2 2 2 3 2 2 3 5 5
27 28 28 27 26 26 25 19 12 5 8 5 6 3 3 20 16 7 2 3 2 3 5 3 0 2 1 2 3 2 2 2 4 2 2 0 2 1 3 2 5 1 3 3 2 4 2
26 26 24 24 22 24 21 17 6 8 6 5 2 2 2 12 3 2 2 3 2 2 4 2 1 0 2 4 3 2 2 3 7 2 1 2 2 3 5 3 4 1 3 5 4 3 0
26 24 25 25 21 20 20 13 8 7 5 6 3 3 8 17 2 3 1 2 2 1 3 1 1 1 1 3 1 1 2 2 7 3 2 2 1 3 1 3 6 4 4 2 4 3 4
25 21 22 21 17 20 20 25 9 3 3 3 4 1 4 12 5 2 4 4 2 1 2 2 2 2 2 2 2 3 3 3 3 4 6 0 2 2 5 4 3 5 5 4 4 2 5
25 20 21 19 18 17 18 17 7 4 4 3 2 1 1 3 3 3 4 3 1 3 2 1 1 2 2 2 2 2 2 2 4 5 3 2 1 2 6 6 8 9 9 7 5 6 3
26 19 18 18 17 14 16 13 5 9 9 8 1 3 2 1 7 3 1 1 1 2 1 1 2 3 1 1 2 2 3 1 2 3 3 3 1 0 2 5 4 4 6 8 10 10 10
30 18 16 16 15 12 13 14 2 7 11 5 5 9 9 3 4 3 2 2 2 2 3 5 1 3 3 4 7 9 9 9 4 1 2 2 2 2 3 7 2 2 4 2 0 0 4
31 19 15 14 13 11 9 9 5 7 13 8 2 5 3 0 4 6 2 5 0 1 3 5 4 1 5 19 15 13 15 13 10 9 5 3 2 0 2 4 1 2 4 2 5 4 2
29 18 15 13 13 10 9 7 3 10 8 9 9 9 4 2 8 5 5 3 7 6 4 4 5 4 20 2 2 3 2 1 4 6 4 2 0 1 2 2 3 3 2 2 2 3 1
25 18 13 12 13 12 10 9 11 12 22 24 26 20 14 8 1 2 3 6 3 3 3 4 7 20 3 1 1 2 2 1 3 1 2 1 2 2 1 1 1 4 2 2 3 4 2
22 18 15 13 12 13 11 10 11 16 19 26 31 28 18 5 1 4 3 2 4 4 3 5 6 4 2 1 2 3 1 0 3 4 5 2 2 3 3 3 4 4 1 5 3 4 5
23 18 16 13 12 13 11 8 6 7 2 27 31 29 20 5 1 4 3 2 3 4 3 8 5 3 3 4 2 2 3 3 3 2 4 5 6 3 3 3 2 6 4 4 3 2 2
23 19 16 14 11 12 11 5 1 10 15 16 31 29 18 8 1 4 4 4 5 6 5 14 1 4 6 3 2 2 3 2 2 2 4 4 3 2 5 1 3 4 2 3 2 2 1

GFSGBSN_850_spd_111.txt.gz
Wind_Speed
22 21 22 23 24 26 26 25 24 24 24 23 23 19 16 17 17 18 19 18 15 12 8 9 9 9 9 7 10 5 9 10 7 5 6 5 9 12 12 12 12 16 7 4 4 6 3
23 23 24 25 24 25 28 27 26 24 24 24 23 21 14 17 19 17 18 18 16 11 9 9 9 9 8 9 3 4 8 7 4 5 4 6 6 10 14 9 11 6 7 7 5 7 4
24 26 25 26 26 23 23 26 27 28 29 24 24 23 12 15 14 20 16 17 14 11 9 9 8 9 12 15 4 5 6 7 6 3 6 8 8 5 6 2 6 5 8 8 5 2 5
23 23 24 25 28 27 26 25 21 24 28 27 25 24 19 13 11 18 17 15 13 9 9 8 8 5 10 9 7 6 5 7 5 6 6 7 8 10 8 3 5 8 12 10 12 6 4
24 25 26 27 26 27 28 28 28 25 26 26 26 26 25 17 16 15 18 15 12 10 8 5 7 5 10 6 5 5 4 5 9 6 8 8 7 5 4 4 6 11 8 12 8 9 6
24 27 29 29 27 28 28 29 29 28 25 27 26 26 25 20 18 18 16 12 9 10 10 6 6 5 9 1 4 6 4 7 4 4 6 8 5 5 4 5 3 9 16 12 17 7 3
27 28 30 30 27 27 28 28 29 27 26 25 25 26 21 19 20 20 15 4 2 3 12 10 3 4 4 5 5 3 3 6 7 6 9 7 6 8 4 8 13 11 12 13 2 5 5
30 28 28 30 29 29 29 28 29 28 26 25 22 25 20 17 13 7 12 5 7 3 7 13 12 10 7 4 2 3 3 3 6 9 5 5 9 5 7 12 10 9 9 6 3 1 4
30 29 29 29 29 30 30 30 29 29 26 24 22 23 20 16 16 12 10 8 7 4 4 2 7 6 4 4 2 1 4 3 8 10 10 10 7 7 7 12 9 5 10 3 9 3 8
28 29 30 29 32 34 32 32 30 28 27 23 23 20 19 14 13 9 6 6 6 3 2 5 4 4 3 2 3 2 2 2 3 7 6 9 5 6 9 11 8 14 4 7 5 7 3
29 32 31 33 34 34 36 35 33 30 26 25 23 17 15 11 11 14 4 4 5 2 3 3 4 4 4 3 1 3 1 2 8 7 4 3 7 8 10 8 7 6 9 9 9 9 8
29 33 33 33 33 36 36 36 33 31 27 23 18 14 12 9 14 14 7 8 2 2 3 3 4 5 5 3 2 2 1 2 4 7 7 10 6 5 8 11 9 11 10 7 6 4 4
32 32 33 33 35 35 36 38 36 29 22 19 17 10 13 11 10 10 7 4 3 3 3 4 3 4 4 5 4 2 2 4 4 4 1 5 3 4 5 9 8 9 9 3 3 3 2
33 31 29 32 35 33 35 35 35 18 15 15 8 13 16 17 16 9 11 4 5 3 2 2 3 6 2 6 2 4 3 2 3 6 5 5 0 6 8 6 7 10 9 5 4 2 1
38 34 28 29 32 29 33 33 31 20 18 12 14 11 5 6 7 14 7 4 4 2 2 4 5 3 4 4 1 3 1 3 5 6 6 5 2 3 4 8 6 4 4 8 6 3 3
36 33 27 27 31 27 28 26 22 23 19 15 11 10 6 7 16 15 3 3 2 2 1 1 4 2 2 4 2 1 1 4 3 5 5 5 5 2 5 7 1 4 1 2 1 3 4
32 35 24 27 27 25 25 24 19 17 15 12 6 4 4 9 12 5 1 3 3 3 2 4 4 2 3 2 1 2 4 3 5 5 4 6 2 3 6 6 9 4 3 4 1 4 3
30 33 22 25 24 24 25 22 24 16 13 11 6 2 5 12 3 2 0 3 4 3 1 2 2 4 4 2 2 2 2 5 7 5 6 6 5 5 9 6 5 6 5 4 3 4 2
27 30 23 22 21 23 24 25 23 9 11 9 5 4 4 6 2 2 2 3 3 3 0 2 3 3 2 2 1 2 2 3 7 4 5 7 1 4 4 3 8 4 5 6 1 2 3
25 28 28 19 21 21 22 25 21 4 5 7 5 2 5 0 7 2 1 2 2 2 1 3 3 1 0 1 2 2 3 2 3 3 5 3 1 2 5 6 4 7 8 7 5 2 6
24 27 29 17 18 18 19 21 12 2 4 6 6 4 5 1 2 3 3 3 2 2 2 2 2 2 4 1 0 1 1 3 3 1 1 1 0 3 5 5 5 8 8 8 1 5 2
22 25 28 15 15 16 16 19 9 4 4 5 4 5 9 6 3 3 2 4 4 2 6 4 2 4 2 3 5 4 1 2 3 2 2 3 1 1 1 5 4 1 4 5 6 8 8
19 25 27 15 11 12 12 13 7 2 1 4 3 4 3 5 2 2 3 4 6 3 4 6 4 1 4 5 7 7 7 7 4 2 2 1 2 2 3 4 2 2 2 0 2 2 3
17 24 25 18 9 10 9 9 8 6 9 4 4 2 4 3 1 3 2 4 4 5 2 4 6 3 4 9 8 8 8 8 7 6 4 3 1 1 2 3 1 3 1 1 1 0 4
17 22 23 17 8 8 9 7 6 5 5 5 4 1 0 3 6 2 4 1 2 3 2 4 5 3 10 1 2 2 3 3 3 4 3 2 2 1 3 3 1 4 4 3 3 5 4
17 20 21 17 10 10 10 10 9 11 12 12 10 6 0 6 4 2 2 4 2 1 3 3 6 10 2 2 2 2 2 2 1 1 2 1 1 2 2 2 2 5 5 1 2 7 9
19 19 22 17 12 11 12 12 12 14 14 20 24 20 5 4 2 1 3 1 1 1 2 4 5 3 1 1 2 2 1 1 2 2 3 2 2 4 3 3 3 5 5 5 3 3 8
21 19 21 18 14 12 12 12 12 13 12 22 29 25 19 7 5 5 6 3 3 3 2 6 4 3 3 2 1 1 2 1 2 1 3 4 4 3 2 3 3 11 7 4 4 2 4
23 21 19 18 14 14 13 12 11 7 8 20 26 22 23 4 4 5 7 11 10 6 2 8 2 2 2 3 2 2 3 1 2 2 4 4 3 2 4 1 3 13 2 0 1 3 3

GFSGBSN_850_spd_114.txt.gz
Wind_Speed
24 24 26 27 27 27 27 25 26 28 25 24 24 25 26 14 14 14 20 20 13 15 13 12 11 9 9 5 12 8 6 6 3 0 3 5 8 7 8 8 18 14 17 13 11 12 10
22 23 23 24 25 28 27 28 25 23 26 25 25 25 25 20 13 12 22 15 16 16 13 12 9 8 7 8 3 2 4 4 1 3 2 3 5 7 8 11 11 7 16 17 10 14 14
23 24 24 26 27 26 26 27 28 25 24 27 25 27 27 24 18 13 13 21 13 13 12 10 8 8 12 19 4 6 6 5 6 2 2 2 6 4 5 7 9 10 9 10 12 18 9
24 24 25 26 27 25 25 26 28 29 27 24 24 25 28 26 21 16 14 14 14 12 12 8 7 3 9 5 8 10 5 5 4 3 6 4 5 7 4 10 5 5 7 7 10 14 6
25 27 29 27 29 30 28 26 27 27 28 25 24 26 26 26 22 17 18 16 17 12 11 7 4 4 9 5 7 4 6 4 4 7 8 8 10 3 7 3 4 7 5 12 11 14 3
26 29 30 30 29 29 30 30 29 28 28 27 24 24 24 24 21 20 14 15 15 10 5 5 6 6 10 1 4 6 6 5 2 2 6 6 5 4 5 3 3 6 7 13 9 11 10
26 30 30 31 30 30 31 31 31 30 29 28 25 22 21 20 17 14 8 9 3 2 12 10 6 5 2 5 8 2 5 5 8 7 7 10 5 7 12 13 10 14 14 15 11 9 5
28 29 29 32 30 31 32 32 32 31 29 27 23 22 18 18 15 15 7 6 3 2 5 16 18 13 10 7 5 5 2 5 5 8 9 5 8 7 8 9 13 14 17 12 4 9 3
29 30 30 32 30 31 32 35 34 32 31 26 23 21 17 16 14 13 6 10 4 2 3 4 10 11 6 5 3 2 2 1 5 7 9 8 9 8 8 9 12 13 12 10 9 1 7
33 32 32 30 30 31 35 36 34 33 29 27 22 18 14 11 7 4 3 3 3 2 2 6 5 4 3 2 2 2 2 2 3 3 6 6 6 8 8 10 8 10 4 14 11 9 3
33 34 33 30 32 33 34 35 37 36 32 21 17 15 10 3 6 4 3 3 4 2 3 4 4 2 3 4 1 2 2 2 4 10 5 6 4 8 10 7 9 6 12 13 10 8 7
33 37 35 31 31 34 32 37 39 33 26 17 14 12 9 2 4 5 3 4 3 2 1 2 4 5 5 4 2 1 0 1 4 4 7 9 9 1 5 12 10 12 12 12 8 2 1
34 35 38 31 30 34 32 33 33 32 28 22 14 8 2 4 1 3 3 3 2 2 3 2 4 5 5 5 3 2 1 3 3 4 4 5 1 2 3 10 9 5 6 3 2 1 3
32 32 36 29 31 31 31 30 28 29 25 20 15 15 10 5 5 3 7 3 2 4 4 1 4 5 3 5 3 2 3 1 4 5 5 2 3 7 8 7 7 9 3 2 2 3 2
32 30 36 28 30 30 30 28 26 27 26 19 14 14 13 10 5 5 1 2 5 4 2 3 5 4 4 2 2 4 4 5 6 7 5 6 4 2 3 5 5 6 4 3 4 3 1
30 27 36 27 28 28 28 30 26 28 22 19 16 11 20 9 6 12 2 5 4 6 4 3 2 5 8 4 2 4 2 5 5 6 7 5 4 5 6 5 3 5 5 4 3 5 3
31 28 34 28 26 26 26 29 30 22 19 16 10 6 13 11 14 2 2 3 6 10 8 8 8 4 6 4 5 3 5 7 8 8 9 7 3 6 4 6 7 5 4 3 2 1 3
28 26 32 28 23 24 26 28 28 17 19 14 12 3 10 8 4 4 4 4 7 8 5 3 4 7 7 5 5 3 5 6 11 8 6 6 3 3 6 6 7 9 6 3 2 4 2
25 26 31 28 21 21 25 28 24 13 17 14 6 6 9 11 3 3 4 4 4 9 9 6 6 6 5 5 2 6 6 5 11 6 5 6 3 3 3 3 8 5 7 7 2 2 3
23 25 27 27 19 19 20 24 15 13 13 14 5 3 7 10 5 5 5 6 5 5 5 5 3 3 1 5 5 3 5 4 6 7 6 6 2 3 2 4 3 2 7 7 4 2 4
19 20 24 26 16 15 17 22 16 11 11 10 6 3 4 3 4 6 7 6 7 6 6 7 3 7 6 4 3 4 3 4 4 4 2 3 2 4 5 3 4 3 4 4 3 4 2
16 20 21 24 17 13 13 16 15 10 6 8 6 3 3 4 6 7 3 5 8 7 9 5 7 6 10 5 5 5 5 5 5 1 3 5 1 3 3 3 5 2 2 2 3 5 1
15 20 18 21 17 11 8 9 11 15 8 6 4 8 6 3 2 3 3 5 7 7 4 7 8 4 7 5 7 6 9 9 4 3 3 2 2 1 0 1 3 4 2 1 2 2 2
15 19 17 18 15 11 7 5 6 5 2 4 3 3 1 3 2 1 3 4 6 4 4 6 11 5 2 5 6 7 7 7 8 5 6 2 2 1 3 2 4 3 2 1 4 0 2
15 18 17 16 14 11 8 6 4 4 2 4 2 3 4 1 2 4 2 2 2 1 3 3 5 4 4 3 2 2 1 1 4 4 4 3 2 1 1 2 1 5 4 3 2 5 6
16 17 18 16 14 11 9 8 8 7 9 7 5 1 4 6 2 1 3 2 3 2 3 1 3 6 2 2 2 1 2 1 0 1 3 3 2 2 3 1 1 3 4 3 4 4 6
17 16 18 17 14 13 10 11 10 10 10 14 15 9 3 5 4 4 3 3 1 1 2 3 3 2 2 2 1 1 2 1 1 2 2 1 2 2 3 2 5 7 8 6 1 4 11
18 16 17 16 15 13 10 12 11 11 9 14 20 18 15 4 9 7 5 4 3 4 2 6 3 2 2 1 2 1 1 1 2 4 4 5 5 3 1 1 6 15 6 4 5 5 9
19 19 16 17 13 14 11 11 10 11 9 11 15 18 15 14 7 8 12 12 13 7 3 9 1 3 2 2 1 1 2 1 1 2 1 3 4 2 5 5 1 19 6 6 5 1 7

GFSGBSN_850_spd_117.txt.gz
Wind_Speed
22 23 23 24 26 26 25 24 24 23 21 23 23 24 24 24 20 10 9 9 14 11 8 8 8 8 4 4 9 7 4 3 0 5 7 4 10 12 5 4 6 11 15 22 27 26 29
26 25 25 27 27 27 27 24 24 25 25 23 22 22 23 24 22 17 11 12 12 10 9 9 6 6 4 5 5 3 3 2 2 3 3 7 5 4 9 6 6 9 13 20 26 25 16
26 26 27 28 26 28 28 27 25 26 26 25 23 21 22 24 22 19 13 9 7 15 12 7 6 5 9 17 11 9 5 2 7 5 6 7 5 4 3 6 14 17 12 11 11 16 10
25 27 29 30 30 28 28 28 29 28 26 27 25 22 20 23 22 20 14 15 9 12 8 5 5 3 8 2 7 13 7 4 10 6 6 7 5 5 5 8 7 4 3 2 3 12 8
27 27 30 29 32 29 29 29 30 30 28 27 26 24 20 20 19 17 16 13 15 11 6 3 3 3 8 3 7 3 6 8 7 8 8 8 7 4 4 2 3 3 4 5 11 9 8
28 30 31 32 33 31 30 31 31 31 31 28 26 25 20 17 16 16 14 5 7 10 2 6 6 2 8 2 2 6 8 9 6 4 8 6 4 1 2 2 3 5 7 8 11 6 16
33 35 33 34 32 31 31 33 34 32 31 28 26 23 19 15 15 15 12 2 3 2 10 8 8 4 7 4 6 2 6 5 7 6 5 6 2 6 7 9 15 14 12 15 16 9 5
36 36 35 33 32 32 33 35 36 35 33 30 24 20 16 11 10 14 7 2 4 1 2 9 13 12 8 9 3 5 5 4 6 6 4 3 7 10 10 8 10 8 11 12 7 6 5
34 37 35 34 33 32 35 35 36 35 32 27 19 15 10 8 7 7 3 4 3 4 0 2 4 7 7 6 3 9 3 2 5 4 7 3 6 5 6 7 9 6 5 7 14 10 9
32 35 33 36 32 33 34 34 34 36 34 22 18 10 8 4 3 1 5 3 5 5 2 2 1 1 3 2 1 3 2 2 3 4 5 5 4 7 7 8 9 5 3 12 14 10 4
31 34 34 37 31 34 34 33 31 33 34 30 18 14 9 4 2 3 3 6 8 4 4 1 2 1 2 2 1 1 1 2 3 3 4 7 4 3 4 5 7 7 7 11 8 9 4
31 33 32 39 30 33 32 31 30 31 31 25 23 17 12 10 7 4 4 9 6 2 3 2 2 1 1 2 1 1 1 2 3 3 3 7 5 3 2 8 8 12 9 10 3 1 2
32 30 32 40 29 32 31 30 27 30 26 23 20 14 8 5 5 4 4 5 2 5 4 1 2 3 5 2 2 2 2 1 3 5 4 6 3 3 4 6 6 14 5 3 3 3 4
32 27 32 41 27 29 29 30 30 27 21 19 17 17 16 9 8 6 4 1 6 5 3 1 2 3 2 2 0 1 2 3 6 5 2 4 7 6 6 3 4 5 3 3 4 1 3
31 25 33 39 27 28 28 31 30 20 16 18 21 25 21 15 10 8 4 4 4 2 4 1 1 0 2 1 2 1 5 4 3 6 4 5 4 5 5 2 3 7 3 1 3 1 3
28 26 29 36 28 26 28 32 26 18 13 13 14 20 19 12 13 5 2 9 4 5 6 3 2 1 3 1 1 1 4 6 7 7 5 4 2 5 4 9 9 4 4 4 4 4 4
26 25 28 33 27 25 28 31 21 19 14 9 11 9 13 14 8 6 3 5 4 8 8 6 6 6 5 3 5 4 6 3 7 7 8 5 3 6 6 5 5 6 5 4 4 3 4
24 24 26 29 25 22 26 25 20 19 17 18 12 4 6 6 6 3 3 2 7 10 16 5 5 6 5 8 6 4 3 4 15 6 3 3 3 2 1 4 4 4 5 3 3 4 3
22 20 23 26 23 19 22 19 17 17 12 13 5 5 12 7 4 4 5 3 4 6 6 6 6 6 5 5 4 4 4 4 11 5 2 4 3 3 7 7 7 5 6 4 2 2 2
19 19 21 24 23 16 17 19 12 13 9 7 3 3 6 6 3 1 3 5 4 8 4 8 4 4 3 4 5 3 2 3 4 3 6 3 3 5 5 6 3 4 6 6 4 4 2
17 17 18 22 22 14 13 11 10 10 11 13 11 2 1 1 4 4 3 3 5 5 9 14 5 8 4 4 3 3 2 1 4 5 4 4 3 3 2 3 2 4 3 4 3 4 4
16 17 16 19 20 14 10 9 8 9 9 15 6 7 4 4 6 4 4 4 4 3 5 5 5 6 8 4 2 2 4 4 1 4 3 4 0 2 4 2 4 2 5 4 3 3 2
14 15 14 16 16 14 7 8 9 4 6 8 10 10 9 5 5 2 1 2 3 2 3 5 3 1 5 2 4 5 7 7 3 2 2 3 3 3 3 2 4 5 4 3 1 2 4
12 16 13 15 14 12 8 3 6 4 7 9 9 7 5 4 3 2 2 2 2 2 2 2 7 3 2 2 2 5 5 8 9 6 4 3 2 2 3 4 4 5 2 2 3 3 4
12 16 15 13 13 11 9 5 3 1 3 3 5 5 5 4 8 3 4 2 2 3 2 1 2 3 3 1 2 2 4 4 2 3 4 3 2 2 3 2 4 1 4 4 4 4 7
14 16 16 14 13 11 9 7 8 7 5 3 3 4 4 3 3 9 4 2 1 1 2 1 2 5 1 1 1 2 1 3 3 4 3 2 3 3 1 2 4 4 4 6 4 3 8
18 17 17 15 14 11 11 9 11 11 10 9 6 4 2 2 2 7 3 4 4 1 1 1 1 1 1 2 1 2 2 2 0 2 2 2 2 3 2 2 6 4 8 7 2 5 12
22 20 19 16 15 13 12 11 12 14 13 11 8 10 10 4 8 10 8 7 6 3 2 2 2 2 2 1 2 3 2 3 1 3 4 5 4 3 1 1 6 13 7 6 5 8 13
24 23 21 17 17 15 13 12 13 15 13 11 9 9 13 13 6 8 10 12 13 13 3 4 2 3 5 2 0 2 1 2 3 3 1 2 6 3 8 5 5 22 5 10 12 11 10